Time,TemperatureF,DewpointF,PressureIn,WindDirection,WindDirectionDegrees,WindSpeedMPH,WindSpeedGustMPH,Humidity,HourlyPrecipIn,Conditions,Clouds,dailyrainin,SoftwareType,DateUTC
2013-02-11 00:01:00,50.2,24.9,29.35,SSE,158,0.0,0.0,37,0.00,,---,0.00,VWS V14.01,2013-02-10 22:01:00,
2013-02-11 00:02:00,50.0,25.4,29.35,SSE,158,0.0,0.0,38,0.00,,---,0.00,VWS V14.01,2013-02-10 22:02:00,
2013-02-11 00:03:00,50.0,25.4,29.35,SSE,158,0.0,0.0,38,0.00,,---,0.00,VWS V14.01,2013-02-10 22:03:00,
2013-02-11 00:04:00,50.0,25.4,29.35,SSE,158,0.0,0.0,38,0.00,,---,0.00,VWS V14.01,2013-02-10 22:04:00,
2013-02-11 00:05:00,50.0,25.4,29.35,SSE,158,1.1,1.1,38,0.00,,---,0.00,VWS V14.01,2013-02-10 22:05:00,
2013-02-11 00:07:00,50.0,25.4,29.35,SE,135,1.6,1.6,38,0.00,,---,0.00,VWS V14.01,2013-02-10 22:07:00,
2013-02-11 00:08:00,50.0,25.4,29.35,SE,135,1.1,1.6,38,0.00,,---,0.00,VWS V14.01,2013-02-10 22:08:00,
2013-02-11 00:09:00,50.0,25.4,29.35,SE,135,0.9,1.1,38,0.00,,---,0.00,VWS V14.01,2013-02-10 22:09:00,
2013-02-11 00:10:00,50.0,25.4,29.35,SE,135,1.3,1.3,38,0.00,,---,0.00,VWS V14.01,2013-02-10 22:10:00,
2013-02-11 00:11:00,50.0,25.4,29.35,ESE,112,1.6,1.6,38,0.00,,---,0.00,VWS V14.01,2013-02-10 22:11:00,
2013-02-11 00:12:00,50.0,25.4,29.35,ESE,112,1.1,1.6,38,0.00,,---,0.00,VWS V14.01,2013-02-10 22:12:00,
2013-02-11 00:13:00,50.0,25.4,29.35,ESE,112,1.1,1.1,38,0.00,,---,0.00,VWS V14.01,2013-02-10 22:13:00,
2013-02-11 00:14:00,50.0,25.4,29.35,ESE,112,0.0,1.1,38,0.00,,---,0.00,VWS V14.01,2013-02-10 22:14:00,
2013-02-11 00:16:00,49.8,25.2,29.35,ESE,112,2.0,2.0,38,0.00,,---,0.00,VWS V14.01,2013-02-10 22:16:00,
2013-02-11 00:17:00,49.8,25.9,29.35,ESE,112,0.9,2.0,39,0.00,,---,0.00,VWS V14.01,2013-02-10 22:17:00,
2013-02-11 00:18:00,49.8,25.9,29.35,ESE,112,1.3,1.3,39,0.00,,---,0.00,VWS V14.01,2013-02-10 22:18:00,
2013-02-11 00:19:00,49.8,25.9,29.35,ESE,112,0.9,1.3,39,0.00,,---,0.00,VWS V14.01,2013-02-10 22:19:00,
2013-02-11 00:20:00,49.8,25.9,29.35,East,90,2.0,2.0,39,0.00,,---,0.00,VWS V14.01,2013-02-10 22:20:00,
2013-02-11 00:21:00,49.8,25.9,29.35,East,90,1.6,2.0,39,0.00,,---,0.00,VWS V14.01,2013-02-10 22:21:00,
2013-02-11 00:22:00,49.8,25.9,29.35,East,90,2.0,2.0,39,0.00,,---,0.00,VWS V14.01,2013-02-10 22:22:00,
2013-02-11 00:23:00,49.8,25.9,29.35,ENE,68,1.3,2.0,39,0.00,,---,0.00,VWS V14.01,2013-02-10 22:23:00,
2013-02-11 00:25:00,49.6,25.7,29.35,ENE,68,0.0,1.3,39,0.00,,---,0.00,VWS V14.01,2013-02-10 22:25:00,
2013-02-11 00:26:00,49.6,25.7,29.35,ENE,68,0.0,0.0,39,0.00,,---,0.00,VWS V14.01,2013-02-10 22:26:00,
2013-02-11 00:28:00,49.6,25.7,29.35,ENE,68,0.0,0.0,39,0.00,,---,0.00,VWS V14.01,2013-02-10 22:28:00,
2013-02-11 00:29:00,49.6,25.7,29.35,NE,45,0.0,0.0,39,0.00,,---,0.00,VWS V14.01,2013-02-10 22:29:00,
2013-02-11 00:30:00,49.6,25.7,29.35,NE,45,1.3,1.3,39,0.00,,---,0.00,VWS V14.01,2013-02-10 22:30:00,
2013-02-11 00:31:00,49.6,25.7,29.35,NNE,22,1.3,1.3,39,0.00,,---,0.00,VWS V14.01,2013-02-10 22:31:00,
2013-02-11 00:32:00,49.5,25.5,29.35,NNE,22,1.1,1.3,39,0.00,,---,0.00,VWS V14.01,2013-02-10 22:32:00,
2013-02-11 00:33:00,49.5,25.5,29.35,NNE,22,1.1,1.1,39,0.00,,---,0.00,VWS V14.01,2013-02-10 22:33:00,
2013-02-11 00:34:00,49.5,25.5,29.35,NNE,22,1.1,1.1,39,0.00,,---,0.00,VWS V14.01,2013-02-10 22:34:00,
2013-02-11 00:35:00,49.5,25.5,29.35,NNE,22,0.0,1.1,39,0.00,,---,0.00,VWS V14.01,2013-02-10 22:35:00,
2013-02-11 00:36:00,49.5,25.5,29.35,NNE,22,0.0,0.0,39,0.00,,---,0.00,VWS V14.01,2013-02-10 22:36:00,
2013-02-11 00:37:00,49.5,25.5,29.35,NNE,22,0.0,0.0,39,0.00,,---,0.00,VWS V14.01,2013-02-10 22:37:00,
2013-02-11 00:38:00,49.5,25.5,29.35,NNE,22,0.0,0.0,39,0.00,,---,0.00,VWS V14.01,2013-02-10 22:38:00,
2013-02-11 00:39:00,49.5,25.5,29.35,NNE,22,0.0,0.0,39,0.00,,---,0.00,VWS V14.01,2013-02-10 22:39:00,
2013-02-11 00:40:00,49.5,25.5,29.35,NNE,22,0.0,0.0,39,0.00,,---,0.00,VWS V14.01,2013-02-10 22:40:00,
2013-02-11 00:41:00,49.5,25.5,29.35,NNE,22,0.0,0.0,39,0.00,,---,0.00,VWS V14.01,2013-02-10 22:41:00,
2013-02-11 00:42:00,49.5,25.5,29.35,NNE,22,0.0,0.0,39,0.00,,---,0.00,VWS V14.01,2013-02-10 22:42:00,
2013-02-11 00:43:00,49.5,25.5,29.35,NNE,22,0.0,0.0,39,0.00,,---,0.00,VWS V14.01,2013-02-10 22:43:00,
2013-02-11 00:44:00,49.5,25.5,29.35,NNE,22,0.0,0.0,39,0.00,,---,0.00,VWS V14.01,2013-02-10 22:44:00,
2013-02-11 00:45:00,49.5,25.5,29.35,NNE,22,0.0,0.0,39,0.00,,---,0.00,VWS V14.01,2013-02-10 22:45:00,
2013-02-11 00:46:00,49.5,25.5,29.35,NNE,22,0.0,0.0,39,0.00,,---,0.00,VWS V14.01,2013-02-10 22:46:00,
2013-02-11 00:47:00,49.5,25.5,29.35,NNE,22,0.0,0.0,39,0.00,,---,0.00,VWS V14.01,2013-02-10 22:47:00,
2013-02-11 00:48:00,49.5,25.5,29.35,NE,45,0.0,0.0,39,0.00,,---,0.00,VWS V14.01,2013-02-10 22:48:00,
2013-02-11 00:49:00,49.5,25.5,29.35,ENE,68,1.3,1.3,39,0.00,,---,0.00,VWS V14.01,2013-02-10 22:49:00,
2013-02-11 00:50:00,49.5,25.5,29.35,ENE,68,0.0,1.3,39,0.00,,---,0.00,VWS V14.01,2013-02-10 22:50:00,
2013-02-11 00:51:00,49.5,25.5,29.35,East,90,1.3,1.3,39,0.00,,---,0.00,VWS V14.01,2013-02-10 22:51:00,
2013-02-11 00:52:00,49.5,26.2,29.35,East,90,0.0,1.3,40,0.00,,---,0.00,VWS V14.01,2013-02-10 22:52:00,
2013-02-11 00:53:00,49.5,26.2,29.35,East,90,0.0,0.0,40,0.00,,---,0.00,VWS V14.01,2013-02-10 22:53:00,
2013-02-11 00:54:00,49.5,26.2,29.35,ESE,112,0.9,0.9,40,0.00,,---,0.00,VWS V14.01,2013-02-10 22:54:00,
2013-02-11 00:55:00,49.5,26.2,29.35,ESE,112,0.9,0.9,40,0.00,,---,0.00,VWS V14.01,2013-02-10 22:55:00,
2013-02-11 00:56:00,49.6,26.3,29.35,ESE,112,0.0,0.9,40,0.00,,---,0.00,VWS V14.01,2013-02-10 22:56:00,
2013-02-11 00:57:00,49.6,26.3,29.35,ESE,112,0.0,0.0,40,0.00,,---,0.00,VWS V14.01,2013-02-10 22:57:00,
2013-02-11 00:58:00,49.6,26.3,29.35,East,90,0.0,0.0,40,0.00,,---,0.00,VWS V14.01,2013-02-10 22:58:00,
2013-02-11 00:59:00,49.6,26.3,29.35,East,90,0.0,0.0,40,0.00,,---,0.00,VWS V14.01,2013-02-10 22:59:00,
2013-02-11 01:00:00,49.6,26.3,29.35,East,90,0.9,0.9,40,0.00,,---,0.00,VWS V14.01,2013-02-10 23:00:00,
2013-02-11 01:01:00,49.6,26.3,29.35,East,90,0.0,0.9,40,0.00,,---,0.00,VWS V14.01,2013-02-10 23:01:00,
2013-02-11 01:02:00,49.6,25.7,29.35,ENE,68,1.3,1.3,39,0.00,,---,0.00,VWS V14.01,2013-02-10 23:02:00,
2013-02-11 01:03:00,49.6,25.7,29.35,NE,45,1.1,1.3,39,0.00,,---,0.00,VWS V14.01,2013-02-10 23:03:00,
2013-02-11 01:04:00,49.8,25.9,29.35,NNE,22,1.3,1.3,39,0.00,,---,0.00,VWS V14.01,2013-02-10 23:04:00,
2013-02-11 01:05:00,49.8,25.9,29.35,NNE,22,0.0,1.3,39,0.00,,---,0.00,VWS V14.01,2013-02-10 23:05:00,
2013-02-11 01:06:00,49.8,25.9,29.35,NNE,22,0.0,0.0,39,0.00,,---,0.00,VWS V14.01,2013-02-10 23:06:00,
2013-02-11 01:07:00,49.8,25.9,29.35,NNE,22,1.1,1.1,39,0.00,,---,0.00,VWS V14.01,2013-02-10 23:07:00,
2013-02-11 01:08:00,49.8,25.9,29.35,NNE,22,1.1,1.1,39,0.00,,---,0.00,VWS V14.01,2013-02-10 23:08:00,
2013-02-11 01:09:00,49.8,25.9,29.35,NNE,22,0.9,1.1,39,0.00,,---,0.00,VWS V14.01,2013-02-10 23:09:00,
2013-02-11 01:10:00,50.0,26.0,29.35,NNE,22,0.9,0.9,39,0.00,,---,0.00,VWS V14.01,2013-02-10 23:10:00,
2013-02-11 01:11:00,50.0,26.0,29.35,North,0,1.1,1.1,39,0.00,,---,0.00,VWS V14.01,2013-02-10 23:11:00,
2013-02-11 01:12:00,50.0,26.0,29.35,North,0,0.9,1.1,39,0.00,,---,0.00,VWS V14.01,2013-02-10 23:12:00,
2013-02-11 01:14:00,50.0,26.0,29.35,North,0,0.0,0.9,39,0.00,,---,0.00,VWS V14.01,2013-02-10 23:14:00,
2013-02-11 01:15:00,50.0,26.0,29.35,North,0,0.9,0.9,39,0.00,,---,0.00,VWS V14.01,2013-02-10 23:15:00,
2013-02-11 01:16:00,50.0,26.0,29.35,North,0,0.0,0.9,39,0.00,,---,0.00,VWS V14.01,2013-02-10 23:16:00,
2013-02-11 01:17:00,49.8,25.9,29.35,North,0,0.0,0.0,39,0.00,,---,0.00,VWS V14.01,2013-02-10 23:17:00,
2013-02-11 01:18:00,49.8,25.9,29.35,North,0,0.0,0.0,39,0.00,,---,0.00,VWS V14.01,2013-02-10 23:18:00,
2013-02-11 01:19:00,49.8,25.9,29.35,North,0,0.0,0.0,39,0.00,,---,0.00,VWS V14.01,2013-02-10 23:19:00,
2013-02-11 01:20:00,49.8,25.9,29.35,North,0,0.0,0.0,39,0.00,,---,0.00,VWS V14.01,2013-02-10 23:20:00,
2013-02-11 01:21:00,49.8,25.9,29.35,NNE,22,0.0,0.0,39,0.00,,---,0.00,VWS V14.01,2013-02-10 23:21:00,
2013-02-11 01:22:00,49.6,25.7,29.35,NNE,22,0.0,0.0,39,0.00,,---,0.00,VWS V14.01,2013-02-10 23:22:00,
2013-02-11 01:24:00,49.6,25.7,29.35,NNE,22,0.0,0.0,39,0.00,,---,0.00,VWS V14.01,2013-02-10 23:24:00,
2013-02-11 01:25:00,49.6,25.7,29.35,NNE,22,0.0,0.0,39,0.00,,---,0.00,VWS V14.01,2013-02-10 23:25:00,
2013-02-11 01:26:00,49.6,25.7,29.35,North,0,0.0,0.0,39,0.00,,---,0.00,VWS V14.01,2013-02-10 23:26:00,
2013-02-11 01:27:00,49.6,25.7,29.35,North,0,1.3,1.3,39,0.00,,---,0.00,VWS V14.01,2013-02-10 23:27:00,
2013-02-11 01:29:00,49.6,25.7,29.35,North,0,0.0,1.3,39,0.00,,---,0.00,VWS V14.01,2013-02-10 23:29:00,
2013-02-11 01:30:00,49.6,25.7,29.35,NNW,338,1.3,1.3,39,0.00,,---,0.00,VWS V14.01,2013-02-10 23:30:00,
2013-02-11 01:31:00,49.6,25.7,29.35,NNW,338,0.9,1.3,39,0.00,,---,0.00,VWS V14.01,2013-02-10 23:31:00,
2013-02-11 01:32:00,49.6,25.7,29.35,WNW,292,0.0,0.9,39,0.00,,---,0.00,VWS V14.01,2013-02-10 23:32:00,
2013-02-11 01:33:00,49.6,25.1,29.35,West,270,1.1,1.1,38,0.00,,---,0.00,VWS V14.01,2013-02-10 23:33:00,
2013-02-11 01:34:00,49.6,25.1,29.35,West,270,0.9,1.1,38,0.00,,---,0.00,VWS V14.01,2013-02-10 23:34:00,
2013-02-11 01:35:00,49.6,25.1,29.35,West,270,0.0,0.9,38,0.00,,---,0.00,VWS V14.01,2013-02-10 23:35:00,
2013-02-11 01:36:00,49.6,25.1,29.35,West,270,0.0,0.0,38,0.00,,---,0.00,VWS V14.01,2013-02-10 23:36:00,
2013-02-11 01:38:00,49.6,25.1,29.35,West,270,0.0,0.0,38,0.00,,---,0.00,VWS V14.01,2013-02-10 23:38:00,
2013-02-11 01:39:00,49.6,25.1,29.35,WNW,292,0.9,0.9,38,0.00,,---,0.00,VWS V14.01,2013-02-10 23:39:00,
2013-02-11 01:40:00,49.5,24.9,29.35,WNW,292,0.0,0.9,38,0.00,,---,0.00,VWS V14.01,2013-02-10 23:40:00,
2013-02-11 01:41:00,49.5,24.9,29.35,West,270,1.1,1.1,38,0.00,,---,0.00,VWS V14.01,2013-02-10 23:41:00,
2013-02-11 01:42:00,49.5,24.9,29.35,West,270,1.1,1.1,38,0.00,,---,0.00,VWS V14.01,2013-02-10 23:42:00,
2013-02-11 01:44:00,49.5,24.9,29.35,WNW,292,0.0,1.1,38,0.00,,---,0.00,VWS V14.01,2013-02-10 23:44:00,
2013-02-11 01:45:00,49.5,24.9,29.35,WNW,292,0.9,0.9,38,0.00,,---,0.00,VWS V14.01,2013-02-10 23:45:00,
2013-02-11 01:46:00,49.5,24.9,29.35,NW,315,0.9,0.9,38,0.00,,---,0.00,VWS V14.01,2013-02-10 23:46:00,
2013-02-11 01:47:00,49.5,24.9,29.35,WNW,292,0.0,0.9,38,0.00,,---,0.00,VWS V14.01,2013-02-10 23:47:00,
2013-02-11 01:48:00,49.5,24.9,29.35,WNW,292,0.0,0.0,38,0.00,,---,0.00,VWS V14.01,2013-02-10 23:48:00,
2013-02-11 01:49:00,49.5,24.9,29.35,WNW,292,0.0,0.0,38,0.00,,---,0.00,VWS V14.01,2013-02-10 23:49:00,
2013-02-11 01:50:00,49.5,24.9,29.35,WNW,292,0.0,0.0,38,0.00,,---,0.00,VWS V14.01,2013-02-10 23:50:00,
2013-02-11 01:51:00,49.5,24.9,29.35,WNW,292,0.0,0.0,38,0.00,,---,0.00,VWS V14.01,2013-02-10 23:51:00,
2013-02-11 01:52:00,49.5,24.9,29.35,WNW,292,0.0,0.0,38,0.00,,---,0.00,VWS V14.01,2013-02-10 23:52:00,
2013-02-11 01:53:00,49.5,24.9,29.35,WNW,292,0.0,0.0,38,0.00,,---,0.00,VWS V14.01,2013-02-10 23:53:00,
2013-02-11 01:54:00,49.5,24.9,29.35,NW,315,1.6,1.6,38,0.00,,---,0.00,VWS V14.01,2013-02-10 23:54:00,
2013-02-11 01:55:00,49.5,24.9,29.35,NW,315,1.1,1.6,38,0.00,,---,0.00,VWS V14.01,2013-02-10 23:55:00,
2013-02-11 01:56:00,49.5,24.9,29.35,NW,315,0.0,1.1,38,0.00,,---,0.00,VWS V14.01,2013-02-10 23:56:00,
2013-02-11 01:57:00,49.5,24.9,29.35,NNW,338,0.9,0.9,38,0.00,,---,0.00,VWS V14.01,2013-02-10 23:57:00,
2013-02-11 01:58:00,49.5,24.9,29.35,NNW,338,0.0,0.9,38,0.00,,---,0.00,VWS V14.01,2013-02-10 23:58:00,
2013-02-11 01:59:00,49.5,24.9,29.35,NNW,338,0.0,0.0,38,0.00,,---,0.00,VWS V14.01,2013-02-10 23:59:00,
2013-02-11 02:01:00,49.3,24.8,29.35,NNW,338,1.3,1.3,38,0.00,,---,0.00,VWS V14.01,2013-02-11 00:01:00,
2013-02-11 02:02:00,49.3,24.8,29.35,North,0,1.3,1.3,38,0.00,,---,0.00,VWS V14.01,2013-02-11 00:02:00,
2013-02-11 02:03:00,49.3,24.8,29.35,NNE,22,2.2,2.2,38,0.00,,---,0.00,VWS V14.01,2013-02-11 00:03:00,
2013-02-11 02:04:00,49.3,24.8,29.35,NNE,22,0.0,2.2,38,0.00,,---,0.00,VWS V14.01,2013-02-11 00:04:00,
2013-02-11 02:05:00,49.3,24.8,29.35,NNW,338,1.1,1.1,38,0.00,,---,0.00,VWS V14.01,2013-02-11 00:05:00,
2013-02-11 02:06:00,49.3,24.8,29.35,NNW,338,0.9,1.1,38,0.00,,---,0.00,VWS V14.01,2013-02-11 00:06:00,
2013-02-11 02:07:00,49.3,24.8,29.35,NNW,338,0.9,0.9,38,0.00,,---,0.00,VWS V14.01,2013-02-11 00:07:00,
2013-02-11 02:08:00,49.3,24.8,29.32,WNW,292,2.2,2.2,38,0.00,,---,0.00,VWS V14.01,2013-02-11 00:08:00,
2013-02-11 02:09:00,49.3,24.8,29.32,South,180,2.5,2.5,38,0.00,,---,0.00,VWS V14.01,2013-02-11 00:09:00,
2013-02-11 02:10:00,49.1,24.6,29.32,South,180,0.0,2.5,38,0.00,,---,0.00,VWS V14.01,2013-02-11 00:10:00,
2013-02-11 02:11:00,49.1,24.6,29.32,South,180,0.0,0.0,38,0.00,,---,0.00,VWS V14.01,2013-02-11 00:11:00,
2013-02-11 02:12:00,49.1,24.6,29.32,South,180,0.0,0.0,38,0.00,,---,0.00,VWS V14.01,2013-02-11 00:12:00,
2013-02-11 02:14:00,49.1,24.6,29.32,SSW,202,0.9,0.9,38,0.00,,---,0.00,VWS V14.01,2013-02-11 00:14:00,
2013-02-11 02:15:00,49.1,24.6,29.32,South,180,1.6,1.6,38,0.00,,---,0.00,VWS V14.01,2013-02-11 00:15:00,
2013-02-11 02:16:00,48.9,24.5,29.32,South,180,1.1,1.6,38,0.00,,---,0.00,VWS V14.01,2013-02-11 00:16:00,
2013-02-11 02:17:00,48.9,24.5,29.32,South,180,0.0,1.1,38,0.00,,---,0.00,VWS V14.01,2013-02-11 00:17:00,
2013-02-11 02:18:00,48.9,24.5,29.32,South,180,0.9,0.9,38,0.00,,---,0.00,VWS V14.01,2013-02-11 00:18:00,
2013-02-11 02:19:00,48.9,24.5,29.32,South,180,0.0,0.9,38,0.00,,---,0.00,VWS V14.01,2013-02-11 00:19:00,
2013-02-11 02:20:00,48.9,24.5,29.32,South,180,0.0,0.0,38,0.00,,---,0.00,VWS V14.01,2013-02-11 00:20:00,
2013-02-11 02:21:00,48.9,24.5,29.32,South,180,0.0,0.0,38,0.00,,---,0.00,VWS V14.01,2013-02-11 00:21:00,
2013-02-11 02:22:00,48.9,24.5,29.32,South,180,0.0,0.0,38,0.00,,---,0.00,VWS V14.01,2013-02-11 00:22:00,
2013-02-11 02:23:00,48.9,24.5,29.35,South,180,0.0,0.0,38,0.00,,---,0.00,VWS V14.01,2013-02-11 00:23:00,
2013-02-11 02:24:00,48.9,24.5,29.35,South,180,0.0,0.0,38,0.00,,---,0.00,VWS V14.01,2013-02-11 00:24:00,
2013-02-11 02:25:00,48.9,24.5,29.35,South,180,0.0,0.0,38,0.00,,---,0.00,VWS V14.01,2013-02-11 00:25:00,
2013-02-11 02:26:00,48.9,24.5,29.35,South,180,0.0,0.0,38,0.00,,---,0.00,VWS V14.01,2013-02-11 00:26:00,
2013-02-11 02:27:00,48.7,24.3,29.35,South,180,0.0,0.0,38,0.00,,---,0.00,VWS V14.01,2013-02-11 00:27:00,
2013-02-11 02:28:00,48.7,24.3,29.35,South,180,0.0,0.0,38,0.00,,---,0.00,VWS V14.01,2013-02-11 00:28:00,
2013-02-11 02:29:00,48.7,24.3,29.35,South,180,0.0,0.0,38,0.00,,---,0.00,VWS V14.01,2013-02-11 00:29:00,
2013-02-11 02:30:00,48.7,24.3,29.35,South,180,0.0,0.0,38,0.00,,---,0.00,VWS V14.01,2013-02-11 00:30:00,
2013-02-11 02:31:00,48.7,24.3,29.35,South,180,0.0,0.0,38,0.00,,---,0.00,VWS V14.01,2013-02-11 00:31:00,
2013-02-11 02:32:00,48.7,24.3,29.35,South,180,0.0,0.0,38,0.00,,---,0.00,VWS V14.01,2013-02-11 00:32:00,
2013-02-11 02:33:00,48.6,24.1,29.35,South,180,0.0,0.0,38,0.00,,---,0.00,VWS V14.01,2013-02-11 00:33:00,
2013-02-11 02:34:00,48.6,24.1,29.35,South,180,1.3,1.3,38,0.00,,---,0.00,VWS V14.01,2013-02-11 00:34:00,
2013-02-11 02:35:00,48.6,24.1,29.35,South,180,0.9,1.3,38,0.00,,---,0.00,VWS V14.01,2013-02-11 00:35:00,
2013-02-11 02:36:00,48.6,24.1,29.35,South,180,1.3,1.3,38,0.00,,---,0.00,VWS V14.01,2013-02-11 00:36:00,
2013-02-11 02:37:00,48.4,24.0,29.35,South,180,1.1,1.3,38,0.00,,---,0.00,VWS V14.01,2013-02-11 00:37:00,
2013-02-11 02:38:00,48.4,24.0,29.32,South,180,0.0,1.1,38,0.00,,---,0.00,VWS V14.01,2013-02-11 00:38:00,
2013-02-11 02:39:00,48.4,24.6,29.32,South,180,0.9,0.9,39,0.00,,---,0.00,VWS V14.01,2013-02-11 00:39:00,
2013-02-11 02:40:00,48.4,24.6,29.32,South,180,1.1,1.1,39,0.00,,---,0.00,VWS V14.01,2013-02-11 00:40:00,
2013-02-11 02:41:00,48.4,24.6,29.32,South,180,0.0,1.1,39,0.00,,---,0.00,VWS V14.01,2013-02-11 00:41:00,
2013-02-11 02:42:00,48.4,24.6,29.32,South,180,1.6,1.6,39,0.00,,---,0.00,VWS V14.01,2013-02-11 00:42:00,
2013-02-11 02:43:00,48.4,24.6,29.32,South,180,1.6,1.6,39,0.00,,---,0.00,VWS V14.01,2013-02-11 00:43:00,
2013-02-11 02:44:00,48.4,24.6,29.32,WSW,248,2.0,2.0,39,0.00,,---,0.00,VWS V14.01,2013-02-11 00:44:00,
2013-02-11 02:45:00,48.4,24.6,29.32,NNW,338,1.3,2.0,39,0.00,,---,0.00,VWS V14.01,2013-02-11 00:45:00,
2013-02-11 02:46:00,48.4,24.6,29.32,NNW,338,1.6,1.6,39,0.00,,---,0.00,VWS V14.01,2013-02-11 00:46:00,
2013-02-11 02:47:00,48.4,24.6,29.32,NNW,338,1.6,1.6,39,0.00,,---,0.00,VWS V14.01,2013-02-11 00:47:00,
2013-02-11 02:48:00,48.4,24.6,29.32,NNW,338,1.3,1.6,39,0.00,,---,0.00,VWS V14.01,2013-02-11 00:48:00,
2013-02-11 02:49:00,48.4,24.6,29.32,NNW,338,1.1,1.3,39,0.00,,---,0.00,VWS V14.01,2013-02-11 00:49:00,
2013-02-11 02:50:00,48.4,24.6,29.32,NNW,338,1.3,1.3,39,0.00,,---,0.00,VWS V14.01,2013-02-11 00:50:00,
2013-02-11 02:51:00,48.4,24.6,29.32,NNW,338,1.1,1.3,39,0.00,,---,0.00,VWS V14.01,2013-02-11 00:51:00,
2013-02-11 02:52:00,48.4,24.6,29.32,North,0,1.6,1.6,39,0.00,,---,0.00,VWS V14.01,2013-02-11 00:52:00,
2013-02-11 02:53:00,48.4,24.6,29.32,North,0,1.6,1.6,39,0.00,,---,0.00,VWS V14.01,2013-02-11 00:53:00,
2013-02-11 02:54:00,48.2,24.4,29.32,North,0,1.1,1.6,39,0.00,,---,0.00,VWS V14.01,2013-02-11 00:54:00,
2013-02-11 02:55:00,48.2,24.4,29.32,North,0,0.0,1.1,39,0.00,,---,0.00,VWS V14.01,2013-02-11 00:55:00,
2013-02-11 02:56:00,48.2,24.4,29.32,North,0,0.0,0.0,39,0.00,,---,0.00,VWS V14.01,2013-02-11 00:56:00,
2013-02-11 02:58:00,48.0,24.9,29.32,North,0,0.0,0.0,40,0.00,,---,0.00,VWS V14.01,2013-02-11 00:58:00,
2013-02-11 02:59:00,47.8,24.7,29.32,North,0,0.0,0.0,40,0.00,,---,0.00,VWS V14.01,2013-02-11 00:59:00,
2013-02-11 03:00:00,47.8,24.7,29.32,North,0,0.0,0.0,40,0.00,,---,0.00,VWS V14.01,2013-02-11 01:00:00,
2013-02-11 03:01:00,47.8,24.7,29.32,North,0,0.0,0.0,40,0.00,,---,0.00,VWS V14.01,2013-02-11 01:01:00,
2013-02-11 03:02:00,47.8,24.7,29.32,North,0,0.0,0.0,40,0.00,,---,0.00,VWS V14.01,2013-02-11 01:02:00,
2013-02-11 03:03:00,47.7,24.5,29.32,North,0,0.0,0.0,40,0.00,,---,0.00,VWS V14.01,2013-02-11 01:03:00,
2013-02-11 03:05:00,47.5,24.4,29.32,North,0,0.0,0.0,40,0.00,,---,0.00,VWS V14.01,2013-02-11 01:05:00,
2013-02-11 03:06:00,47.5,24.4,29.32,North,0,0.0,0.0,40,0.00,,---,0.00,VWS V14.01,2013-02-11 01:06:00,
2013-02-11 03:07:00,47.5,24.4,29.32,North,0,0.0,0.0,40,0.00,,---,0.00,VWS V14.01,2013-02-11 01:07:00,
2013-02-11 03:08:00,47.3,24.2,29.35,North,0,0.0,0.0,40,0.00,,---,0.00,VWS V14.01,2013-02-11 01:08:00,
2013-02-11 03:09:00,47.3,24.2,29.35,North,0,0.0,0.0,40,0.00,,---,0.00,VWS V14.01,2013-02-11 01:09:00,
2013-02-11 03:10:00,47.3,24.2,29.35,North,0,0.0,0.0,40,0.00,,---,0.00,VWS V14.01,2013-02-11 01:10:00,
2013-02-11 03:11:00,47.3,24.2,29.35,North,0,0.0,0.0,40,0.00,,---,0.00,VWS V14.01,2013-02-11 01:11:00,
2013-02-11 03:12:00,47.3,24.2,29.35,North,0,1.1,1.1,40,0.00,,---,0.00,VWS V14.01,2013-02-11 01:12:00,
2013-02-11 03:13:00,47.3,24.2,29.35,NNE,22,1.1,1.1,40,0.00,,---,0.00,VWS V14.01,2013-02-11 01:13:00,
2013-02-11 03:14:00,47.3,24.8,29.35,NNE,22,1.3,1.3,41,0.00,,---,0.00,VWS V14.01,2013-02-11 01:14:00,
2013-02-11 03:15:00,47.3,24.8,29.35,NNE,22,0.0,1.3,41,0.00,,---,0.00,VWS V14.01,2013-02-11 01:15:00,
2013-02-11 03:16:00,47.3,24.8,29.35,NE,45,2.0,2.0,41,0.00,,---,0.00,VWS V14.01,2013-02-11 01:16:00,
2013-02-11 03:17:00,47.3,24.8,29.35,NE,45,0.0,2.0,41,0.00,,---,0.00,VWS V14.01,2013-02-11 01:17:00,
2013-02-11 03:18:00,47.5,25.0,29.35,ENE,68,0.0,0.0,41,0.00,,---,0.00,VWS V14.01,2013-02-11 01:18:00,
2013-02-11 03:19:00,47.5,25.0,29.35,ENE,68,0.0,0.0,41,0.00,,---,0.00,VWS V14.01,2013-02-11 01:19:00,
2013-02-11 03:20:00,47.5,25.0,29.35,ENE,68,0.9,0.9,41,0.00,,---,0.00,VWS V14.01,2013-02-11 01:20:00,
2013-02-11 03:21:00,47.5,25.0,29.35,ENE,68,1.1,1.1,41,0.00,,---,0.00,VWS V14.01,2013-02-11 01:21:00,
2013-02-11 03:22:00,47.5,25.0,29.35,ENE,68,0.0,1.1,41,0.00,,---,0.00,VWS V14.01,2013-02-11 01:22:00,
2013-02-11 03:23:00,47.5,25.0,29.32,ENE,68,0.0,0.0,41,0.00,,---,0.00,VWS V14.01,2013-02-11 01:23:00,
2013-02-11 03:24:00,47.5,25.0,29.32,East,90,2.5,2.5,41,0.00,,---,0.00,VWS V14.01,2013-02-11 01:24:00,
2013-02-11 03:25:00,47.5,25.5,29.32,East,90,0.0,2.5,42,0.00,,---,0.00,VWS V14.01,2013-02-11 01:25:00,
2013-02-11 03:26:00,47.5,25.5,29.32,East,90,1.3,1.3,42,0.00,,---,0.00,VWS V14.01,2013-02-11 01:26:00,
2013-02-11 03:27:00,47.3,25.4,29.32,East,90,0.0,1.3,42,0.00,,---,0.00,VWS V14.01,2013-02-11 01:27:00,
2013-02-11 03:28:00,47.3,25.4,29.32,ESE,112,0.0,0.0,42,0.00,,---,0.00,VWS V14.01,2013-02-11 01:28:00,
2013-02-11 03:29:00,47.3,25.4,29.32,ESE,112,0.0,0.0,42,0.00,,---,0.00,VWS V14.01,2013-02-11 01:29:00,
2013-02-11 03:32:00,47.5,25.5,29.32,South,180,1.1,1.1,42,0.00,,---,0.00,VWS V14.01,2013-02-11 01:32:00,
2013-02-11 03:33:00,47.5,25.5,29.32,South,180,0.0,1.1,42,0.00,,---,0.00,VWS V14.01,2013-02-11 01:33:00,
2013-02-11 03:34:00,47.5,25.5,29.32,South,180,0.0,0.0,42,0.00,,---,0.00,VWS V14.01,2013-02-11 01:34:00,
2013-02-11 03:35:00,47.5,26.1,29.32,South,180,0.9,0.9,43,0.00,,---,0.00,VWS V14.01,2013-02-11 01:35:00,
2013-02-11 03:36:00,47.5,25.5,29.32,South,180,1.1,1.1,42,0.00,,---,0.00,VWS V14.01,2013-02-11 01:36:00,
2013-02-11 03:38:00,47.5,25.5,29.32,SSE,158,0.0,1.1,42,0.00,,---,0.00,VWS V14.01,2013-02-11 01:38:00,
2013-02-11 03:39:00,47.5,26.1,29.32,SE,135,0.0,0.0,43,0.00,,---,0.00,VWS V14.01,2013-02-11 01:39:00,
2013-02-11 03:40:00,47.5,26.1,29.32,ESE,112,0.0,0.0,43,0.00,,---,0.00,VWS V14.01,2013-02-11 01:40:00,
2013-02-11 03:41:00,47.5,26.1,29.32,ESE,112,0.0,0.0,43,0.00,,---,0.00,VWS V14.01,2013-02-11 01:41:00,
2013-02-11 03:42:00,47.5,26.1,29.32,SE,135,1.6,1.6,43,0.00,,---,0.00,VWS V14.01,2013-02-11 01:42:00,
2013-02-11 03:44:00,47.5,26.1,29.32,SSE,158,1.1,1.6,43,0.00,,---,0.00,VWS V14.01,2013-02-11 01:44:00,
2013-02-11 03:45:00,47.5,26.1,29.32,South,180,2.0,2.0,43,0.00,,---,0.00,VWS V14.01,2013-02-11 01:45:00,
2013-02-11 03:46:00,47.5,26.1,29.32,South,180,1.3,2.0,43,0.00,,---,0.00,VWS V14.01,2013-02-11 01:46:00,
2013-02-11 03:47:00,47.5,26.1,29.32,South,180,0.0,1.3,43,0.00,,---,0.00,VWS V14.01,2013-02-11 01:47:00,
2013-02-11 03:48:00,47.5,26.1,29.32,South,180,0.0,0.0,43,0.00,,---,0.00,VWS V14.01,2013-02-11 01:48:00,
2013-02-11 03:49:00,47.3,26.0,29.32,SSE,158,2.0,2.0,43,0.00,,---,0.00,VWS V14.01,2013-02-11 01:49:00,
2013-02-11 03:50:00,47.5,26.7,29.32,South,180,1.6,2.0,44,0.00,,---,0.00,VWS V14.01,2013-02-11 01:50:00,
2013-02-11 03:51:00,47.5,26.7,29.32,South,180,0.0,1.6,44,0.00,,---,0.00,VWS V14.01,2013-02-11 01:51:00,
2013-02-11 03:52:00,47.3,26.5,29.32,South,180,0.9,0.9,44,0.00,,---,0.00,VWS V14.01,2013-02-11 01:52:00,
2013-02-11 03:53:00,47.3,26.5,29.32,South,180,1.3,1.3,44,0.00,,---,0.00,VWS V14.01,2013-02-11 01:53:00,
2013-02-11 03:54:00,47.3,26.5,29.32,South,180,0.9,1.3,44,0.00,,---,0.00,VWS V14.01,2013-02-11 01:54:00,
2013-02-11 03:55:00,47.3,26.5,29.32,SSE,158,1.6,1.6,44,0.00,,---,0.00,VWS V14.01,2013-02-11 01:55:00,
2013-02-11 03:57:00,47.3,27.0,29.32,SE,135,1.6,1.6,45,0.00,,---,0.00,VWS V14.01,2013-02-11 01:57:00,
2013-02-11 03:58:00,47.5,27.2,29.32,South,180,0.9,1.6,45,0.00,,---,0.00,VWS V14.01,2013-02-11 01:58:00,
2013-02-11 03:59:00,47.5,27.2,29.32,SSW,202,1.1,1.1,45,0.00,,---,0.00,VWS V14.01,2013-02-11 01:59:00,
2013-02-11 04:00:00,47.5,27.2,29.32,SSW,202,0.9,1.1,45,0.00,,---,0.00,VWS V14.01,2013-02-11 02:00:00,
2013-02-11 04:01:00,47.5,27.2,29.32,SSW,202,1.6,1.6,45,0.00,,---,0.00,VWS V14.01,2013-02-11 02:01:00,
2013-02-11 04:02:00,47.5,27.2,29.32,SSW,202,1.3,1.6,45,0.00,,---,0.00,VWS V14.01,2013-02-11 02:02:00,
2013-02-11 04:03:00,47.3,27.0,29.32,SSW,202,1.6,1.6,45,0.00,,---,0.00,VWS V14.01,2013-02-11 02:03:00,
2013-02-11 04:04:00,47.3,27.0,29.32,SSW,202,1.1,1.6,45,0.00,,---,0.00,VWS V14.01,2013-02-11 02:04:00,
2013-02-11 04:05:00,47.3,27.0,29.32,SSW,202,0.0,1.1,45,0.00,,---,0.00,VWS V14.01,2013-02-11 02:05:00,
2013-02-11 04:07:00,47.3,27.0,29.32,SW,225,0.0,0.0,45,0.00,,---,0.00,VWS V14.01,2013-02-11 02:07:00,
2013-02-11 04:08:00,47.3,27.0,29.32,SSW,202,1.3,1.3,45,0.00,,---,0.00,VWS V14.01,2013-02-11 02:08:00,
2013-02-11 04:09:00,47.3,27.6,29.32,SSE,158,1.1,1.3,46,0.00,,---,0.00,VWS V14.01,2013-02-11 02:09:00,
2013-02-11 04:10:00,47.3,27.6,29.32,SE,135,1.3,1.3,46,0.00,,---,0.00,VWS V14.01,2013-02-11 02:10:00,
2013-02-11 04:11:00,47.3,27.6,29.32,SE,135,1.3,1.3,46,0.00,,---,0.00,VWS V14.01,2013-02-11 02:11:00,
2013-02-11 04:12:00,47.3,27.6,29.32,SE,135,0.0,1.3,46,0.00,,---,0.00,VWS V14.01,2013-02-11 02:12:00,
2013-02-11 04:13:00,47.3,27.6,29.32,SE,135,0.9,0.9,46,0.00,,---,0.00,VWS V14.01,2013-02-11 02:13:00,
2013-02-11 04:14:00,47.3,27.6,29.32,SE,135,0.9,0.9,46,0.00,,---,0.00,VWS V14.01,2013-02-11 02:14:00,
2013-02-11 04:15:00,47.3,28.1,29.32,East,90,2.0,2.0,47,0.00,,---,0.00,VWS V14.01,2013-02-11 02:15:00,
2013-02-11 04:16:00,47.3,27.6,29.32,ESE,112,0.9,2.0,46,0.00,,---,0.00,VWS V14.01,2013-02-11 02:16:00,
2013-02-11 04:17:00,47.3,27.6,29.32,ESE,112,0.0,0.9,46,0.00,,---,0.00,VWS V14.01,2013-02-11 02:17:00,
2013-02-11 04:18:00,47.3,27.6,29.32,SSE,158,1.6,1.6,46,0.00,,---,0.00,VWS V14.01,2013-02-11 02:18:00,
2013-02-11 04:19:00,47.3,27.6,29.32,SSE,158,0.9,1.6,46,0.00,,---,0.00,VWS V14.01,2013-02-11 02:19:00,
2013-02-11 04:20:00,47.3,27.6,29.32,SE,135,2.0,2.0,46,0.00,,---,0.00,VWS V14.01,2013-02-11 02:20:00,
2013-02-11 04:21:00,47.3,28.1,29.32,SE,135,0.9,2.0,47,0.00,,---,0.00,VWS V14.01,2013-02-11 02:21:00,
2013-02-11 04:22:00,47.3,28.1,29.32,ESE,112,2.5,2.5,47,0.00,,---,0.00,VWS V14.01,2013-02-11 02:22:00,
2013-02-11 04:23:00,47.3,28.1,29.32,SE,135,0.9,2.5,47,0.00,,---,0.00,VWS V14.01,2013-02-11 02:23:00,
2013-02-11 04:25:00,47.3,28.1,29.32,SE,135,1.6,1.6,47,0.00,,---,0.00,VWS V14.01,2013-02-11 02:25:00,
2013-02-11 04:26:00,47.3,28.1,29.32,ESE,112,2.0,2.0,47,0.00,,---,0.00,VWS V14.01,2013-02-11 02:26:00,
2013-02-11 04:27:00,47.3,28.1,29.32,South,180,2.0,2.0,47,0.00,,---,0.00,VWS V14.01,2013-02-11 02:27:00,
2013-02-11 04:28:00,47.3,28.1,29.32,SSE,158,1.6,2.0,47,0.00,,---,0.00,VWS V14.01,2013-02-11 02:28:00,
2013-02-11 04:29:00,47.3,28.1,29.32,SSE,158,0.0,1.6,47,0.00,,---,0.00,VWS V14.01,2013-02-11 02:29:00,
2013-02-11 04:30:00,47.3,28.1,29.32,SSE,158,2.2,2.2,47,0.00,,---,0.00,VWS V14.01,2013-02-11 02:30:00,
2013-02-11 04:31:00,47.3,28.1,29.32,SSE,158,1.1,2.2,47,0.00,,---,0.00,VWS V14.01,2013-02-11 02:31:00,
2013-02-11 04:32:00,47.3,28.1,29.32,SSE,158,0.9,1.1,47,0.00,,---,0.00,VWS V14.01,2013-02-11 02:32:00,
2013-02-11 04:33:00,47.3,28.1,29.32,SSE,158,2.2,2.2,47,0.00,,---,0.00,VWS V14.01,2013-02-11 02:33:00,
2013-02-11 04:34:00,47.3,28.1,29.32,SSE,158,1.1,2.2,47,0.00,,---,0.00,VWS V14.01,2013-02-11 02:34:00,
2013-02-11 04:35:00,47.3,28.1,29.32,SSE,158,1.1,1.1,47,0.00,,---,0.00,VWS V14.01,2013-02-11 02:35:00,
2013-02-11 04:36:00,47.5,28.3,29.32,SSE,158,0.9,1.1,47,0.00,,---,0.00,VWS V14.01,2013-02-11 02:36:00,
2013-02-11 04:37:00,47.5,28.3,29.32,SE,135,1.6,1.6,47,0.00,,---,0.00,VWS V14.01,2013-02-11 02:37:00,
2013-02-11 04:38:00,47.5,28.3,29.32,SE,135,1.6,1.6,47,0.00,,---,0.00,VWS V14.01,2013-02-11 02:38:00,
2013-02-11 04:40:00,47.5,28.3,29.32,SE,135,1.6,1.6,47,0.00,,---,0.00,VWS V14.01,2013-02-11 02:40:00,
2013-02-11 04:41:00,47.5,28.3,29.32,SE,135,2.0,2.0,47,0.00,,---,0.00,VWS V14.01,2013-02-11 02:41:00,
2013-02-11 04:42:00,47.7,28.4,29.32,ESE,112,1.1,2.0,47,0.00,,---,0.00,VWS V14.01,2013-02-11 02:42:00,
2013-02-11 04:43:00,47.7,28.4,29.32,East,90,2.5,2.5,47,0.00,,---,0.00,VWS V14.01,2013-02-11 02:43:00,
2013-02-11 04:44:00,47.7,28.4,29.32,East,90,0.0,2.5,47,0.00,,---,0.00,VWS V14.01,2013-02-11 02:44:00,
2013-02-11 04:46:00,47.7,28.4,29.32,ENE,68,0.0,0.0,47,0.00,,---,0.00,VWS V14.01,2013-02-11 02:46:00,
2013-02-11 04:47:00,47.7,28.4,29.32,ENE,68,1.3,1.3,47,0.00,,---,0.00,VWS V14.01,2013-02-11 02:47:00,
2013-02-11 04:48:00,47.7,28.4,29.32,NNE,22,1.6,1.6,47,0.00,,---,0.00,VWS V14.01,2013-02-11 02:48:00,
2013-02-11 04:49:00,47.7,28.4,29.32,North,0,1.3,1.6,47,0.00,,---,0.00,VWS V14.01,2013-02-11 02:49:00,
2013-02-11 04:50:00,47.7,28.4,29.32,North,0,2.5,2.5,47,0.00,,---,0.00,VWS V14.01,2013-02-11 02:50:00,
2013-02-11 04:51:00,47.7,28.4,29.32,NNW,338,1.3,2.5,47,0.00,,---,0.00,VWS V14.01,2013-02-11 02:51:00,
2013-02-11 04:52:00,47.7,28.4,29.32,WNW,292,1.3,1.3,47,0.00,,---,0.00,VWS V14.01,2013-02-11 02:52:00,
2013-02-11 04:53:00,47.7,28.4,29.35,NNW,338,2.0,2.0,47,0.00,,---,0.00,VWS V14.01,2013-02-11 02:53:00,
2013-02-11 04:54:00,47.7,28.4,29.35,NNW,338,0.0,2.0,47,0.00,,---,0.00,VWS V14.01,2013-02-11 02:54:00,
2013-02-11 04:55:00,47.7,28.4,29.35,NNW,338,1.3,1.3,47,0.00,,---,0.00,VWS V14.01,2013-02-11 02:55:00,
2013-02-11 04:56:00,47.7,28.4,29.35,NNE,22,0.0,1.3,47,0.00,,---,0.00,VWS V14.01,2013-02-11 02:56:00,
2013-02-11 04:57:00,47.7,28.4,29.35,NNW,338,3.6,3.6,47,0.00,,---,0.00,VWS V14.01,2013-02-11 02:57:00,
2013-02-11 04:58:00,47.7,28.4,29.35,NW,315,1.6,3.6,47,0.00,,---,0.00,VWS V14.01,2013-02-11 02:58:00,
2013-02-11 04:59:00,47.7,28.4,29.35,NNW,338,1.1,1.6,47,0.00,,---,0.00,VWS V14.01,2013-02-11 02:59:00,
2013-02-11 05:00:00,47.7,28.4,29.35,SW,225,2.5,2.5,47,0.00,,---,0.00,VWS V14.01,2013-02-11 03:00:00,
2013-02-11 05:01:00,47.7,28.4,29.35,SW,225,0.9,2.5,47,0.00,,---,0.00,VWS V14.01,2013-02-11 03:01:00,
2013-02-11 05:02:00,47.7,28.4,29.35,South,180,2.0,2.0,47,0.00,,---,0.00,VWS V14.01,2013-02-11 03:02:00,
2013-02-11 05:04:00,47.5,28.3,29.35,East,90,1.6,2.0,47,0.00,,---,0.00,VWS V14.01,2013-02-11 03:04:00,
2013-02-11 05:05:00,47.5,28.3,29.35,East,90,0.9,1.6,47,0.00,,---,0.00,VWS V14.01,2013-02-11 03:05:00,
2013-02-11 05:06:00,47.5,28.3,29.35,ENE,68,1.3,1.3,47,0.00,,---,0.00,VWS V14.01,2013-02-11 03:06:00,
2013-02-11 05:07:00,47.5,28.3,29.35,ENE,68,0.9,1.3,47,0.00,,---,0.00,VWS V14.01,2013-02-11 03:07:00,
2013-02-11 05:08:00,47.7,28.4,29.32,ENE,68,0.0,0.9,47,0.00,,---,0.00,VWS V14.01,2013-02-11 03:08:00,
2013-02-11 05:09:00,47.7,28.4,29.32,ENE,68,1.1,1.1,47,0.00,,---,0.00,VWS V14.01,2013-02-11 03:09:00,
2013-02-11 05:11:00,47.7,28.4,29.32,West,270,2.0,2.0,47,0.00,,---,0.00,VWS V14.01,2013-02-11 03:11:00,
2013-02-11 05:12:00,47.7,28.4,29.32,South,180,2.5,2.5,47,0.00,,---,0.00,VWS V14.01,2013-02-11 03:12:00,
2013-02-11 05:13:00,47.5,28.3,29.32,SW,225,1.6,2.5,47,0.00,,---,0.00,VWS V14.01,2013-02-11 03:13:00,
2013-02-11 05:14:00,47.5,28.3,29.32,WSW,248,2.5,2.5,47,0.00,,---,0.00,VWS V14.01,2013-02-11 03:14:00,
2013-02-11 05:15:00,47.5,28.3,29.32,NW,315,1.3,2.5,47,0.00,,---,0.00,VWS V14.01,2013-02-11 03:15:00,
2013-02-11 05:16:00,47.5,28.3,29.32,West,270,0.9,1.3,47,0.00,,---,0.00,VWS V14.01,2013-02-11 03:16:00,
2013-02-11 05:17:00,47.5,28.3,29.32,West,270,1.6,1.6,47,0.00,,---,0.00,VWS V14.01,2013-02-11 03:17:00,
2013-02-11 05:18:00,47.5,28.3,29.32,South,180,2.0,2.0,47,0.00,,---,0.00,VWS V14.01,2013-02-11 03:18:00,
2013-02-11 05:19:00,47.3,28.1,29.32,SW,225,1.6,2.0,47,0.00,,---,0.00,VWS V14.01,2013-02-11 03:19:00,
2013-02-11 05:20:00,47.3,28.1,29.32,South,180,1.6,1.6,47,0.00,,---,0.00,VWS V14.01,2013-02-11 03:20:00,
2013-02-11 05:21:00,47.3,28.1,29.32,SSW,202,1.6,1.6,47,0.00,,---,0.00,VWS V14.01,2013-02-11 03:21:00,
2013-02-11 05:22:00,47.3,28.1,29.32,SSW,202,1.1,1.6,47,0.00,,---,0.00,VWS V14.01,2013-02-11 03:22:00,
2013-02-11 05:23:00,47.3,28.1,29.35,South,180,1.6,1.6,47,0.00,,---,0.00,VWS V14.01,2013-02-11 03:23:00,
2013-02-11 05:24:00,47.3,28.1,29.35,SSE,158,1.1,1.6,47,0.00,,---,0.00,VWS V14.01,2013-02-11 03:24:00,
2013-02-11 05:25:00,47.3,28.1,29.35,SSE,158,1.1,1.1,47,0.00,,---,0.00,VWS V14.01,2013-02-11 03:25:00,
2013-02-11 05:26:00,47.3,28.1,29.35,SE,135,1.1,1.1,47,0.00,,---,0.00,VWS V14.01,2013-02-11 03:26:00,
2013-02-11 05:27:00,47.1,27.9,29.35,SE,135,0.0,1.1,47,0.00,,---,0.00,VWS V14.01,2013-02-11 03:27:00,
2013-02-11 05:28:00,47.1,27.9,29.35,SE,135,1.6,1.6,47,0.00,,---,0.00,VWS V14.01,2013-02-11 03:28:00,
2013-02-11 05:29:00,47.1,27.9,29.35,SSE,158,2.5,2.5,47,0.00,,---,0.00,VWS V14.01,2013-02-11 03:29:00,
2013-02-11 05:30:00,47.1,28.5,29.35,South,180,0.9,2.5,48,0.00,,---,0.00,VWS V14.01,2013-02-11 03:30:00,
2013-02-11 05:31:00,46.9,28.3,29.35,SSE,158,0.9,0.9,48,0.00,,---,0.00,VWS V14.01,2013-02-11 03:31:00,
2013-02-11 05:32:00,46.9,28.3,29.35,SE,135,2.5,2.5,48,0.00,,---,0.00,VWS V14.01,2013-02-11 03:32:00,
2013-02-11 05:33:00,46.9,28.3,29.35,SSE,158,2.2,2.5,48,0.00,,---,0.00,VWS V14.01,2013-02-11 03:33:00,
2013-02-11 05:34:00,46.9,28.3,29.35,SSE,158,0.9,2.2,48,0.00,,---,0.00,VWS V14.01,2013-02-11 03:34:00,
2013-02-11 05:35:00,46.9,28.3,29.35,South,180,1.6,1.6,48,0.00,,---,0.00,VWS V14.01,2013-02-11 03:35:00,
2013-02-11 05:36:00,46.9,28.3,29.35,South,180,1.3,1.6,48,0.00,,---,0.00,VWS V14.01,2013-02-11 03:36:00,
2013-02-11 05:37:00,46.8,28.1,29.35,SSE,158,2.5,2.5,48,0.00,,---,0.00,VWS V14.01,2013-02-11 03:37:00,
2013-02-11 05:38:00,46.8,28.1,29.32,SSE,158,0.0,2.5,48,0.00,,---,0.00,VWS V14.01,2013-02-11 03:38:00,
2013-02-11 05:39:00,46.8,28.1,29.32,SSE,158,0.9,0.9,48,0.00,,---,0.00,VWS V14.01,2013-02-11 03:39:00,
2013-02-11 05:41:00,46.8,28.1,29.32,SSE,158,0.9,0.9,48,0.00,,---,0.00,VWS V14.01,2013-02-11 03:41:00,
2013-02-11 05:42:00,46.6,28.0,29.32,SSW,202,1.1,1.1,48,0.00,,---,0.00,VWS V14.01,2013-02-11 03:42:00,
2013-02-11 05:43:00,46.6,28.0,29.32,SSW,202,0.0,1.1,48,0.00,,---,0.00,VWS V14.01,2013-02-11 03:43:00,
2013-02-11 05:44:00,46.6,28.0,29.32,SSW,202,0.0,0.0,48,0.00,,---,0.00,VWS V14.01,2013-02-11 03:44:00,
2013-02-11 05:45:00,46.4,27.8,29.32,South,180,1.3,1.3,48,0.00,,---,0.00,VWS V14.01,2013-02-11 03:45:00,
2013-02-11 05:46:00,46.6,28.0,29.32,SSW,202,1.1,1.3,48,0.00,,---,0.00,VWS V14.01,2013-02-11 03:46:00,
2013-02-11 05:47:00,46.4,27.8,29.32,SSW,202,1.1,1.1,48,0.00,,---,0.00,VWS V14.01,2013-02-11 03:47:00,
2013-02-11 05:48:00,46.4,27.8,29.32,SE,135,2.0,2.0,48,0.00,,---,0.00,VWS V14.01,2013-02-11 03:48:00,
2013-02-11 05:49:00,46.4,27.8,29.32,ESE,112,1.1,2.0,48,0.00,,---,0.00,VWS V14.01,2013-02-11 03:49:00,
2013-02-11 05:50:00,46.4,28.8,29.32,SE,135,1.3,1.3,50,0.00,,---,0.00,VWS V14.01,2013-02-11 03:50:00,
2013-02-11 05:51:00,46.4,28.8,29.32,SE,135,2.5,2.5,50,0.00,,---,0.00,VWS V14.01,2013-02-11 03:51:00,
2013-02-11 05:52:00,46.4,28.8,29.32,SSE,158,2.5,2.5,50,0.00,,---,0.00,VWS V14.01,2013-02-11 03:52:00,
2013-02-11 05:53:00,46.4,28.8,29.35,SSE,158,1.6,2.5,50,0.00,,---,0.00,VWS V14.01,2013-02-11 03:53:00,
2013-02-11 05:56:00,46.2,28.6,29.35,SSE,158,1.1,1.6,50,0.00,,---,0.00,VWS V14.01,2013-02-11 03:56:00,
2013-02-11 05:57:00,46.2,28.6,29.35,SSE,158,1.6,1.6,50,0.00,,---,0.00,VWS V14.01,2013-02-11 03:57:00,
2013-02-11 05:58:00,46.2,28.6,29.35,SE,135,1.3,1.6,50,0.00,,---,0.00,VWS V14.01,2013-02-11 03:58:00,
2013-02-11 05:59:00,46.2,28.6,29.35,SE,135,0.9,1.3,50,0.00,,---,0.00,VWS V14.01,2013-02-11 03:59:00,
2013-02-11 06:00:00,46.2,28.6,29.35,SE,135,0.0,0.9,50,0.00,,---,0.00,VWS V14.01,2013-02-11 04:00:00,
2013-02-11 06:02:00,46.2,28.6,29.35,SE,135,1.3,1.3,50,0.00,,---,0.00,VWS V14.01,2013-02-11 04:02:00,
2013-02-11 06:03:00,46.2,28.6,29.35,East,90,1.6,1.6,50,0.00,,---,0.00,VWS V14.01,2013-02-11 04:03:00,
2013-02-11 06:04:00,46.2,28.6,29.35,ESE,112,0.9,1.6,50,0.00,,---,0.00,VWS V14.01,2013-02-11 04:04:00,
2013-02-11 06:05:00,46.2,28.6,29.35,ESE,112,0.9,0.9,50,0.00,,---,0.00,VWS V14.01,2013-02-11 04:05:00,
2013-02-11 06:07:00,46.2,29.1,29.35,ESE,112,0.0,0.9,51,0.00,,---,0.00,VWS V14.01,2013-02-11 04:07:00,
2013-02-11 06:08:00,46.2,29.1,29.35,ESE,112,0.0,0.0,51,0.00,,---,0.00,VWS V14.01,2013-02-11 04:08:00,
2013-02-11 06:09:00,46.0,28.9,29.35,ESE,112,1.3,1.3,51,0.00,,---,0.00,VWS V14.01,2013-02-11 04:09:00,
2013-02-11 06:10:00,46.0,28.9,29.35,NW,315,2.7,2.7,51,0.00,,---,0.00,VWS V14.01,2013-02-11 04:10:00,
2013-02-11 06:11:00,46.2,29.1,29.35,West,270,2.2,2.7,51,0.00,,---,0.00,VWS V14.01,2013-02-11 04:11:00,
2013-02-11 06:13:00,46.2,29.6,29.35,NNW,338,1.3,2.2,52,0.00,,---,0.00,VWS V14.01,2013-02-11 04:13:00,
2013-02-11 06:14:00,46.2,29.1,29.35,NNW,338,1.1,1.3,51,0.00,,---,0.00,VWS V14.01,2013-02-11 04:14:00,
2013-02-11 06:15:00,46.2,29.1,29.35,North,0,1.1,1.1,51,0.00,,---,0.00,VWS V14.01,2013-02-11 04:15:00,
2013-02-11 06:16:00,46.2,29.1,29.35,North,0,0.9,1.1,51,0.00,,---,0.00,VWS V14.01,2013-02-11 04:16:00,
2013-02-11 06:17:00,46.2,29.1,29.35,North,0,1.6,1.6,51,0.00,,---,0.00,VWS V14.01,2013-02-11 04:17:00,
2013-02-11 06:18:00,46.2,29.1,29.35,North,0,0.0,1.6,51,0.00,,---,0.00,VWS V14.01,2013-02-11 04:18:00,
2013-02-11 06:20:00,46.2,29.1,29.35,North,0,1.1,1.1,51,0.00,,---,0.00,VWS V14.01,2013-02-11 04:20:00,
2013-02-11 06:21:00,46.0,28.9,29.35,East,90,3.6,3.6,51,0.00,,---,0.00,VWS V14.01,2013-02-11 04:21:00,
2013-02-11 06:22:00,46.0,28.9,29.35,East,90,2.0,3.6,51,0.00,,---,0.00,VWS V14.01,2013-02-11 04:22:00,
2013-02-11 06:23:00,46.0,28.9,29.35,East,90,2.0,2.0,51,0.00,,---,0.00,VWS V14.01,2013-02-11 04:23:00,
2013-02-11 06:24:00,46.0,28.9,29.35,ENE,68,1.3,2.0,51,0.00,,---,0.00,VWS V14.01,2013-02-11 04:24:00,
2013-02-11 06:25:00,46.0,28.9,29.35,East,90,2.5,2.5,51,0.00,,---,0.00,VWS V14.01,2013-02-11 04:25:00,
2013-02-11 06:26:00,46.0,28.9,29.35,East,90,4.0,4.0,51,0.00,,---,0.00,VWS V14.01,2013-02-11 04:26:00,
2013-02-11 06:27:00,46.0,28.5,29.35,NNE,22,2.5,4.0,50,0.00,,---,0.00,VWS V14.01,2013-02-11 04:27:00,
2013-02-11 06:28:00,46.0,28.5,29.35,NNE,22,2.5,2.5,50,0.00,,---,0.00,VWS V14.01,2013-02-11 04:28:00,
2013-02-11 06:30:00,46.2,28.6,29.35,NNW,338,1.6,2.5,50,0.00,,---,0.00,VWS V14.01,2013-02-11 04:30:00,
2013-02-11 06:31:00,46.2,28.1,29.35,North,0,3.6,3.6,49,0.00,,---,0.00,VWS V14.01,2013-02-11 04:31:00,
2013-02-11 06:32:00,46.2,28.1,29.35,NNW,338,2.0,3.6,49,0.00,,---,0.00,VWS V14.01,2013-02-11 04:32:00,
2013-02-11 06:33:00,46.2,28.1,29.35,NNW,338,1.3,2.0,49,0.00,,---,0.00,VWS V14.01,2013-02-11 04:33:00,
2013-02-11 06:34:00,46.2,28.1,29.35,SW,225,3.4,3.4,49,0.00,,---,0.00,VWS V14.01,2013-02-11 04:34:00,
2013-02-11 06:35:00,46.2,27.6,29.35,NW,315,3.6,3.6,48,0.00,,---,0.00,VWS V14.01,2013-02-11 04:35:00,
2013-02-11 06:36:00,46.4,27.3,29.35,North,0,2.5,3.6,47,0.00,,---,0.00,VWS V14.01,2013-02-11 04:36:00,
2013-02-11 06:37:00,46.2,27.1,29.35,NNE,22,2.0,2.5,47,0.00,,---,0.00,VWS V14.01,2013-02-11 04:37:00,
2013-02-11 06:39:00,46.4,26.8,29.35,NNE,22,2.9,2.9,46,0.00,,---,0.00,VWS V14.01,2013-02-11 04:39:00,
2013-02-11 06:40:00,46.4,26.8,29.35,NNE,22,3.1,3.1,46,0.00,,---,0.00,VWS V14.01,2013-02-11 04:40:00,
2013-02-11 06:41:00,46.4,26.8,29.35,NNE,22,3.1,3.1,46,0.00,,---,0.00,VWS V14.01,2013-02-11 04:41:00,
2013-02-11 06:42:00,46.4,25.7,29.35,North,0,4.0,4.0,44,0.00,,---,0.00,VWS V14.01,2013-02-11 04:42:00,
2013-02-11 06:43:00,46.4,25.7,29.35,ENE,68,2.5,4.0,44,0.00,,---,0.00,VWS V14.01,2013-02-11 04:43:00,
2013-02-11 06:44:00,46.6,25.9,29.35,NNW,338,3.1,3.1,44,0.00,,---,0.00,VWS V14.01,2013-02-11 04:44:00,
2013-02-11 06:45:00,46.6,25.3,29.35,North,0,2.7,3.1,43,0.00,,---,0.00,VWS V14.01,2013-02-11 04:45:00,
2013-02-11 06:46:00,46.6,25.3,29.35,North,0,1.6,2.7,43,0.00,,---,0.00,VWS V14.01,2013-02-11 04:46:00,
2013-02-11 06:47:00,46.6,25.3,29.35,North,0,1.6,1.6,43,0.00,,---,0.00,VWS V14.01,2013-02-11 04:47:00,
2013-02-11 06:48:00,46.6,25.3,29.35,SE,135,2.0,2.0,43,0.00,,---,0.00,VWS V14.01,2013-02-11 04:48:00,
2013-02-11 06:49:00,46.6,25.3,29.35,WSW,248,4.0,4.0,43,0.00,,---,0.00,VWS V14.01,2013-02-11 04:49:00,
2013-02-11 06:50:00,46.6,25.3,29.35,West,270,3.6,4.0,43,0.00,,---,0.00,VWS V14.01,2013-02-11 04:50:00,
2013-02-11 06:51:00,46.6,25.3,29.35,WNW,292,1.3,3.6,43,0.00,,---,0.00,VWS V14.01,2013-02-11 04:51:00,
2013-02-11 06:52:00,46.6,25.3,29.35,NNE,22,2.0,2.0,43,0.00,,---,0.00,VWS V14.01,2013-02-11 04:52:00,
2013-02-11 06:53:00,46.6,25.3,29.35,North,0,1.3,2.0,43,0.00,,---,0.00,VWS V14.01,2013-02-11 04:53:00,
2013-02-11 06:54:00,46.6,25.3,29.35,North,0,1.6,1.6,43,0.00,,---,0.00,VWS V14.01,2013-02-11 04:54:00,
2013-02-11 06:55:00,46.6,25.3,29.35,ESE,112,2.9,2.9,43,0.00,,---,0.00,VWS V14.01,2013-02-11 04:55:00,
2013-02-11 06:56:00,46.6,25.3,29.35,ESE,112,1.6,2.9,43,0.00,,---,0.00,VWS V14.01,2013-02-11 04:56:00,
2013-02-11 06:57:00,46.6,25.3,29.35,ENE,68,1.1,1.6,43,0.00,,---,0.00,VWS V14.01,2013-02-11 04:57:00,
2013-02-11 06:58:00,46.6,25.3,29.35,ENE,68,0.9,1.1,43,0.00,,---,0.00,VWS V14.01,2013-02-11 04:58:00,
2013-02-11 06:59:00,46.4,25.1,29.35,ENE,68,2.7,2.7,43,0.00,,---,0.00,VWS V14.01,2013-02-11 04:59:00,
2013-02-11 07:02:00,46.4,25.1,29.35,NNE,22,1.3,2.7,43,0.00,,---,0.00,VWS V14.01,2013-02-11 05:02:00,
2013-02-11 07:03:00,46.4,25.1,29.35,NNE,22,0.0,1.3,43,0.00,,---,0.00,VWS V14.01,2013-02-11 05:03:00,
2013-02-11 07:04:00,46.4,25.1,29.35,NNE,22,1.3,1.3,43,0.00,,---,0.00,VWS V14.01,2013-02-11 05:04:00,
2013-02-11 07:05:00,46.4,25.1,29.35,NNE,22,1.3,1.3,43,0.00,,---,0.00,VWS V14.01,2013-02-11 05:05:00,
2013-02-11 07:06:00,46.4,25.1,29.35,NNW,338,0.0,1.3,43,0.00,,---,0.00,VWS V14.01,2013-02-11 05:06:00,
2013-02-11 07:07:00,46.4,25.1,29.35,North,0,1.6,1.6,43,0.00,,---,0.00,VWS V14.01,2013-02-11 05:07:00,
2013-02-11 07:08:00,46.4,25.1,29.38,North,0,1.1,1.6,43,0.00,,---,0.00,VWS V14.01,2013-02-11 05:08:00,
2013-02-11 07:09:00,46.4,25.1,29.38,West,270,1.3,1.3,43,0.00,,---,0.00,VWS V14.01,2013-02-11 05:09:00,
2013-02-11 07:10:00,46.4,25.1,29.38,SW,225,2.0,2.0,43,0.00,,---,0.00,VWS V14.01,2013-02-11 05:10:00,
2013-02-11 07:11:00,46.4,25.1,29.38,SW,225,0.0,2.0,43,0.00,,---,0.00,VWS V14.01,2013-02-11 05:11:00,
2013-02-11 07:12:00,46.2,25.0,29.38,South,180,2.7,2.7,43,0.00,,---,0.00,VWS V14.01,2013-02-11 05:12:00,
2013-02-11 07:13:00,46.2,25.5,29.38,South,180,1.1,2.7,44,0.00,,---,0.00,VWS V14.01,2013-02-11 05:13:00,
2013-02-11 07:14:00,46.2,25.5,29.38,South,180,1.1,1.1,44,0.00,,---,0.00,VWS V14.01,2013-02-11 05:14:00,
2013-02-11 07:15:00,46.2,25.5,29.38,SSE,158,2.5,2.5,44,0.00,,---,0.00,VWS V14.01,2013-02-11 05:15:00,
2013-02-11 07:16:00,46.2,25.5,29.38,SSE,158,2.0,2.5,44,0.00,,---,0.00,VWS V14.01,2013-02-11 05:16:00,
2013-02-11 07:17:00,46.2,25.5,29.38,SE,135,2.5,2.5,44,0.00,,---,0.00,VWS V14.01,2013-02-11 05:17:00,
2013-02-11 07:18:00,46.2,25.5,29.38,NW,315,4.0,4.0,44,0.00,,---,0.00,VWS V14.01,2013-02-11 05:18:00,
2013-02-11 07:19:00,46.4,25.7,29.38,WNW,292,2.5,4.0,44,0.00,,---,0.00,VWS V14.01,2013-02-11 05:19:00,
2013-02-11 07:20:00,46.4,25.7,29.38,SSW,202,2.5,2.5,44,0.00,,---,0.00,VWS V14.01,2013-02-11 05:20:00,
2013-02-11 07:21:00,46.4,25.7,29.38,East,90,3.1,3.1,44,0.00,,---,0.00,VWS V14.01,2013-02-11 05:21:00,
2013-02-11 07:22:00,46.4,26.2,29.38,NNW,338,2.0,3.1,45,0.00,,---,0.00,VWS V14.01,2013-02-11 05:22:00,
2013-02-11 07:23:00,46.4,26.2,29.38,NNW,338,3.1,3.1,45,0.00,,---,0.00,VWS V14.01,2013-02-11 05:23:00,
2013-02-11 07:24:00,46.4,26.2,29.38,North,0,1.6,3.1,45,0.00,,---,0.00,VWS V14.01,2013-02-11 05:24:00,
2013-02-11 07:25:00,46.4,26.2,29.38,WSW,248,4.0,4.0,45,0.00,,---,0.00,VWS V14.01,2013-02-11 05:25:00,
2013-02-11 07:26:00,46.4,26.2,29.38,WSW,248,1.6,4.0,45,0.00,,---,0.00,VWS V14.01,2013-02-11 05:26:00,
2013-02-11 07:27:00,46.6,26.4,29.38,West,270,1.3,1.6,45,0.00,,---,0.00,VWS V14.01,2013-02-11 05:27:00,
2013-02-11 07:28:00,46.4,26.2,29.38,South,180,1.3,1.3,45,0.00,,---,0.00,VWS V14.01,2013-02-11 05:28:00,
2013-02-11 07:29:00,46.4,26.2,29.38,ESE,112,1.6,1.6,45,0.00,,---,0.00,VWS V14.01,2013-02-11 05:29:00,
2013-02-11 07:30:00,46.4,26.2,29.38,ENE,68,1.3,1.6,45,0.00,,---,0.00,VWS V14.01,2013-02-11 05:30:00,
2013-02-11 07:31:00,46.4,26.2,29.38,North,0,1.3,1.3,45,0.00,,---,0.00,VWS V14.01,2013-02-11 05:31:00,
2013-02-11 07:32:00,46.4,25.7,29.38,NNW,338,1.6,1.6,44,0.00,,---,0.00,VWS V14.01,2013-02-11 05:32:00,
2013-02-11 07:33:00,46.4,25.7,29.38,NNE,22,1.3,1.6,44,0.00,,---,0.00,VWS V14.01,2013-02-11 05:33:00,
2013-02-11 07:34:00,46.4,25.7,29.38,North,0,2.0,2.0,44,0.00,,---,0.00,VWS V14.01,2013-02-11 05:34:00,
2013-02-11 07:35:00,46.4,25.7,29.38,North,0,2.0,2.0,44,0.00,,---,0.00,VWS V14.01,2013-02-11 05:35:00,
2013-02-11 07:36:00,46.6,25.9,29.38,NW,315,2.5,2.5,44,0.00,,---,0.00,VWS V14.01,2013-02-11 05:36:00,
2013-02-11 07:37:00,46.4,25.7,29.38,NNW,338,0.9,2.5,44,0.00,,---,0.00,VWS V14.01,2013-02-11 05:37:00,
2013-02-11 07:38:00,46.4,25.7,29.38,WNW,292,2.0,2.0,44,0.00,,---,0.00,VWS V14.01,2013-02-11 05:38:00,
2013-02-11 07:39:00,46.4,25.7,29.38,SSE,158,2.0,2.0,44,0.00,,---,0.00,VWS V14.01,2013-02-11 05:39:00,
2013-02-11 07:40:00,46.6,25.9,29.38,North,0,2.0,2.0,44,0.00,,---,0.00,VWS V14.01,2013-02-11 05:40:00,
2013-02-11 07:41:00,46.4,25.7,29.38,NW,315,2.5,2.5,44,0.00,,---,0.00,VWS V14.01,2013-02-11 05:41:00,
2013-02-11 07:42:00,46.6,26.4,29.38,NNE,22,2.0,2.5,45,0.00,,---,0.00,VWS V14.01,2013-02-11 05:42:00,
2013-02-11 07:43:00,46.6,25.9,29.38,NNE,22,2.0,2.0,44,0.00,,---,0.00,VWS V14.01,2013-02-11 05:43:00,
2013-02-11 07:44:00,46.6,25.9,29.38,NE,45,1.1,2.0,44,0.00,,---,0.00,VWS V14.01,2013-02-11 05:44:00,
2013-02-11 07:45:00,46.6,25.9,29.38,ENE,68,1.1,1.1,44,0.00,,---,0.00,VWS V14.01,2013-02-11 05:45:00,
2013-02-11 07:46:00,46.6,25.9,29.38,ENE,68,0.9,1.1,44,0.00,,---,0.00,VWS V14.01,2013-02-11 05:46:00,
2013-02-11 07:48:00,46.6,25.9,29.38,NE,45,1.1,1.1,44,0.00,,---,0.00,VWS V14.01,2013-02-11 05:48:00,
2013-02-11 07:49:00,46.6,25.9,29.38,ENE,68,2.7,2.7,44,0.00,,---,0.00,VWS V14.01,2013-02-11 05:49:00,
2013-02-11 07:50:00,46.6,25.9,29.38,NNE,22,1.6,2.7,44,0.00,,---,0.00,VWS V14.01,2013-02-11 05:50:00,
2013-02-11 07:51:00,46.6,25.9,29.38,North,0,2.0,2.0,44,0.00,,---,0.00,VWS V14.01,2013-02-11 05:51:00,
2013-02-11 07:52:00,46.6,25.9,29.38,NNW,338,2.2,2.2,44,0.00,,---,0.00,VWS V14.01,2013-02-11 05:52:00,
2013-02-11 07:53:00,46.6,25.9,29.38,NNW,338,1.6,2.2,44,0.00,,---,0.00,VWS V14.01,2013-02-11 05:53:00,
2013-02-11 07:54:00,46.6,25.9,29.38,North,0,2.2,2.2,44,0.00,,---,0.00,VWS V14.01,2013-02-11 05:54:00,
2013-02-11 07:55:00,46.6,26.4,29.38,NNE,22,2.9,2.9,45,0.00,,---,0.00,VWS V14.01,2013-02-11 05:55:00,
2013-02-11 07:56:00,46.6,26.4,29.38,WSW,248,1.3,2.9,45,0.00,,---,0.00,VWS V14.01,2013-02-11 05:56:00,
2013-02-11 07:57:00,46.8,26.0,29.38,WNW,292,2.9,2.9,44,0.00,,---,0.00,VWS V14.01,2013-02-11 05:57:00,
2013-02-11 07:58:00,46.8,26.0,29.38,ENE,68,2.5,2.9,44,0.00,,---,0.00,VWS V14.01,2013-02-11 05:58:00,
2013-02-11 07:59:00,46.8,26.0,29.38,WNW,292,2.5,2.5,44,0.00,,---,0.00,VWS V14.01,2013-02-11 05:59:00,
2013-02-11 08:00:00,46.8,26.0,29.38,NNW,338,3.6,3.6,44,0.00,,---,0.00,VWS V14.01,2013-02-11 06:00:00,
2013-02-11 08:01:00,46.9,26.2,29.38,North,0,1.3,3.6,44,0.00,,---,0.00,VWS V14.01,2013-02-11 06:01:00,
2013-02-11 08:02:00,46.9,26.2,29.38,North,0,1.3,1.3,44,0.00,,---,0.00,VWS V14.01,2013-02-11 06:02:00,
2013-02-11 08:03:00,46.9,26.2,29.38,NNE,22,1.6,1.6,44,0.00,,---,0.00,VWS V14.01,2013-02-11 06:03:00,
2013-02-11 08:04:00,46.9,26.2,29.38,ENE,68,2.2,2.2,44,0.00,,---,0.00,VWS V14.01,2013-02-11 06:04:00,
2013-02-11 08:05:00,46.9,26.2,29.38,NNE,22,2.2,2.2,44,0.00,,---,0.00,VWS V14.01,2013-02-11 06:05:00,
2013-02-11 08:06:00,46.9,26.2,29.38,NNE,22,2.9,2.9,44,0.00,,---,0.00,VWS V14.01,2013-02-11 06:06:00,
2013-02-11 08:07:00,46.9,25.6,29.38,NNE,22,0.0,2.9,43,0.00,,---,0.00,VWS V14.01,2013-02-11 06:07:00,
2013-02-11 08:08:00,46.9,25.6,29.35,NNE,22,1.6,1.6,43,0.00,,---,0.00,VWS V14.01,2013-02-11 06:08:00,
2013-02-11 08:09:00,46.9,25.6,29.35,NNW,338,1.1,1.6,43,0.00,,---,0.00,VWS V14.01,2013-02-11 06:09:00,
2013-02-11 08:10:00,46.9,25.6,29.35,North,0,1.1,1.1,43,0.00,,---,0.00,VWS V14.01,2013-02-11 06:10:00,
2013-02-11 08:11:00,46.9,25.6,29.35,NNE,22,1.6,1.6,43,0.00,,---,0.00,VWS V14.01,2013-02-11 06:11:00,
2013-02-11 08:12:00,46.9,25.6,29.35,NNE,22,2.0,2.0,43,0.00,,---,0.00,VWS V14.01,2013-02-11 06:12:00,
2013-02-11 08:14:00,46.9,25.6,29.35,NNE,22,0.0,2.0,43,0.00,,---,0.00,VWS V14.01,2013-02-11 06:14:00,
2013-02-11 08:15:00,46.9,25.6,29.35,NNE,22,1.1,1.1,43,0.00,,---,0.00,VWS V14.01,2013-02-11 06:15:00,
2013-02-11 08:16:00,46.9,25.6,29.35,NNE,22,0.9,1.1,43,0.00,,---,0.00,VWS V14.01,2013-02-11 06:16:00,
2013-02-11 08:17:00,46.9,25.6,29.35,NNE,22,1.1,1.1,43,0.00,,---,0.00,VWS V14.01,2013-02-11 06:17:00,
2013-02-11 08:18:00,46.9,25.6,29.35,NNE,22,1.6,1.6,43,0.00,,---,0.00,VWS V14.01,2013-02-11 06:18:00,
2013-02-11 08:19:00,46.9,25.6,29.35,NNE,22,1.1,1.6,43,0.00,,---,0.00,VWS V14.01,2013-02-11 06:19:00,
2013-02-11 08:20:00,46.9,25.6,29.35,NNE,22,0.0,1.1,43,0.00,,---,0.00,VWS V14.01,2013-02-11 06:20:00,
2013-02-11 08:21:00,46.9,25.6,29.35,NNE,22,0.0,0.0,43,0.00,,---,0.00,VWS V14.01,2013-02-11 06:21:00,
2013-02-11 08:23:00,46.9,25.6,29.38,NNE,22,0.0,0.0,43,0.00,,---,0.00,VWS V14.01,2013-02-11 06:23:00,
2013-02-11 08:24:00,46.9,25.6,29.38,NNE,22,1.3,1.3,43,0.00,,---,0.00,VWS V14.01,2013-02-11 06:24:00,
2013-02-11 08:25:00,46.9,25.6,29.38,NNE,22,0.9,1.3,43,0.00,,---,0.00,VWS V14.01,2013-02-11 06:25:00,
2013-02-11 08:26:00,46.9,25.6,29.38,NNE,22,0.0,0.9,43,0.00,,---,0.00,VWS V14.01,2013-02-11 06:26:00,
2013-02-11 08:27:00,46.9,25.6,29.38,NNE,22,1.1,1.1,43,0.00,,---,0.00,VWS V14.01,2013-02-11 06:27:00,
2013-02-11 08:28:00,46.9,25.6,29.38,NNE,22,1.1,1.1,43,0.00,,---,0.00,VWS V14.01,2013-02-11 06:28:00,
2013-02-11 08:29:00,46.9,25.6,29.38,NNE,22,1.3,1.3,43,0.00,,---,0.00,VWS V14.01,2013-02-11 06:29:00,
2013-02-11 08:30:00,47.1,25.8,29.38,NNE,22,0.0,1.3,43,0.00,,---,0.00,VWS V14.01,2013-02-11 06:30:00,
2013-02-11 08:31:00,47.1,25.8,29.38,NNE,22,1.3,1.3,43,0.00,,---,0.00,VWS V14.01,2013-02-11 06:31:00,
2013-02-11 08:32:00,47.1,25.8,29.38,NNW,338,2.9,2.9,43,0.00,,---,0.00,VWS V14.01,2013-02-11 06:32:00,
2013-02-11 08:33:00,47.3,26.5,29.38,NNW,338,1.3,2.9,44,0.00,,---,0.00,VWS V14.01,2013-02-11 06:33:00,
2013-02-11 08:34:00,47.5,26.7,29.38,NNW,338,0.0,1.3,44,0.00,,---,0.00,VWS V14.01,2013-02-11 06:34:00,
2013-02-11 08:35:00,48.0,27.2,29.38,North,0,0.9,0.9,44,0.00,,---,0.00,VWS V14.01,2013-02-11 06:35:00,
2013-02-11 08:36:00,48.6,27.6,29.38,North,0,0.0,0.9,44,0.00,,---,0.00,VWS V14.01,2013-02-11 06:36:00,
2013-02-11 08:37:00,49.1,28.7,29.38,North,0,0.0,0.0,45,0.00,,---,0.00,VWS V14.01,2013-02-11 06:37:00,
2013-02-11 08:38:00,50.0,30.0,29.38,NNE,22,2.0,2.0,46,0.00,,---,0.00,VWS V14.01,2013-02-11 06:38:00,
2013-02-11 08:39:00,50.4,30.4,29.38,ENE,68,1.6,2.0,46,0.00,,---,0.00,VWS V14.01,2013-02-11 06:39:00,
2013-02-11 08:40:00,50.9,30.3,29.38,ESE,112,1.6,1.6,45,0.00,,---,0.00,VWS V14.01,2013-02-11 06:40:00,
2013-02-11 08:41:00,51.4,30.8,29.38,South,180,2.0,2.0,45,0.00,,---,0.00,VWS V14.01,2013-02-11 06:41:00,
2013-02-11 08:42:00,51.6,31.0,29.38,SSE,158,1.3,2.0,45,0.00,,---,0.00,VWS V14.01,2013-02-11 06:42:00,
2013-02-11 08:43:00,51.6,31.0,29.38,SW,225,1.6,1.6,45,0.00,,---,0.00,VWS V14.01,2013-02-11 06:43:00,
2013-02-11 08:44:00,52.5,30.7,29.38,West,270,0.9,1.6,43,0.00,,---,0.00,VWS V14.01,2013-02-11 06:44:00,
2013-02-11 08:45:00,53.1,30.6,29.38,SSW,202,0.9,0.9,42,0.00,,---,0.00,VWS V14.01,2013-02-11 06:45:00,
2013-02-11 08:46:00,53.4,30.9,29.38,WNW,292,1.3,1.3,42,0.00,,---,0.00,VWS V14.01,2013-02-11 06:46:00,
2013-02-11 08:47:00,53.4,30.9,29.38,North,0,0.9,1.3,42,0.00,,---,0.00,VWS V14.01,2013-02-11 06:47:00,
2013-02-11 08:48:00,53.8,30.6,29.38,North,0,1.1,1.1,41,0.00,,---,0.00,VWS V14.01,2013-02-11 06:48:00,
2013-02-11 08:49:00,54.1,30.4,29.38,West,270,1.3,1.3,40,0.00,,---,0.00,VWS V14.01,2013-02-11 06:49:00,
2013-02-11 08:50:00,54.3,29.9,29.38,WNW,292,1.3,1.3,39,0.00,,---,0.00,VWS V14.01,2013-02-11 06:50:00,
2013-02-11 08:51:00,54.5,30.1,29.38,North,0,1.1,1.3,39,0.00,,---,0.00,VWS V14.01,2013-02-11 06:51:00,
2013-02-11 08:52:00,54.7,29.6,29.38,NNW,338,0.0,1.1,38,0.00,,---,0.00,VWS V14.01,2013-02-11 06:52:00,
2013-02-11 08:53:00,55.0,29.3,29.41,North,0,0.0,0.0,37,0.00,,---,0.00,VWS V14.01,2013-02-11 06:53:00,
2013-02-11 08:54:00,55.0,29.3,29.41,NNE,22,0.9,0.9,37,0.00,,---,0.00,VWS V14.01,2013-02-11 06:54:00,
2013-02-11 08:55:00,55.0,28.6,29.41,WNW,292,2.2,2.2,36,0.00,,---,0.00,VWS V14.01,2013-02-11 06:55:00,
2013-02-11 08:56:00,55.2,28.8,29.41,NW,315,1.3,2.2,36,0.00,,---,0.00,VWS V14.01,2013-02-11 06:56:00,
2013-02-11 08:57:00,55.4,28.9,29.41,NNW,338,0.9,1.3,36,0.00,,---,0.00,VWS V14.01,2013-02-11 06:57:00,
2013-02-11 08:58:00,55.4,28.2,29.41,North,0,2.5,2.5,35,0.00,,---,0.00,VWS V14.01,2013-02-11 06:58:00,
2013-02-11 08:59:00,55.6,28.4,29.41,NNW,338,1.1,2.5,35,0.00,,---,0.00,VWS V14.01,2013-02-11 06:59:00,
2013-02-11 09:00:00,55.9,28.7,29.41,NNW,338,0.0,1.1,35,0.00,,---,0.00,VWS V14.01,2013-02-11 07:00:00,
2013-02-11 09:01:00,56.3,29.0,29.41,North,0,0.9,0.9,35,0.00,,---,0.00,VWS V14.01,2013-02-11 07:01:00,
2013-02-11 09:02:00,56.7,29.3,29.41,NNE,22,1.1,1.1,35,0.00,,---,0.00,VWS V14.01,2013-02-11 07:02:00,
2013-02-11 09:03:00,56.7,29.3,29.41,North,0,1.6,1.6,35,0.00,,---,0.00,VWS V14.01,2013-02-11 07:03:00,
2013-02-11 09:04:00,56.7,28.6,29.41,NNE,22,1.3,1.6,34,0.00,,---,0.00,VWS V14.01,2013-02-11 07:04:00,
2013-02-11 09:05:00,56.3,26.8,29.41,WNW,292,2.7,2.7,32,0.00,,---,0.00,VWS V14.01,2013-02-11 07:05:00,
2013-02-11 09:06:00,56.5,27.0,29.41,West,270,2.0,2.7,32,0.00,,---,0.00,VWS V14.01,2013-02-11 07:06:00,
2013-02-11 09:08:00,56.7,27.2,29.44,NNW,338,1.3,2.0,32,0.00,,---,0.00,VWS V14.01,2013-02-11 07:08:00,
2013-02-11 09:09:00,56.7,26.4,29.44,ENE,68,2.2,2.2,31,0.00,,---,0.00,VWS V14.01,2013-02-11 07:09:00,
2013-02-11 09:10:00,56.7,25.6,29.44,East,90,2.0,2.2,30,0.00,,---,0.00,VWS V14.01,2013-02-11 07:10:00,
2013-02-11 09:11:00,56.7,25.6,29.44,NNE,22,2.0,2.0,30,0.00,,---,0.00,VWS V14.01,2013-02-11 07:11:00,
2013-02-11 09:12:00,56.8,25.8,29.44,SSE,158,2.9,2.9,30,0.00,,---,0.00,VWS V14.01,2013-02-11 07:12:00,
2013-02-11 09:13:00,56.7,24.8,29.44,NNE,22,1.6,2.9,29,0.00,,---,0.00,VWS V14.01,2013-02-11 07:13:00,
2013-02-11 09:14:00,56.5,24.6,29.44,ENE,68,2.0,2.0,29,0.00,,---,0.00,VWS V14.01,2013-02-11 07:14:00,
2013-02-11 09:15:00,56.7,24.0,29.44,North,0,2.7,2.7,28,0.00,,---,0.00,VWS V14.01,2013-02-11 07:15:00,
2013-02-11 09:16:00,56.7,24.8,29.44,North,0,3.1,3.1,29,0.00,,---,0.00,VWS V14.01,2013-02-11 07:16:00,
2013-02-11 09:17:00,56.3,24.5,29.44,NNW,338,1.3,3.1,29,0.00,,---,0.00,VWS V14.01,2013-02-11 07:17:00,
2013-02-11 09:18:00,56.5,24.6,29.44,NNE,22,2.0,2.0,29,0.00,,---,0.00,VWS V14.01,2013-02-11 07:18:00,
2013-02-11 09:19:00,56.7,24.0,29.44,ESE,112,2.2,2.2,28,0.00,,---,0.00,VWS V14.01,2013-02-11 07:19:00,
2013-02-11 09:20:00,56.5,23.8,29.44,North,0,2.7,2.7,28,0.00,,---,0.00,VWS V14.01,2013-02-11 07:20:00,
2013-02-11 09:21:00,56.5,23.8,29.44,NNE,22,2.0,2.7,28,0.00,,---,0.00,VWS V14.01,2013-02-11 07:21:00,
2013-02-11 09:22:00,56.7,24.0,29.44,NNW,338,2.2,2.2,28,0.00,,---,0.00,VWS V14.01,2013-02-11 07:22:00,
2013-02-11 09:24:00,56.8,24.1,29.44,ENE,68,2.0,2.2,28,0.00,,---,0.00,VWS V14.01,2013-02-11 07:24:00,
2013-02-11 09:25:00,56.7,23.1,29.44,NNW,338,3.4,3.4,27,0.00,,---,0.00,VWS V14.01,2013-02-11 07:25:00,
2013-02-11 09:26:00,56.7,23.1,29.44,NNE,22,2.2,3.4,27,0.00,,---,0.00,VWS V14.01,2013-02-11 07:26:00,
2013-02-11 09:27:00,56.8,23.2,29.44,NNE,22,1.6,2.2,27,0.00,,---,0.00,VWS V14.01,2013-02-11 07:27:00,
2013-02-11 09:28:00,56.7,23.1,29.44,North,0,2.5,2.5,27,0.00,,---,0.00,VWS V14.01,2013-02-11 07:28:00,
2013-02-11 09:29:00,56.7,23.1,29.44,NNE,22,2.0,2.5,27,0.00,,---,0.00,VWS V14.01,2013-02-11 07:29:00,
2013-02-11 09:30:00,56.8,23.2,29.44,NNE,22,3.1,3.1,27,0.00,,---,0.00,VWS V14.01,2013-02-11 07:30:00,
2013-02-11 09:31:00,56.7,23.1,29.44,North,0,2.9,3.1,27,0.00,,---,0.00,VWS V14.01,2013-02-11 07:31:00,
2013-02-11 09:32:00,56.7,23.1,29.44,NW,315,4.0,4.0,27,0.00,,---,0.00,VWS V14.01,2013-02-11 07:32:00,
2013-02-11 09:33:00,56.7,23.1,29.44,North,0,1.1,4.0,27,0.00,,---,0.00,VWS V14.01,2013-02-11 07:33:00,
2013-02-11 09:34:00,56.8,23.2,29.44,ENE,68,2.0,2.0,27,0.00,,---,0.00,VWS V14.01,2013-02-11 07:34:00,
2013-02-11 09:35:00,57.0,23.4,29.44,NNE,22,2.0,2.0,27,0.00,,---,0.00,VWS V14.01,2013-02-11 07:35:00,
2013-02-11 09:36:00,57.2,22.6,29.44,NE,45,1.1,2.0,26,0.00,,---,0.00,VWS V14.01,2013-02-11 07:36:00,
2013-02-11 09:37:00,57.6,23.0,29.44,NE,45,1.6,1.6,26,0.00,,---,0.00,VWS V14.01,2013-02-11 07:37:00,
2013-02-11 09:38:00,57.6,23.0,29.44,NNE,22,2.7,2.7,26,0.00,,---,0.00,VWS V14.01,2013-02-11 07:38:00,
2013-02-11 09:39:00,57.2,22.6,29.44,NNW,338,3.6,3.6,26,0.00,,---,0.00,VWS V14.01,2013-02-11 07:39:00,
2013-02-11 09:41:00,56.7,22.2,29.44,North,0,2.9,3.6,26,0.00,,---,0.00,VWS V14.01,2013-02-11 07:41:00,
2013-02-11 09:42:00,56.3,21.9,29.44,NNW,338,4.3,4.3,26,0.00,,---,0.00,VWS V14.01,2013-02-11 07:42:00,
2013-02-11 09:43:00,56.3,21.9,29.44,NNW,338,2.7,4.3,26,0.00,,---,0.00,VWS V14.01,2013-02-11 07:43:00,
2013-02-11 09:44:00,56.5,22.0,29.44,North,0,3.8,3.8,26,0.00,,---,0.00,VWS V14.01,2013-02-11 07:44:00,
2013-02-11 09:45:00,56.5,22.0,29.44,NNW,338,3.6,3.8,26,0.00,,---,0.00,VWS V14.01,2013-02-11 07:45:00,
2013-02-11 09:46:00,56.7,22.2,29.44,North,0,2.7,3.6,26,0.00,,---,0.00,VWS V14.01,2013-02-11 07:46:00,
2013-02-11 09:47:00,56.3,21.9,29.44,North,0,5.4,5.4,26,0.00,,---,0.00,VWS V14.01,2013-02-11 07:47:00,
2013-02-11 09:48:00,56.3,21.9,29.44,NNW,338,4.7,5.4,26,0.00,,---,0.00,VWS V14.01,2013-02-11 07:48:00,
2013-02-11 09:49:00,56.3,21.9,29.44,NNW,338,3.6,4.7,26,0.00,,---,0.00,VWS V14.01,2013-02-11 07:49:00,
2013-02-11 09:50:00,56.1,21.7,29.44,NNW,338,3.8,3.8,26,0.00,,---,0.00,VWS V14.01,2013-02-11 07:50:00,
2013-02-11 09:51:00,55.6,21.3,29.44,North,0,2.5,3.8,26,0.00,,---,0.00,VWS V14.01,2013-02-11 07:51:00,
2013-02-11 09:52:00,55.4,21.1,29.44,North,0,2.5,2.5,26,0.00,,---,0.00,VWS V14.01,2013-02-11 07:52:00,
2013-02-11 09:53:00,55.8,21.4,29.44,NNW,338,6.0,6.0,26,0.00,,---,0.00,VWS V14.01,2013-02-11 07:53:00,
2013-02-11 09:55:00,55.8,21.4,29.44,North,0,2.9,6.0,26,0.00,,---,0.00,VWS V14.01,2013-02-11 07:55:00,
2013-02-11 09:56:00,55.8,21.4,29.44,NNW,338,4.3,4.3,26,0.00,,---,0.00,VWS V14.01,2013-02-11 07:56:00,
2013-02-11 09:57:00,55.8,21.4,29.44,NNW,338,4.0,4.3,26,0.00,,---,0.00,VWS V14.01,2013-02-11 07:57:00,
2013-02-11 09:58:00,55.8,21.4,29.44,North,0,5.4,5.4,26,0.00,,---,0.00,VWS V14.01,2013-02-11 07:58:00,
2013-02-11 09:59:00,55.6,21.3,29.44,NNW,338,2.9,5.4,26,0.00,,---,0.00,VWS V14.01,2013-02-11 07:59:00,
2013-02-11 10:00:00,55.8,21.4,29.44,NNW,338,2.0,2.9,26,0.00,,---,0.00,VWS V14.01,2013-02-11 08:00:00,
2013-02-11 10:01:00,56.1,21.7,29.44,NNW,338,0.9,2.0,26,0.00,,---,0.00,VWS V14.01,2013-02-11 08:01:00,
2013-02-11 10:02:00,56.1,21.7,29.44,North,0,2.7,2.7,26,0.00,,---,0.00,VWS V14.01,2013-02-11 08:02:00,
2013-02-11 10:03:00,56.7,22.2,29.44,NNW,338,1.6,2.7,26,0.00,,---,0.00,VWS V14.01,2013-02-11 08:03:00,
2013-02-11 10:04:00,56.7,22.2,29.44,NNE,22,2.2,2.2,26,0.00,,---,0.00,VWS V14.01,2013-02-11 08:04:00,
2013-02-11 10:05:00,56.8,22.3,29.44,SE,135,2.0,2.2,26,0.00,,---,0.00,VWS V14.01,2013-02-11 08:05:00,
2013-02-11 10:06:00,57.0,22.5,29.44,WNW,292,3.8,3.8,26,0.00,,---,0.00,VWS V14.01,2013-02-11 08:06:00,
2013-02-11 10:07:00,56.8,22.3,29.44,NNE,22,1.1,3.8,26,0.00,,---,0.00,VWS V14.01,2013-02-11 08:07:00,
2013-02-11 10:08:00,57.2,22.6,29.44,North,0,2.0,2.0,26,0.00,,---,0.00,VWS V14.01,2013-02-11 08:08:00,
2013-02-11 10:09:00,57.6,23.0,29.44,East,90,2.5,2.5,26,0.00,,---,0.00,VWS V14.01,2013-02-11 08:09:00,
2013-02-11 10:10:00,57.7,23.1,29.44,East,90,1.6,2.5,26,0.00,,---,0.00,VWS V14.01,2013-02-11 08:10:00,
2013-02-11 10:11:00,57.7,23.1,29.44,North,0,5.4,5.4,26,0.00,,---,0.00,VWS V14.01,2013-02-11 08:11:00,
2013-02-11 10:12:00,57.7,22.2,29.44,WSW,248,2.0,5.4,25,0.00,,---,0.00,VWS V14.01,2013-02-11 08:12:00,
2013-02-11 10:13:00,57.9,23.3,29.44,West,270,0.9,2.0,26,0.00,,---,0.00,VWS V14.01,2013-02-11 08:13:00,
2013-02-11 10:14:00,58.3,23.6,29.44,NNE,22,1.3,1.3,26,0.00,,---,0.00,VWS V14.01,2013-02-11 08:14:00,
2013-02-11 10:15:00,58.3,22.6,29.44,NW,315,2.0,2.0,25,0.00,,---,0.00,VWS V14.01,2013-02-11 08:15:00,
2013-02-11 10:16:00,58.3,22.6,29.44,NNE,22,2.9,2.9,25,0.00,,---,0.00,VWS V14.01,2013-02-11 08:16:00,
2013-02-11 10:17:00,58.6,22.9,29.44,NNW,338,2.7,2.9,25,0.00,,---,0.00,VWS V14.01,2013-02-11 08:17:00,
2013-02-11 10:18:00,58.6,22.9,29.44,NNE,22,2.0,2.7,25,0.00,,---,0.00,VWS V14.01,2013-02-11 08:18:00,
2013-02-11 10:19:00,58.6,22.9,29.44,NNE,22,2.9,2.9,25,0.00,,---,0.00,VWS V14.01,2013-02-11 08:19:00,
2013-02-11 10:20:00,58.5,22.8,29.44,NNE,22,3.1,3.1,25,0.00,,---,0.00,VWS V14.01,2013-02-11 08:20:00,
2013-02-11 10:21:00,58.3,22.6,29.44,NE,45,1.1,3.1,25,0.00,,---,0.00,VWS V14.01,2013-02-11 08:21:00,
2013-02-11 10:22:00,58.3,22.6,29.44,NNW,338,2.9,2.9,25,0.00,,---,0.00,VWS V14.01,2013-02-11 08:22:00,
2013-02-11 10:23:00,58.1,22.5,29.44,NNE,22,2.5,2.9,25,0.00,,---,0.00,VWS V14.01,2013-02-11 08:23:00,
2013-02-11 10:24:00,58.3,22.6,29.44,NE,45,1.1,2.5,25,0.00,,---,0.00,VWS V14.01,2013-02-11 08:24:00,
2013-02-11 10:25:00,58.3,22.6,29.44,NNW,338,2.0,2.0,25,0.00,,---,0.00,VWS V14.01,2013-02-11 08:25:00,
2013-02-11 10:26:00,58.3,22.6,29.44,North,0,1.1,2.0,25,0.00,,---,0.00,VWS V14.01,2013-02-11 08:26:00,
2013-02-11 10:27:00,58.3,22.6,29.44,West,270,2.0,2.0,25,0.00,,---,0.00,VWS V14.01,2013-02-11 08:27:00,
2013-02-11 10:28:00,58.3,22.6,29.44,East,90,2.0,2.0,25,0.00,,---,0.00,VWS V14.01,2013-02-11 08:28:00,
2013-02-11 10:29:00,58.5,22.8,29.44,WNW,292,3.4,3.4,25,0.00,,---,0.00,VWS V14.01,2013-02-11 08:29:00,
2013-02-11 10:30:00,58.1,22.5,29.44,WNW,292,3.4,3.4,25,0.00,,---,0.00,VWS V14.01,2013-02-11 08:30:00,
2013-02-11 10:31:00,58.3,22.6,29.44,East,90,1.6,3.4,25,0.00,,---,0.00,VWS V14.01,2013-02-11 08:31:00,
2013-02-11 10:32:00,58.6,22.9,29.44,WSW,248,1.6,1.6,25,0.00,,---,0.00,VWS V14.01,2013-02-11 08:32:00,
2013-02-11 10:33:00,58.8,23.1,29.44,NNW,338,1.6,1.6,25,0.00,,---,0.00,VWS V14.01,2013-02-11 08:33:00,
2013-02-11 10:34:00,59.0,22.3,29.44,West,270,1.3,1.6,24,0.00,,---,0.00,VWS V14.01,2013-02-11 08:34:00,
2013-02-11 10:35:00,59.0,22.3,29.44,NNW,338,3.6,3.6,24,0.00,,---,0.00,VWS V14.01,2013-02-11 08:35:00,
2013-02-11 10:36:00,59.2,22.4,29.44,ENE,68,2.2,3.6,24,0.00,,---,0.00,VWS V14.01,2013-02-11 08:36:00,
2013-02-11 10:37:00,59.0,22.3,29.44,NNW,338,2.9,2.9,24,0.00,,---,0.00,VWS V14.01,2013-02-11 08:37:00,
2013-02-11 10:38:00,59.2,22.4,29.44,SE,135,1.6,2.9,24,0.00,,---,0.00,VWS V14.01,2013-02-11 08:38:00,
2013-02-11 10:39:00,59.4,22.6,29.44,NNW,338,2.7,2.7,24,0.00,,---,0.00,VWS V14.01,2013-02-11 08:39:00,
2013-02-11 10:40:00,59.5,22.7,29.44,NNE,22,1.6,2.7,24,0.00,,---,0.00,VWS V14.01,2013-02-11 08:40:00,
2013-02-11 10:41:00,59.5,22.7,29.44,NNW,338,1.1,1.6,24,0.00,,---,0.00,VWS V14.01,2013-02-11 08:41:00,
2013-02-11 10:42:00,59.5,22.7,29.44,NNW,338,0.9,1.1,24,0.00,,---,0.00,VWS V14.01,2013-02-11 08:42:00,
2013-02-11 10:43:00,59.5,22.7,29.44,NNW,338,2.9,2.9,24,0.00,,---,0.00,VWS V14.01,2013-02-11 08:43:00,
2013-02-11 10:44:00,59.5,22.7,29.44,NNE,22,1.6,2.9,24,0.00,,---,0.00,VWS V14.01,2013-02-11 08:44:00,
2013-02-11 10:45:00,59.7,22.9,29.44,NNE,22,1.3,1.6,24,0.00,,---,0.00,VWS V14.01,2013-02-11 08:45:00,
2013-02-11 10:46:00,59.7,22.9,29.44,North,0,2.9,2.9,24,0.00,,---,0.00,VWS V14.01,2013-02-11 08:46:00,
2013-02-11 10:47:00,59.5,22.7,29.44,WNW,292,2.2,2.9,24,0.00,,---,0.00,VWS V14.01,2013-02-11 08:47:00,
2013-02-11 10:48:00,59.5,22.7,29.44,NNW,338,0.9,2.2,24,0.00,,---,0.00,VWS V14.01,2013-02-11 08:48:00,
2013-02-11 10:49:00,59.4,22.6,29.44,NNW,338,3.4,3.4,24,0.00,,---,0.00,VWS V14.01,2013-02-11 08:49:00,
2013-02-11 10:50:00,59.4,22.6,29.44,ENE,68,2.5,3.4,24,0.00,,---,0.00,VWS V14.01,2013-02-11 08:50:00,
2013-02-11 10:51:00,59.0,20.2,29.44,North,0,2.0,2.5,22,0.00,,---,0.00,VWS V14.01,2013-02-11 08:51:00,
2013-02-11 10:52:00,59.0,20.2,29.44,NE,45,1.6,2.0,22,0.00,,---,0.00,VWS V14.01,2013-02-11 08:52:00,
2013-02-11 10:53:00,59.0,20.2,29.44,NNW,338,2.7,2.7,22,0.00,,---,0.00,VWS V14.01,2013-02-11 08:53:00,
2013-02-11 10:54:00,58.8,20.1,29.44,North,0,1.3,2.7,22,0.00,,---,0.00,VWS V14.01,2013-02-11 08:54:00,
2013-02-11 10:55:00,59.0,20.2,29.44,North,0,1.6,1.6,22,0.00,,---,0.00,VWS V14.01,2013-02-11 08:55:00,
2013-02-11 10:56:00,59.0,20.2,29.44,NNW,338,3.1,3.1,22,0.00,,---,0.00,VWS V14.01,2013-02-11 08:56:00,
2013-02-11 10:57:00,58.8,20.1,29.44,NNW,338,2.7,3.1,22,0.00,,---,0.00,VWS V14.01,2013-02-11 08:57:00,
2013-02-11 10:58:00,58.8,20.1,29.44,NNE,22,2.7,2.7,22,0.00,,---,0.00,VWS V14.01,2013-02-11 08:58:00,
2013-02-11 10:59:00,59.0,20.2,29.44,NNW,338,1.6,2.7,22,0.00,,---,0.00,VWS V14.01,2013-02-11 08:59:00,
2013-02-11 11:00:00,59.0,20.2,29.44,NNE,22,5.4,5.4,22,0.00,,---,0.00,VWS V14.01,2013-02-11 09:00:00,
2013-02-11 11:01:00,59.0,20.2,29.44,North,0,4.0,5.4,22,0.00,,---,0.00,VWS V14.01,2013-02-11 09:01:00,
2013-02-11 11:02:00,58.5,19.8,29.44,NNE,22,4.0,4.0,22,0.00,,---,0.00,VWS V14.01,2013-02-11 09:02:00,
2013-02-11 11:03:00,58.5,19.8,29.44,North,0,2.9,4.0,22,0.00,,---,0.00,VWS V14.01,2013-02-11 09:03:00,
2013-02-11 11:04:00,57.6,19.0,29.44,North,0,3.8,3.8,22,0.00,,---,0.00,VWS V14.01,2013-02-11 09:04:00,
2013-02-11 11:05:00,57.2,18.7,29.44,ENE,68,2.2,3.8,22,0.00,,---,0.00,VWS V14.01,2013-02-11 09:05:00,
2013-02-11 11:06:00,57.0,18.6,29.44,NW,315,2.7,2.7,22,0.00,,---,0.00,VWS V14.01,2013-02-11 09:06:00,
2013-02-11 11:07:00,57.0,18.6,29.44,ENE,68,2.5,2.7,22,0.00,,---,0.00,VWS V14.01,2013-02-11 09:07:00,
2013-02-11 11:08:00,57.0,18.6,29.47,NNW,338,5.6,5.6,22,0.00,,---,0.00,VWS V14.01,2013-02-11 09:08:00,
2013-02-11 11:09:00,56.8,18.4,29.47,NNW,338,3.8,5.6,22,0.00,,---,0.00,VWS V14.01,2013-02-11 09:09:00,
2013-02-11 11:10:00,57.0,18.6,29.47,NNW,338,5.4,5.4,22,0.00,,---,0.00,VWS V14.01,2013-02-11 09:10:00,
2013-02-11 11:11:00,57.2,18.7,29.47,NNW,338,4.9,5.4,22,0.00,,---,0.00,VWS V14.01,2013-02-11 09:11:00,
2013-02-11 11:12:00,57.4,18.9,29.47,NNE,22,3.8,4.9,22,0.00,,---,0.00,VWS V14.01,2013-02-11 09:12:00,
2013-02-11 11:13:00,57.4,18.9,29.47,NNE,22,2.9,3.8,22,0.00,,---,0.00,VWS V14.01,2013-02-11 09:13:00,
2013-02-11 11:14:00,57.0,18.6,29.47,North,0,2.7,2.9,22,0.00,,---,0.00,VWS V14.01,2013-02-11 09:14:00,
2013-02-11 11:15:00,57.0,18.6,29.47,NNW,338,4.0,4.0,22,0.00,,---,0.00,VWS V14.01,2013-02-11 09:15:00,
2013-02-11 11:16:00,57.0,18.6,29.47,NNW,338,1.6,4.0,22,0.00,,---,0.00,VWS V14.01,2013-02-11 09:16:00,
2013-02-11 11:18:00,56.5,18.1,29.47,NNW,338,2.9,2.9,22,0.00,,---,0.00,VWS V14.01,2013-02-11 09:18:00,
2013-02-11 11:19:00,55.9,17.7,29.47,West,270,2.0,2.9,22,0.00,,---,0.00,VWS V14.01,2013-02-11 09:19:00,
2013-02-11 11:20:00,55.9,17.7,29.47,North,0,2.2,2.2,22,0.00,,---,0.00,VWS V14.01,2013-02-11 09:20:00,
2013-02-11 11:21:00,55.9,17.7,29.47,NNE,22,2.5,2.5,22,0.00,,---,0.00,VWS V14.01,2013-02-11 09:21:00,
2013-02-11 11:22:00,56.1,17.8,29.47,NNE,22,3.4,3.4,22,0.00,,---,0.00,VWS V14.01,2013-02-11 09:22:00,
2013-02-11 11:23:00,56.3,18.0,29.47,North,0,2.0,3.4,22,0.00,,---,0.00,VWS V14.01,2013-02-11 09:23:00,
2013-02-11 11:24:00,56.3,18.0,29.47,NNW,338,3.4,3.4,22,0.00,,---,0.00,VWS V14.01,2013-02-11 09:24:00,
2013-02-11 11:25:00,56.1,17.8,29.47,North,0,2.2,3.4,22,0.00,,---,0.00,VWS V14.01,2013-02-11 09:25:00,
2013-02-11 11:26:00,55.9,17.7,29.47,NNW,338,2.5,2.5,22,0.00,,---,0.00,VWS V14.01,2013-02-11 09:26:00,
2013-02-11 11:27:00,55.9,17.7,29.47,NE,45,2.5,2.5,22,0.00,,---,0.00,VWS V14.01,2013-02-11 09:27:00,
2013-02-11 11:28:00,56.1,17.8,29.47,NNW,338,2.9,2.9,22,0.00,,---,0.00,VWS V14.01,2013-02-11 09:28:00,
2013-02-11 11:29:00,56.1,17.8,29.47,NNW,338,2.0,2.9,22,0.00,,---,0.00,VWS V14.01,2013-02-11 09:29:00,
2013-02-11 11:30:00,56.3,18.0,29.47,NNW,338,1.6,2.0,22,0.00,,---,0.00,VWS V14.01,2013-02-11 09:30:00,
2013-02-11 11:31:00,56.7,18.3,29.47,North,0,3.4,3.4,22,0.00,,---,0.00,VWS V14.01,2013-02-11 09:31:00,
2013-02-11 11:32:00,57.0,18.6,29.47,NNW,338,2.7,3.4,22,0.00,,---,0.00,VWS V14.01,2013-02-11 09:32:00,
2013-02-11 11:33:00,57.0,18.6,29.47,NNE,22,2.0,2.7,22,0.00,,---,0.00,VWS V14.01,2013-02-11 09:33:00,
2013-02-11 11:34:00,57.0,18.6,29.47,NNW,338,5.6,5.6,22,0.00,,---,0.00,VWS V14.01,2013-02-11 09:34:00,
2013-02-11 11:35:00,56.8,18.4,29.47,NNW,338,2.9,5.6,22,0.00,,---,0.00,VWS V14.01,2013-02-11 09:35:00,
2013-02-11 11:36:00,56.5,18.1,29.47,NNE,22,1.3,2.9,22,0.00,,---,0.00,VWS V14.01,2013-02-11 09:36:00,
2013-02-11 11:37:00,56.8,18.4,29.47,NNE,22,4.0,4.0,22,0.00,,---,0.00,VWS V14.01,2013-02-11 09:37:00,
2013-02-11 11:38:00,56.8,18.4,29.47,North,0,7.4,7.4,22,0.00,,---,0.00,VWS V14.01,2013-02-11 09:38:00,
2013-02-11 11:39:00,56.8,18.4,29.47,NNW,338,2.5,7.4,22,0.00,,---,0.00,VWS V14.01,2013-02-11 09:39:00,
2013-02-11 11:40:00,57.6,19.0,29.47,NNE,22,2.0,2.5,22,0.00,,---,0.00,VWS V14.01,2013-02-11 09:40:00,
2013-02-11 11:41:00,57.6,19.0,29.47,ENE,68,2.2,2.2,22,0.00,,---,0.00,VWS V14.01,2013-02-11 09:41:00,
2013-02-11 11:42:00,57.6,19.0,29.47,West,270,2.0,2.2,22,0.00,,---,0.00,VWS V14.01,2013-02-11 09:42:00,
2013-02-11 11:43:00,57.9,19.3,29.47,NE,45,2.5,2.5,22,0.00,,---,0.00,VWS V14.01,2013-02-11 09:43:00,
2013-02-11 11:44:00,57.9,19.3,29.47,ENE,68,1.1,2.5,22,0.00,,---,0.00,VWS V14.01,2013-02-11 09:44:00,
2013-02-11 11:45:00,58.3,19.6,29.47,NE,45,1.3,1.3,22,0.00,,---,0.00,VWS V14.01,2013-02-11 09:45:00,
2013-02-11 11:46:00,58.6,19.9,29.47,NNW,338,1.1,1.3,22,0.00,,---,0.00,VWS V14.01,2013-02-11 09:46:00,
2013-02-11 11:47:00,59.0,20.2,29.47,ENE,68,1.3,1.3,22,0.00,,---,0.00,VWS V14.01,2013-02-11 09:47:00,
2013-02-11 11:48:00,59.4,20.5,29.47,North,0,2.7,2.7,22,0.00,,---,0.00,VWS V14.01,2013-02-11 09:48:00,
2013-02-11 11:49:00,59.4,20.5,29.47,NNW,338,1.6,2.7,22,0.00,,---,0.00,VWS V14.01,2013-02-11 09:49:00,
2013-02-11 11:50:00,59.5,20.7,29.47,East,90,2.9,2.9,22,0.00,,---,0.00,VWS V14.01,2013-02-11 09:50:00,
2013-02-11 11:51:00,59.7,20.8,29.47,WNW,292,3.1,3.1,22,0.00,,---,0.00,VWS V14.01,2013-02-11 09:51:00,
2013-02-11 11:52:00,59.7,20.8,29.47,NNW,338,2.5,3.1,22,0.00,,---,0.00,VWS V14.01,2013-02-11 09:52:00,
2013-02-11 11:53:00,59.7,20.8,29.47,NNW,338,3.1,3.1,22,0.00,,---,0.00,VWS V14.01,2013-02-11 09:53:00,
2013-02-11 11:54:00,59.2,20.4,29.47,NW,315,3.8,3.8,22,0.00,,---,0.00,VWS V14.01,2013-02-11 09:54:00,
2013-02-11 11:55:00,58.3,16.2,29.47,NNW,338,4.3,4.3,19,0.00,,---,0.00,VWS V14.01,2013-02-11 09:55:00,
2013-02-11 11:57:00,57.9,15.9,29.47,North,0,4.7,4.7,19,0.00,,---,0.00,VWS V14.01,2013-02-11 09:57:00,
2013-02-11 11:58:00,57.9,15.9,29.47,NNW,338,3.1,4.7,19,0.00,,---,0.00,VWS V14.01,2013-02-11 09:58:00,
2013-02-11 11:59:00,57.4,15.5,29.47,WNW,292,4.3,4.3,19,0.00,,---,0.00,VWS V14.01,2013-02-11 09:59:00,
2013-02-11 12:00:00,57.2,15.3,29.47,NNW,338,3.8,4.3,19,0.00,,---,0.00,VWS V14.01,2013-02-11 10:00:00,
2013-02-11 12:01:00,57.4,18.9,29.47,North,0,2.9,3.8,22,0.00,,---,0.00,VWS V14.01,2013-02-11 10:01:00,
2013-02-11 12:02:00,57.2,18.7,29.47,North,0,2.5,2.9,22,0.00,,---,0.00,VWS V14.01,2013-02-11 10:02:00,
2013-02-11 12:03:00,57.2,18.7,29.47,NNW,338,2.5,2.5,22,0.00,,---,0.00,VWS V14.01,2013-02-11 10:03:00,
2013-02-11 12:04:00,57.4,18.9,29.47,NW,315,3.6,3.6,22,0.00,,---,0.00,VWS V14.01,2013-02-11 10:04:00,
2013-02-11 12:05:00,57.7,19.2,29.47,NNE,22,2.9,3.6,22,0.00,,---,0.00,VWS V14.01,2013-02-11 10:05:00,
2013-02-11 12:06:00,58.1,19.5,29.47,SE,135,2.5,2.9,22,0.00,,---,0.00,VWS V14.01,2013-02-11 10:06:00,
2013-02-11 12:07:00,58.3,19.6,29.47,SW,225,2.5,2.5,22,0.00,,---,0.00,VWS V14.01,2013-02-11 10:07:00,
2013-02-11 12:08:00,58.5,19.8,29.47,NNW,338,2.5,2.5,22,0.00,,---,0.00,VWS V14.01,2013-02-11 10:08:00,
2013-02-11 12:09:00,58.6,19.9,29.47,South,180,1.1,2.5,22,0.00,,---,0.00,VWS V14.01,2013-02-11 10:09:00,
2013-02-11 12:10:00,59.2,20.4,29.47,East,90,1.6,1.6,22,0.00,,---,0.00,VWS V14.01,2013-02-11 10:10:00,
2013-02-11 12:11:00,59.2,20.4,29.47,NNW,338,3.4,3.4,22,0.00,,---,0.00,VWS V14.01,2013-02-11 10:11:00,
2013-02-11 12:12:00,59.4,20.5,29.47,NNW,338,3.1,3.4,22,0.00,,---,0.00,VWS V14.01,2013-02-11 10:12:00,
2013-02-11 12:13:00,59.2,20.4,29.47,NNW,338,1.3,3.1,22,0.00,,---,0.00,VWS V14.01,2013-02-11 10:13:00,
2013-02-11 12:14:00,58.8,20.1,29.47,WSW,248,3.4,3.4,22,0.00,,---,0.00,VWS V14.01,2013-02-11 10:14:00,
2013-02-11 12:15:00,58.8,20.1,29.47,NNE,22,2.9,3.4,22,0.00,,---,0.00,VWS V14.01,2013-02-11 10:15:00,
2013-02-11 12:16:00,59.0,20.2,29.47,NNE,22,2.2,2.9,22,0.00,,---,0.00,VWS V14.01,2013-02-11 10:16:00,
2013-02-11 12:17:00,59.0,20.2,29.47,North,0,2.5,2.5,22,0.00,,---,0.00,VWS V14.01,2013-02-11 10:17:00,
2013-02-11 12:18:00,59.4,22.6,29.47,East,90,1.3,2.5,24,0.00,,---,0.00,VWS V14.01,2013-02-11 10:18:00,
2013-02-11 12:19:00,59.5,20.7,29.47,NNW,338,3.4,3.4,22,0.00,,---,0.00,VWS V14.01,2013-02-11 10:19:00,
2013-02-11 12:20:00,59.5,20.7,29.47,NNE,22,2.2,3.4,22,0.00,,---,0.00,VWS V14.01,2013-02-11 10:20:00,
2013-02-11 12:21:00,59.7,20.8,29.47,ENE,68,4.7,4.7,22,0.00,,---,0.00,VWS V14.01,2013-02-11 10:21:00,
2013-02-11 12:22:00,59.4,20.5,29.47,WSW,248,3.4,4.7,22,0.00,,---,0.00,VWS V14.01,2013-02-11 10:22:00,
2013-02-11 12:23:00,59.4,20.5,29.47,East,90,3.1,3.4,22,0.00,,---,0.00,VWS V14.01,2013-02-11 10:23:00,
2013-02-11 12:24:00,59.2,22.4,29.47,ENE,68,1.6,3.1,24,0.00,,---,0.00,VWS V14.01,2013-02-11 10:24:00,
2013-02-11 12:25:00,59.0,22.3,29.47,NNE,22,2.0,2.0,24,0.00,,---,0.00,VWS V14.01,2013-02-11 10:25:00,
2013-02-11 12:26:00,59.0,22.3,29.47,NNW,338,2.5,2.5,24,0.00,,---,0.00,VWS V14.01,2013-02-11 10:26:00,
2013-02-11 12:27:00,58.8,22.1,29.47,North,0,2.2,2.5,24,0.00,,---,0.00,VWS V14.01,2013-02-11 10:27:00,
2013-02-11 12:28:00,59.0,22.3,29.47,NNE,22,3.4,3.4,24,0.00,,---,0.00,VWS V14.01,2013-02-11 10:28:00,
2013-02-11 12:29:00,59.2,22.4,29.47,North,0,2.7,3.4,24,0.00,,---,0.00,VWS V14.01,2013-02-11 10:29:00,
2013-02-11 12:30:00,59.2,22.4,29.47,ESE,112,2.7,2.7,24,0.00,,---,0.00,VWS V14.01,2013-02-11 10:30:00,
2013-02-11 12:31:00,59.4,22.6,29.47,NNE,22,2.0,2.7,24,0.00,,---,0.00,VWS V14.01,2013-02-11 10:31:00,
2013-02-11 12:32:00,59.4,22.6,29.47,North,0,2.9,2.9,24,0.00,,---,0.00,VWS V14.01,2013-02-11 10:32:00,
2013-02-11 12:33:00,59.5,22.7,29.47,North,0,2.9,2.9,24,0.00,,---,0.00,VWS V14.01,2013-02-11 10:33:00,
2013-02-11 12:34:00,59.5,22.7,29.47,NNE,22,3.8,3.8,24,0.00,,---,0.00,VWS V14.01,2013-02-11 10:34:00,
2013-02-11 12:35:00,59.5,22.7,29.47,NNE,22,2.5,3.8,24,0.00,,---,0.00,VWS V14.01,2013-02-11 10:35:00,
2013-02-11 12:36:00,59.5,22.7,29.47,North,0,2.0,2.5,24,0.00,,---,0.00,VWS V14.01,2013-02-11 10:36:00,
2013-02-11 12:37:00,59.5,22.7,29.47,NNW,338,4.3,4.3,24,0.00,,---,0.00,VWS V14.01,2013-02-11 10:37:00,
2013-02-11 12:38:00,59.5,22.7,29.47,WSW,248,4.0,4.3,24,0.00,,---,0.00,VWS V14.01,2013-02-11 10:38:00,
2013-02-11 12:39:00,59.5,22.7,29.47,WNW,292,3.4,4.0,24,0.00,,---,0.00,VWS V14.01,2013-02-11 10:39:00,
2013-02-11 12:40:00,59.5,22.7,29.47,NNE,22,3.8,3.8,24,0.00,,---,0.00,VWS V14.01,2013-02-11 10:40:00,
2013-02-11 12:42:00,59.7,22.9,29.47,WNW,292,2.5,3.8,24,0.00,,---,0.00,VWS V14.01,2013-02-11 10:42:00,
2013-02-11 12:43:00,59.5,20.7,29.47,NNW,338,6.0,6.0,22,0.00,,---,0.00,VWS V14.01,2013-02-11 10:43:00,
2013-02-11 12:44:00,59.4,20.5,29.47,North,0,2.7,6.0,22,0.00,,---,0.00,VWS V14.01,2013-02-11 10:44:00,
2013-02-11 12:45:00,59.4,20.5,29.47,NW,315,3.1,3.1,22,0.00,,---,0.00,VWS V14.01,2013-02-11 10:45:00,
2013-02-11 12:46:00,59.4,20.5,29.47,West,270,2.0,3.1,22,0.00,,---,0.00,VWS V14.01,2013-02-11 10:46:00,
2013-02-11 12:47:00,59.4,20.5,29.47,NNW,338,2.7,2.7,22,0.00,,---,0.00,VWS V14.01,2013-02-11 10:47:00,
2013-02-11 12:48:00,59.5,20.7,29.47,NNW,338,3.4,3.4,22,0.00,,---,0.00,VWS V14.01,2013-02-11 10:48:00,
2013-02-11 12:49:00,59.7,22.9,29.47,North,0,2.9,3.4,24,0.00,,---,0.00,VWS V14.01,2013-02-11 10:49:00,
2013-02-11 12:50:00,59.7,22.9,29.47,ENE,68,1.3,2.9,24,0.00,,---,0.00,VWS V14.01,2013-02-11 10:50:00,
2013-02-11 12:52:00,59.9,21.0,29.47,NNW,338,2.9,2.9,22,0.00,,---,0.00,VWS V14.01,2013-02-11 10:52:00,
2013-02-11 12:53:00,59.9,21.0,29.47,WSW,248,3.6,3.6,22,0.00,,---,0.00,VWS V14.01,2013-02-11 10:53:00,
2013-02-11 12:54:00,58.8,20.1,29.47,NE,45,2.5,3.6,22,0.00,,---,0.00,VWS V14.01,2013-02-11 10:54:00,
2013-02-11 12:55:00,59.0,20.2,29.47,East,90,2.7,2.7,22,0.00,,---,0.00,VWS V14.01,2013-02-11 10:55:00,
2013-02-11 12:56:00,58.5,19.8,29.47,East,90,2.0,2.7,22,0.00,,---,0.00,VWS V14.01,2013-02-11 10:56:00,
2013-02-11 12:58:00,57.6,19.0,29.47,NNW,338,2.7,2.7,22,0.00,,---,0.00,VWS V14.01,2013-02-11 10:58:00,
2013-02-11 12:59:00,57.2,18.7,29.47,NNE,22,2.5,2.7,22,0.00,,---,0.00,VWS V14.01,2013-02-11 10:59:00,
2013-02-11 13:00:00,57.0,18.6,29.47,NNE,22,2.9,2.9,22,0.00,,---,0.00,VWS V14.01,2013-02-11 11:00:00,
2013-02-11 13:01:00,56.8,18.4,29.47,NNE,22,2.0,2.9,22,0.00,,---,0.00,VWS V14.01,2013-02-11 11:01:00,
2013-02-11 13:02:00,56.8,18.4,29.47,NE,45,2.7,2.7,22,0.00,,---,0.00,VWS V14.01,2013-02-11 11:02:00,
2013-02-11 13:04:00,56.7,21.3,29.47,ENE,68,2.0,2.7,25,0.00,,---,0.00,VWS V14.01,2013-02-11 11:04:00,
2013-02-11 13:05:00,56.7,21.3,29.47,NNW,338,2.0,2.0,25,0.00,,---,0.00,VWS V14.01,2013-02-11 11:05:00,
2013-02-11 13:06:00,56.3,21.0,29.47,North,0,4.0,4.0,25,0.00,,---,0.00,VWS V14.01,2013-02-11 11:06:00,
2013-02-11 13:07:00,56.1,20.8,29.47,NNW,338,1.6,4.0,25,0.00,,---,0.00,VWS V14.01,2013-02-11 11:07:00,
2013-02-11 13:08:00,56.1,20.8,29.47,SSE,158,1.6,1.6,25,0.00,,---,0.00,VWS V14.01,2013-02-11 11:08:00,
2013-02-11 13:09:00,55.9,20.6,29.47,NNE,22,2.0,2.0,25,0.00,,---,0.00,VWS V14.01,2013-02-11 11:09:00,
2013-02-11 13:10:00,55.8,20.5,29.47,NNW,338,2.9,2.9,25,0.00,,---,0.00,VWS V14.01,2013-02-11 11:10:00,
2013-02-11 13:11:00,55.8,20.5,29.47,NNE,22,4.0,4.0,25,0.00,,---,0.00,VWS V14.01,2013-02-11 11:11:00,
2013-02-11 13:12:00,55.4,20.2,29.47,North,0,2.0,4.0,25,0.00,,---,0.00,VWS V14.01,2013-02-11 11:12:00,
2013-02-11 13:13:00,55.4,20.2,29.47,North,0,2.7,2.7,25,0.00,,---,0.00,VWS V14.01,2013-02-11 11:13:00,
2013-02-11 13:14:00,55.6,20.3,29.47,NNW,338,4.9,4.9,25,0.00,,---,0.00,VWS V14.01,2013-02-11 11:14:00,
2013-02-11 13:15:00,55.9,20.6,29.47,NNW,338,3.6,4.9,25,0.00,,---,0.00,VWS V14.01,2013-02-11 11:15:00,
2013-02-11 13:17:00,56.3,21.0,29.47,North,0,1.1,3.6,25,0.00,,---,0.00,VWS V14.01,2013-02-11 11:17:00,
2013-02-11 13:18:00,57.2,21.7,29.47,NNE,22,2.7,2.7,25,0.00,,---,0.00,VWS V14.01,2013-02-11 11:18:00,
2013-02-11 13:19:00,57.4,21.9,29.47,ENE,68,1.1,2.7,25,0.00,,---,0.00,VWS V14.01,2013-02-11 11:19:00,
2013-02-11 13:20:00,57.2,21.7,29.47,NNW,338,2.0,2.0,25,0.00,,---,0.00,VWS V14.01,2013-02-11 11:20:00,
2013-02-11 13:21:00,57.0,21.6,29.47,NNW,338,1.1,2.0,25,0.00,,---,0.00,VWS V14.01,2013-02-11 11:21:00,
2013-02-11 13:22:00,56.8,21.4,29.47,NW,315,2.9,2.9,25,0.00,,---,0.00,VWS V14.01,2013-02-11 11:22:00,
2013-02-11 13:23:00,57.0,21.6,29.47,NNE,22,3.1,3.1,25,0.00,,---,0.00,VWS V14.01,2013-02-11 11:23:00,
2013-02-11 13:24:00,57.0,21.6,29.47,NNW,338,2.0,3.1,25,0.00,,---,0.00,VWS V14.01,2013-02-11 11:24:00,
2013-02-11 13:25:00,57.4,20.9,29.47,NNE,22,1.6,2.0,24,0.00,,---,0.00,VWS V14.01,2013-02-11 11:25:00,
2013-02-11 13:26:00,57.6,21.1,29.47,NE,45,2.7,2.7,24,0.00,,---,0.00,VWS V14.01,2013-02-11 11:26:00,
2013-02-11 13:27:00,57.9,21.4,29.47,North,0,2.0,2.7,24,0.00,,---,0.00,VWS V14.01,2013-02-11 11:27:00,
2013-02-11 13:28:00,57.9,21.4,29.47,NNW,338,2.9,2.9,24,0.00,,---,0.00,VWS V14.01,2013-02-11 11:28:00,
2013-02-11 13:29:00,57.9,21.4,29.47,NNW,338,4.9,4.9,24,0.00,,---,0.00,VWS V14.01,2013-02-11 11:29:00,
2013-02-11 13:30:00,58.1,21.5,29.47,NNE,22,1.3,4.9,24,0.00,,---,0.00,VWS V14.01,2013-02-11 11:30:00,
2013-02-11 13:31:00,58.3,21.7,29.47,NNW,338,2.5,2.5,24,0.00,,---,0.00,VWS V14.01,2013-02-11 11:31:00,
2013-02-11 13:32:00,58.1,21.5,29.47,North,0,1.1,2.5,24,0.00,,---,0.00,VWS V14.01,2013-02-11 11:32:00,
2013-02-11 13:33:00,58.5,21.8,29.47,ESE,112,1.3,1.3,24,0.00,,---,0.00,VWS V14.01,2013-02-11 11:33:00,
2013-02-11 13:34:00,59.0,22.3,29.47,SE,135,2.0,2.0,24,0.00,,---,0.00,VWS V14.01,2013-02-11 11:34:00,
2013-02-11 13:35:00,59.2,22.4,29.47,North,0,3.1,3.1,24,0.00,,---,0.00,VWS V14.01,2013-02-11 11:35:00,
2013-02-11 13:36:00,59.2,22.4,29.47,NNE,22,2.0,3.1,24,0.00,,---,0.00,VWS V14.01,2013-02-11 11:36:00,
2013-02-11 13:37:00,59.5,22.7,29.47,ENE,68,2.2,2.2,24,0.00,,---,0.00,VWS V14.01,2013-02-11 11:37:00,
2013-02-11 13:38:00,59.5,22.7,29.47,North,0,2.5,2.5,24,0.00,,---,0.00,VWS V14.01,2013-02-11 11:38:00,
2013-02-11 13:39:00,59.7,22.9,29.47,North,0,2.9,2.9,24,0.00,,---,0.00,VWS V14.01,2013-02-11 11:39:00,
2013-02-11 13:40:00,59.7,22.9,29.47,North,0,2.0,2.9,24,0.00,,---,0.00,VWS V14.01,2013-02-11 11:40:00,
2013-02-11 13:41:00,59.9,23.0,29.47,NNE,22,1.3,2.0,24,0.00,,---,0.00,VWS V14.01,2013-02-11 11:41:00,
2013-02-11 13:42:00,59.5,22.7,29.47,WNW,292,3.1,3.1,24,0.00,,---,0.00,VWS V14.01,2013-02-11 11:42:00,
2013-02-11 13:43:00,59.5,22.7,29.47,ESE,112,1.6,3.1,24,0.00,,---,0.00,VWS V14.01,2013-02-11 11:43:00,
2013-02-11 13:44:00,59.7,22.9,29.47,NW,315,3.1,3.1,24,0.00,,---,0.00,VWS V14.01,2013-02-11 11:44:00,
2013-02-11 13:45:00,59.4,22.6,29.47,NE,45,1.3,3.1,24,0.00,,---,0.00,VWS V14.01,2013-02-11 11:45:00,
2013-02-11 13:46:00,59.4,22.6,29.47,NW,315,1.3,1.3,24,0.00,,---,0.00,VWS V14.01,2013-02-11 11:46:00,
2013-02-11 13:47:00,59.4,22.6,29.47,NNW,338,2.9,2.9,24,0.00,,---,0.00,VWS V14.01,2013-02-11 11:47:00,
2013-02-11 13:48:00,59.0,20.2,29.47,NW,315,2.9,2.9,22,0.00,,---,0.00,VWS V14.01,2013-02-11 11:48:00,
2013-02-11 13:49:00,58.6,19.9,29.47,NNW,338,4.0,4.0,22,0.00,,---,0.00,VWS V14.01,2013-02-11 11:49:00,
2013-02-11 13:50:00,58.5,19.8,29.47,NNW,338,4.7,4.7,22,0.00,,---,0.00,VWS V14.01,2013-02-11 11:50:00,
2013-02-11 13:51:00,58.5,19.8,29.47,NNE,22,2.7,4.7,22,0.00,,---,0.00,VWS V14.01,2013-02-11 11:51:00,
2013-02-11 13:52:00,58.5,19.8,29.47,North,0,2.7,2.7,22,0.00,,---,0.00,VWS V14.01,2013-02-11 11:52:00,
2013-02-11 13:53:00,58.3,19.6,29.47,WNW,292,3.8,3.8,22,0.00,,---,0.00,VWS V14.01,2013-02-11 11:53:00,
2013-02-11 13:54:00,57.7,19.2,29.47,NNW,338,2.7,3.8,22,0.00,,---,0.00,VWS V14.01,2013-02-11 11:54:00,
2013-02-11 13:55:00,57.9,19.3,29.47,North,0,5.6,5.6,22,0.00,,---,0.00,VWS V14.01,2013-02-11 11:55:00,
2013-02-11 13:56:00,58.1,19.5,29.47,NNW,338,3.8,5.6,22,0.00,,---,0.00,VWS V14.01,2013-02-11 11:56:00,
2013-02-11 13:58:00,58.5,19.8,29.47,NNW,338,2.9,3.8,22,0.00,,---,0.00,VWS V14.01,2013-02-11 11:58:00,
2013-02-11 13:59:00,58.8,20.1,29.47,NNW,338,2.2,2.9,22,0.00,,---,0.00,VWS V14.01,2013-02-11 11:59:00,
2013-02-11 14:00:00,59.2,20.4,29.47,NW,315,2.5,2.5,22,0.00,,---,0.00,VWS V14.01,2013-02-11 12:00:00,
2013-02-11 14:01:00,59.2,20.4,29.47,NW,315,3.1,3.1,22,0.00,,---,0.00,VWS V14.01,2013-02-11 12:01:00,
2013-02-11 14:02:00,59.2,20.4,29.47,North,0,2.5,3.1,22,0.00,,---,0.00,VWS V14.01,2013-02-11 12:02:00,
2013-02-11 14:04:00,59.4,20.5,29.47,North,0,2.7,2.7,22,0.00,,---,0.00,VWS V14.01,2013-02-11 12:04:00,
2013-02-11 14:05:00,59.4,20.5,29.47,ESE,112,3.6,3.6,22,0.00,,---,0.00,VWS V14.01,2013-02-11 12:05:00,
2013-02-11 14:06:00,59.4,20.5,29.47,NNW,338,4.0,4.0,22,0.00,,---,0.00,VWS V14.01,2013-02-11 12:06:00,
2013-02-11 14:07:00,59.4,20.5,29.47,ESE,112,2.7,4.0,22,0.00,,---,0.00,VWS V14.01,2013-02-11 12:07:00,
2013-02-11 14:09:00,59.4,20.5,29.47,NNW,338,5.4,5.4,22,0.00,,---,0.00,VWS V14.01,2013-02-11 12:09:00,
2013-02-11 14:10:00,59.2,20.4,29.47,NNW,338,2.5,5.4,22,0.00,,---,0.00,VWS V14.01,2013-02-11 12:10:00,
2013-02-11 14:11:00,59.4,20.5,29.47,NNW,338,4.3,4.3,22,0.00,,---,0.00,VWS V14.01,2013-02-11 12:11:00,
2013-02-11 14:12:00,59.2,20.4,29.47,North,0,3.8,4.3,22,0.00,,---,0.00,VWS V14.01,2013-02-11 12:12:00,
2013-02-11 14:13:00,59.4,20.5,29.47,North,0,3.8,3.8,22,0.00,,---,0.00,VWS V14.01,2013-02-11 12:13:00,
2013-02-11 14:14:00,59.4,20.5,29.47,North,0,2.2,3.8,22,0.00,,---,0.00,VWS V14.01,2013-02-11 12:14:00,
2013-02-11 14:15:00,59.4,20.5,29.47,North,0,2.7,2.7,22,0.00,,---,0.00,VWS V14.01,2013-02-11 12:15:00,
2013-02-11 14:16:00,59.4,20.5,29.47,NNW,338,3.1,3.1,22,0.00,,---,0.00,VWS V14.01,2013-02-11 12:16:00,
2013-02-11 14:18:00,59.2,20.4,29.47,NNW,338,2.0,3.1,22,0.00,,---,0.00,VWS V14.01,2013-02-11 12:18:00,
2013-02-11 14:19:00,59.4,20.5,29.47,NE,45,2.2,2.2,22,0.00,,---,0.00,VWS V14.01,2013-02-11 12:19:00,
2013-02-11 14:20:00,59.9,21.0,29.47,North,0,2.7,2.7,22,0.00,,---,0.00,VWS V14.01,2013-02-11 12:20:00,
2013-02-11 14:21:00,59.9,21.0,29.47,ENE,68,2.0,2.7,22,0.00,,---,0.00,VWS V14.01,2013-02-11 12:21:00,
2013-02-11 14:22:00,59.9,21.0,29.47,ENE,68,1.6,2.0,22,0.00,,---,0.00,VWS V14.01,2013-02-11 12:22:00,
2013-02-11 14:23:00,59.9,21.0,29.47,North,0,3.1,3.1,22,0.00,,---,0.00,VWS V14.01,2013-02-11 12:23:00,
2013-02-11 14:24:00,59.9,21.0,29.47,NNE,22,2.5,3.1,22,0.00,,---,0.00,VWS V14.01,2013-02-11 12:24:00,
2013-02-11 14:25:00,60.1,21.1,29.47,South,180,2.5,2.5,22,0.00,,---,0.00,VWS V14.01,2013-02-11 12:25:00,
2013-02-11 14:26:00,60.1,21.1,29.47,NE,45,2.2,2.5,22,0.00,,---,0.00,VWS V14.01,2013-02-11 12:26:00,
2013-02-11 14:27:00,60.1,21.1,29.47,East,90,2.2,2.2,22,0.00,,---,0.00,VWS V14.01,2013-02-11 12:27:00,
2013-02-11 14:28:00,60.4,21.4,29.47,North,0,3.1,3.1,22,0.00,,---,0.00,VWS V14.01,2013-02-11 12:28:00,
2013-02-11 14:29:00,60.1,21.1,29.47,NNE,22,2.0,3.1,22,0.00,,---,0.00,VWS V14.01,2013-02-11 12:29:00,
2013-02-11 14:30:00,60.4,21.4,29.47,East,90,1.1,2.0,22,0.00,,---,0.00,VWS V14.01,2013-02-11 12:30:00,
2013-02-11 14:31:00,60.3,21.3,29.47,NNW,338,2.7,2.7,22,0.00,,---,0.00,VWS V14.01,2013-02-11 12:31:00,
2013-02-11 14:32:00,60.3,21.3,29.47,North,0,2.7,2.7,22,0.00,,---,0.00,VWS V14.01,2013-02-11 12:32:00,
2013-02-11 14:33:00,60.1,21.1,29.47,North,0,2.0,2.7,22,0.00,,---,0.00,VWS V14.01,2013-02-11 12:33:00,
2013-02-11 14:34:00,60.1,21.1,29.47,WSW,248,3.6,3.6,22,0.00,,---,0.00,VWS V14.01,2013-02-11 12:34:00,
2013-02-11 14:35:00,60.1,21.1,29.47,North,0,2.0,3.6,22,0.00,,---,0.00,VWS V14.01,2013-02-11 12:35:00,
2013-02-11 14:36:00,60.1,21.1,29.47,South,180,2.5,2.5,22,0.00,,---,0.00,VWS V14.01,2013-02-11 12:36:00,
2013-02-11 14:37:00,59.5,20.7,29.47,ESE,112,2.5,2.5,22,0.00,,---,0.00,VWS V14.01,2013-02-11 12:37:00,
2013-02-11 14:38:00,59.7,20.8,29.47,NW,315,1.6,2.5,22,0.00,,---,0.00,VWS V14.01,2013-02-11 12:38:00,
2013-02-11 14:39:00,59.7,17.4,29.47,NNW,338,4.0,4.0,19,0.00,,---,0.00,VWS V14.01,2013-02-11 12:39:00,
2013-02-11 14:40:00,59.5,17.3,29.47,WNW,292,2.5,4.0,19,0.00,,---,0.00,VWS V14.01,2013-02-11 12:40:00,
2013-02-11 14:41:00,59.5,20.7,29.47,NNW,338,4.9,4.9,22,0.00,,---,0.00,VWS V14.01,2013-02-11 12:41:00,
2013-02-11 14:42:00,59.4,20.5,29.47,NNW,338,2.9,4.9,22,0.00,,---,0.00,VWS V14.01,2013-02-11 12:42:00,
2013-02-11 14:43:00,59.4,20.5,29.47,NNW,338,2.5,2.9,22,0.00,,---,0.00,VWS V14.01,2013-02-11 12:43:00,
2013-02-11 14:44:00,59.5,20.7,29.47,NNW,338,3.1,3.1,22,0.00,,---,0.00,VWS V14.01,2013-02-11 12:44:00,
2013-02-11 14:45:00,59.5,20.7,29.47,NNW,338,3.4,3.4,22,0.00,,---,0.00,VWS V14.01,2013-02-11 12:45:00,
2013-02-11 14:47:00,59.7,20.8,29.47,North,0,2.5,3.4,22,0.00,,---,0.00,VWS V14.01,2013-02-11 12:47:00,
2013-02-11 14:48:00,59.9,21.0,29.47,North,0,1.3,2.5,22,0.00,,---,0.00,VWS V14.01,2013-02-11 12:48:00,
2013-02-11 14:49:00,59.7,20.8,29.47,NE,45,2.7,2.7,22,0.00,,---,0.00,VWS V14.01,2013-02-11 12:49:00,
2013-02-11 14:50:00,59.9,21.0,29.47,NNE,22,1.3,2.7,22,0.00,,---,0.00,VWS V14.01,2013-02-11 12:50:00,
2013-02-11 14:51:00,59.9,21.0,29.47,NNW,338,2.5,2.5,22,0.00,,---,0.00,VWS V14.01,2013-02-11 12:51:00,
2013-02-11 14:52:00,59.7,20.8,29.47,North,0,3.6,3.6,22,0.00,,---,0.00,VWS V14.01,2013-02-11 12:52:00,
2013-02-11 14:53:00,59.7,20.8,29.47,NNW,338,2.0,3.6,22,0.00,,---,0.00,VWS V14.01,2013-02-11 12:53:00,
2013-02-11 14:54:00,60.1,17.7,29.47,East,90,2.0,2.0,19,0.00,,---,0.00,VWS V14.01,2013-02-11 12:54:00,
2013-02-11 14:55:00,59.9,21.0,29.47,NNE,22,2.0,2.0,22,0.00,,---,0.00,VWS V14.01,2013-02-11 12:55:00,
2013-02-11 14:56:00,59.9,21.0,29.47,NNW,338,2.9,2.9,22,0.00,,---,0.00,VWS V14.01,2013-02-11 12:56:00,
2013-02-11 14:57:00,60.1,21.1,29.47,North,0,2.9,2.9,22,0.00,,---,0.00,VWS V14.01,2013-02-11 12:57:00,
2013-02-11 14:58:00,60.1,21.1,29.47,NNE,22,2.0,2.9,22,0.00,,---,0.00,VWS V14.01,2013-02-11 12:58:00,
2013-02-11 14:59:00,59.7,17.4,29.47,NNW,338,2.9,2.9,19,0.00,,---,0.00,VWS V14.01,2013-02-11 12:59:00,
2013-02-11 15:00:00,59.5,20.7,29.47,NNW,338,3.4,3.4,22,0.00,,---,0.00,VWS V14.01,2013-02-11 13:00:00,
2013-02-11 15:01:00,59.7,20.8,29.47,West,270,2.5,3.4,22,0.00,,---,0.00,VWS V14.01,2013-02-11 13:01:00,
2013-02-11 15:02:00,59.5,20.7,29.47,NNE,22,0.9,2.5,22,0.00,,---,0.00,VWS V14.01,2013-02-11 13:02:00,
2013-02-11 15:03:00,59.7,20.8,29.47,NNE,22,2.5,2.5,22,0.00,,---,0.00,VWS V14.01,2013-02-11 13:03:00,
2013-02-11 15:04:00,59.9,21.0,29.47,ENE,68,2.2,2.5,22,0.00,,---,0.00,VWS V14.01,2013-02-11 13:04:00,
2013-02-11 15:05:00,60.3,21.3,29.47,East,90,2.0,2.2,22,0.00,,---,0.00,VWS V14.01,2013-02-11 13:05:00,
2013-02-11 15:06:00,60.3,21.3,29.47,NNE,22,1.6,2.0,22,0.00,,---,0.00,VWS V14.01,2013-02-11 13:06:00,
2013-02-11 15:07:00,60.1,21.1,29.47,NNW,338,2.2,2.2,22,0.00,,---,0.00,VWS V14.01,2013-02-11 13:07:00,
2013-02-11 15:08:00,60.1,17.7,29.47,NW,315,4.0,4.0,19,0.00,,---,0.00,VWS V14.01,2013-02-11 13:08:00,
2013-02-11 15:09:00,60.1,17.7,29.47,North,0,3.6,4.0,19,0.00,,---,0.00,VWS V14.01,2013-02-11 13:09:00,
2013-02-11 15:10:00,59.7,17.4,29.47,North,0,2.7,3.6,19,0.00,,---,0.00,VWS V14.01,2013-02-11 13:10:00,
2013-02-11 15:11:00,59.7,17.4,29.47,NNW,338,3.1,3.1,19,0.00,,---,0.00,VWS V14.01,2013-02-11 13:11:00,
2013-02-11 15:12:00,59.5,17.3,29.47,ESE,112,1.1,3.1,19,0.00,,---,0.00,VWS V14.01,2013-02-11 13:12:00,
2013-02-11 15:13:00,59.4,17.1,29.47,NNW,338,3.8,3.8,19,0.00,,---,0.00,VWS V14.01,2013-02-11 13:13:00,
2013-02-11 15:14:00,59.5,17.3,29.47,WNW,292,2.0,3.8,19,0.00,,---,0.00,VWS V14.01,2013-02-11 13:14:00,
2013-02-11 15:15:00,59.7,17.4,29.47,NNW,338,2.2,2.2,19,0.00,,---,0.00,VWS V14.01,2013-02-11 13:15:00,
2013-02-11 15:16:00,59.9,17.6,29.47,ENE,68,2.7,2.7,19,0.00,,---,0.00,VWS V14.01,2013-02-11 13:16:00,
2013-02-11 15:17:00,60.1,17.7,29.47,East,90,2.5,2.7,19,0.00,,---,0.00,VWS V14.01,2013-02-11 13:17:00,
2013-02-11 15:18:00,60.1,17.7,29.47,ESE,112,2.5,2.5,19,0.00,,---,0.00,VWS V14.01,2013-02-11 13:18:00,
2013-02-11 15:20:00,60.4,18.0,29.47,NNE,22,2.0,2.5,19,0.00,,---,0.00,VWS V14.01,2013-02-11 13:20:00,
2013-02-11 15:21:00,60.6,18.2,29.47,NE,45,3.4,3.4,19,0.00,,---,0.00,VWS V14.01,2013-02-11 13:21:00,
2013-02-11 15:22:00,60.4,18.0,29.47,NNE,22,2.0,3.4,19,0.00,,---,0.00,VWS V14.01,2013-02-11 13:22:00,
2013-02-11 15:23:00,60.4,18.0,29.47,North,0,5.4,5.4,19,0.00,,---,0.00,VWS V14.01,2013-02-11 13:23:00,
2013-02-11 15:24:00,60.4,18.0,29.47,NNE,22,2.9,5.4,19,0.00,,---,0.00,VWS V14.01,2013-02-11 13:24:00,
2013-02-11 15:25:00,60.6,18.2,29.47,ENE,68,2.9,2.9,19,0.00,,---,0.00,VWS V14.01,2013-02-11 13:25:00,
2013-02-11 15:26:00,60.6,18.2,29.47,SSE,158,1.3,2.9,19,0.00,,---,0.00,VWS V14.01,2013-02-11 13:26:00,
2013-02-11 15:27:00,60.4,18.0,29.47,ENE,68,1.6,1.6,19,0.00,,---,0.00,VWS V14.01,2013-02-11 13:27:00,
2013-02-11 15:29:00,61.0,18.5,29.47,NNE,22,2.5,2.5,19,0.00,,---,0.00,VWS V14.01,2013-02-11 13:29:00,
2013-02-11 15:30:00,61.2,18.6,29.47,NNW,338,2.7,2.7,19,0.00,,---,0.00,VWS V14.01,2013-02-11 13:30:00,
2013-02-11 15:31:00,61.2,18.6,29.47,East,90,2.0,2.7,19,0.00,,---,0.00,VWS V14.01,2013-02-11 13:31:00,
2013-02-11 15:32:00,61.0,18.5,29.47,East,90,2.5,2.5,19,0.00,,---,0.00,VWS V14.01,2013-02-11 13:32:00,
2013-02-11 15:33:00,61.0,18.5,29.47,NNE,22,3.1,3.1,19,0.00,,---,0.00,VWS V14.01,2013-02-11 13:33:00,
2013-02-11 15:34:00,61.0,18.5,29.47,North,0,3.1,3.1,19,0.00,,---,0.00,VWS V14.01,2013-02-11 13:34:00,
2013-02-11 15:35:00,60.8,18.3,29.47,NNW,338,2.7,3.1,19,0.00,,---,0.00,VWS V14.01,2013-02-11 13:35:00,
2013-02-11 15:36:00,60.4,18.0,29.47,NE,45,3.1,3.1,19,0.00,,---,0.00,VWS V14.01,2013-02-11 13:36:00,
2013-02-11 15:37:00,60.4,18.0,29.47,NNW,338,4.0,4.0,19,0.00,,---,0.00,VWS V14.01,2013-02-11 13:37:00,
2013-02-11 15:38:00,60.1,17.7,29.47,North,0,3.6,4.0,19,0.00,,---,0.00,VWS V14.01,2013-02-11 13:38:00,
2013-02-11 15:39:00,59.9,17.6,29.47,NNW,338,3.8,3.8,19,0.00,,---,0.00,VWS V14.01,2013-02-11 13:39:00,
2013-02-11 15:40:00,59.7,17.4,29.47,NNW,338,1.6,3.8,19,0.00,,---,0.00,VWS V14.01,2013-02-11 13:40:00,
2013-02-11 15:41:00,59.7,17.4,29.47,ENE,68,2.7,2.7,19,0.00,,---,0.00,VWS V14.01,2013-02-11 13:41:00,
2013-02-11 15:42:00,59.7,17.4,29.47,NE,45,2.2,2.7,19,0.00,,---,0.00,VWS V14.01,2013-02-11 13:42:00,
2013-02-11 15:43:00,59.4,17.1,29.47,SE,135,2.7,2.7,19,0.00,,---,0.00,VWS V14.01,2013-02-11 13:43:00,
2013-02-11 15:44:00,59.2,17.0,29.47,NNE,22,3.1,3.1,19,0.00,,---,0.00,VWS V14.01,2013-02-11 13:44:00,
2013-02-11 15:45:00,59.0,16.8,29.47,North,0,2.9,3.1,19,0.00,,---,0.00,VWS V14.01,2013-02-11 13:45:00,
2013-02-11 15:46:00,59.0,16.8,29.47,NNW,338,2.5,2.9,19,0.00,,---,0.00,VWS V14.01,2013-02-11 13:46:00,
2013-02-11 15:47:00,58.8,16.7,29.47,North,0,2.7,2.7,19,0.00,,---,0.00,VWS V14.01,2013-02-11 13:47:00,
2013-02-11 15:48:00,58.8,16.7,29.47,North,0,2.9,2.9,19,0.00,,---,0.00,VWS V14.01,2013-02-11 13:48:00,
2013-02-11 15:49:00,58.8,16.7,29.47,NNW,338,3.1,3.1,19,0.00,,---,0.00,VWS V14.01,2013-02-11 13:49:00,
2013-02-11 15:50:00,58.6,16.5,29.47,North,0,3.4,3.4,19,0.00,,---,0.00,VWS V14.01,2013-02-11 13:50:00,
2013-02-11 15:52:00,58.5,16.4,29.47,North,0,3.6,3.6,19,0.00,,---,0.00,VWS V14.01,2013-02-11 13:52:00,
2013-02-11 15:53:00,58.5,16.4,29.47,NW,315,3.4,3.6,19,0.00,,---,0.00,VWS V14.01,2013-02-11 13:53:00,
2013-02-11 15:54:00,58.5,16.4,29.47,NNW,338,2.0,3.4,19,0.00,,---,0.00,VWS V14.01,2013-02-11 13:54:00,
2013-02-11 15:55:00,58.5,16.4,29.47,South,180,2.5,2.5,19,0.00,,---,0.00,VWS V14.01,2013-02-11 13:55:00,
2013-02-11 15:56:00,58.3,16.2,29.47,North,0,1.3,2.5,19,0.00,,---,0.00,VWS V14.01,2013-02-11 13:56:00,
2013-02-11 15:57:00,58.3,16.2,29.47,East,90,2.0,2.0,19,0.00,,---,0.00,VWS V14.01,2013-02-11 13:57:00,
2013-02-11 15:58:00,58.3,16.2,29.47,ENE,68,2.7,2.7,19,0.00,,---,0.00,VWS V14.01,2013-02-11 13:58:00,
2013-02-11 15:59:00,58.1,16.1,29.47,North,0,3.4,3.4,19,0.00,,---,0.00,VWS V14.01,2013-02-11 13:59:00,
2013-02-11 16:00:00,58.3,16.2,29.47,North,0,2.2,3.4,19,0.00,,---,0.00,VWS V14.01,2013-02-11 14:00:00,
2013-02-11 16:01:00,58.3,16.2,29.47,NE,45,1.3,2.2,19,0.00,,---,0.00,VWS V14.01,2013-02-11 14:01:00,
2013-02-11 16:02:00,58.1,16.1,29.47,NNW,338,3.1,3.1,19,0.00,,---,0.00,VWS V14.01,2013-02-11 14:02:00,
2013-02-11 16:05:00,58.1,16.1,29.47,North,0,1.1,3.1,19,0.00,,---,0.00,VWS V14.01,2013-02-11 14:05:00,
2013-02-11 16:06:00,57.9,15.9,29.47,NW,315,5.6,5.6,19,0.00,,---,0.00,VWS V14.01,2013-02-11 14:06:00,
2013-02-11 16:07:00,58.1,16.1,29.47,North,0,2.5,5.6,19,0.00,,---,0.00,VWS V14.01,2013-02-11 14:07:00,
2013-02-11 16:08:00,58.1,16.1,29.50,NNE,22,2.9,2.9,19,0.00,,---,0.00,VWS V14.01,2013-02-11 14:08:00,
2013-02-11 16:09:00,57.9,15.9,29.50,North,0,2.0,2.9,19,0.00,,---,0.00,VWS V14.01,2013-02-11 14:09:00,
2013-02-11 16:10:00,57.9,15.9,29.50,North,0,2.2,2.2,19,0.00,,---,0.00,VWS V14.01,2013-02-11 14:10:00,
2013-02-11 16:11:00,57.9,15.9,29.50,North,0,2.7,2.7,19,0.00,,---,0.00,VWS V14.01,2013-02-11 14:11:00,
2013-02-11 16:12:00,57.9,15.9,29.50,North,0,2.9,2.9,19,0.00,,---,0.00,VWS V14.01,2013-02-11 14:12:00,
2013-02-11 16:13:00,57.7,15.8,29.50,North,0,1.6,2.9,19,0.00,,---,0.00,VWS V14.01,2013-02-11 14:13:00,
2013-02-11 16:14:00,57.7,15.8,29.50,North,0,2.7,2.7,19,0.00,,---,0.00,VWS V14.01,2013-02-11 14:14:00,
2013-02-11 16:16:00,57.6,15.6,29.50,NW,315,2.2,2.7,19,0.00,,---,0.00,VWS V14.01,2013-02-11 14:16:00,
2013-02-11 16:17:00,57.6,15.6,29.50,NNW,338,4.3,4.3,19,0.00,,---,0.00,VWS V14.01,2013-02-11 14:17:00,
2013-02-11 16:18:00,57.6,15.6,29.50,North,0,2.0,4.3,19,0.00,,---,0.00,VWS V14.01,2013-02-11 14:18:00,
2013-02-11 16:19:00,57.6,15.6,29.50,North,0,2.9,2.9,19,0.00,,---,0.00,VWS V14.01,2013-02-11 14:19:00,
2013-02-11 16:20:00,57.6,15.6,29.50,NNE,22,1.3,2.9,19,0.00,,---,0.00,VWS V14.01,2013-02-11 14:20:00,
2013-02-11 16:21:00,57.6,15.6,29.50,NNW,338,3.1,3.1,19,0.00,,---,0.00,VWS V14.01,2013-02-11 14:21:00,
2013-02-11 16:22:00,57.6,15.6,29.50,NE,45,2.0,3.1,19,0.00,,---,0.00,VWS V14.01,2013-02-11 14:22:00,
2013-02-11 16:23:00,57.7,15.8,29.50,North,0,1.6,2.0,19,0.00,,---,0.00,VWS V14.01,2013-02-11 14:23:00,
2013-02-11 16:24:00,57.7,15.8,29.50,NNW,338,2.5,2.5,19,0.00,,---,0.00,VWS V14.01,2013-02-11 14:24:00,
2013-02-11 16:25:00,57.6,15.6,29.50,NW,315,3.1,3.1,19,0.00,,---,0.00,VWS V14.01,2013-02-11 14:25:00,
2013-02-11 16:26:00,57.6,15.6,29.50,NNW,338,2.7,3.1,19,0.00,,---,0.00,VWS V14.01,2013-02-11 14:26:00,
2013-02-11 16:27:00,57.6,15.6,29.50,North,0,3.4,3.4,19,0.00,,---,0.00,VWS V14.01,2013-02-11 14:27:00,
2013-02-11 16:28:00,57.6,15.6,29.50,North,0,3.4,3.4,19,0.00,,---,0.00,VWS V14.01,2013-02-11 14:28:00,
2013-02-11 16:29:00,57.6,15.6,29.50,North,0,2.0,3.4,19,0.00,,---,0.00,VWS V14.01,2013-02-11 14:29:00,
2013-02-11 16:30:00,57.6,15.6,29.50,North,0,3.1,3.1,19,0.00,,---,0.00,VWS V14.01,2013-02-11 14:30:00,
2013-02-11 16:31:00,57.6,15.6,29.50,North,0,2.5,3.1,19,0.00,,---,0.00,VWS V14.01,2013-02-11 14:31:00,
2013-02-11 16:33:00,57.6,15.6,29.50,North,0,3.8,3.8,19,0.00,,---,0.00,VWS V14.01,2013-02-11 14:33:00,
2013-02-11 16:34:00,57.2,15.3,29.50,NNW,338,1.3,3.8,19,0.00,,---,0.00,VWS V14.01,2013-02-11 14:34:00,
2013-02-11 16:35:00,57.2,15.3,29.50,North,0,3.6,3.6,19,0.00,,---,0.00,VWS V14.01,2013-02-11 14:35:00,
2013-02-11 16:36:00,57.0,16.4,29.50,NW,315,2.5,3.6,20,0.00,,---,0.00,VWS V14.01,2013-02-11 14:36:00,
2013-02-11 16:37:00,56.8,16.2,29.50,North,0,3.1,3.1,20,0.00,,---,0.00,VWS V14.01,2013-02-11 14:37:00,
2013-02-11 16:38:00,56.8,16.2,29.50,NNE,22,1.6,3.1,20,0.00,,---,0.00,VWS V14.01,2013-02-11 14:38:00,
2013-02-11 16:39:00,56.8,16.2,29.50,North,0,2.9,2.9,20,0.00,,---,0.00,VWS V14.01,2013-02-11 14:39:00,
2013-02-11 16:40:00,56.8,16.2,29.50,North,0,2.2,2.9,20,0.00,,---,0.00,VWS V14.01,2013-02-11 14:40:00,
2013-02-11 16:41:00,56.8,16.2,29.50,NNE,22,2.0,2.2,20,0.00,,---,0.00,VWS V14.01,2013-02-11 14:41:00,
2013-02-11 16:42:00,56.8,16.2,29.50,NNE,22,2.9,2.9,20,0.00,,---,0.00,VWS V14.01,2013-02-11 14:42:00,
2013-02-11 16:43:00,56.7,16.1,29.50,NNE,22,1.6,2.9,20,0.00,,---,0.00,VWS V14.01,2013-02-11 14:43:00,
2013-02-11 16:44:00,56.7,16.1,29.50,ENE,68,1.3,1.6,20,0.00,,---,0.00,VWS V14.01,2013-02-11 14:44:00,
2013-02-11 16:45:00,56.7,16.1,29.50,NE,45,2.7,2.7,20,0.00,,---,0.00,VWS V14.01,2013-02-11 14:45:00,
2013-02-11 16:46:00,56.7,16.1,29.50,East,90,3.8,3.8,20,0.00,,---,0.00,VWS V14.01,2013-02-11 14:46:00,
2013-02-11 16:47:00,56.5,15.9,29.50,North,0,1.6,3.8,20,0.00,,---,0.00,VWS V14.01,2013-02-11 14:47:00,
2013-02-11 16:48:00,56.5,15.9,29.50,NW,315,2.5,2.5,20,0.00,,---,0.00,VWS V14.01,2013-02-11 14:48:00,
2013-02-11 16:49:00,56.3,15.8,29.50,North,0,2.7,2.7,20,0.00,,---,0.00,VWS V14.01,2013-02-11 14:49:00,
2013-02-11 16:50:00,56.3,15.8,29.50,SE,135,3.6,3.6,20,0.00,,---,0.00,VWS V14.01,2013-02-11 14:50:00,
2013-02-11 16:51:00,56.3,15.8,29.50,West,270,3.8,3.8,20,0.00,,---,0.00,VWS V14.01,2013-02-11 14:51:00,
2013-02-11 16:52:00,56.3,15.8,29.50,NNW,338,1.6,3.8,20,0.00,,---,0.00,VWS V14.01,2013-02-11 14:52:00,
2013-02-11 16:53:00,56.1,15.6,29.50,NNW,338,2.2,2.2,20,0.00,,---,0.00,VWS V14.01,2013-02-11 14:53:00,
2013-02-11 16:54:00,56.1,15.6,29.50,NE,45,4.3,4.3,20,0.00,,---,0.00,VWS V14.01,2013-02-11 14:54:00,
2013-02-11 16:55:00,55.9,15.5,29.50,North,0,2.0,4.3,20,0.00,,---,0.00,VWS V14.01,2013-02-11 14:55:00,
2013-02-11 16:56:00,55.9,15.5,29.50,North,0,2.5,2.5,20,0.00,,---,0.00,VWS V14.01,2013-02-11 14:56:00,
2013-02-11 16:57:00,55.9,17.7,29.50,North,0,2.5,2.5,22,0.00,,---,0.00,VWS V14.01,2013-02-11 14:57:00,
2013-02-11 16:58:00,55.8,15.3,29.50,NNE,22,1.3,2.5,20,0.00,,---,0.00,VWS V14.01,2013-02-11 14:58:00,
2013-02-11 16:59:00,55.8,17.5,29.50,NNW,338,3.1,3.1,22,0.00,,---,0.00,VWS V14.01,2013-02-11 14:59:00,
2013-02-11 17:00:00,55.6,17.4,29.50,NW,315,0.0,3.1,22,0.00,,---,0.00,VWS V14.01,2013-02-11 15:00:00,
2013-02-11 17:01:00,55.6,17.4,29.50,WSW,248,4.0,4.0,22,0.00,,---,0.00,VWS V14.01,2013-02-11 15:01:00,
2013-02-11 17:02:00,55.6,17.4,29.50,NNW,338,2.2,4.0,22,0.00,,---,0.00,VWS V14.01,2013-02-11 15:02:00,
2013-02-11 17:03:00,55.6,17.4,29.50,NNE,22,1.6,2.2,22,0.00,,---,0.00,VWS V14.01,2013-02-11 15:03:00,
2013-02-11 17:04:00,55.4,17.2,29.50,NNW,338,2.7,2.7,22,0.00,,---,0.00,VWS V14.01,2013-02-11 15:04:00,
2013-02-11 17:05:00,55.4,17.2,29.50,NNW,338,2.5,2.7,22,0.00,,---,0.00,VWS V14.01,2013-02-11 15:05:00,
2013-02-11 17:06:00,55.2,18.1,29.50,NNE,22,1.3,2.5,23,0.00,,---,0.00,VWS V14.01,2013-02-11 15:06:00,
2013-02-11 17:07:00,55.2,18.1,29.50,NE,45,2.0,2.0,23,0.00,,---,0.00,VWS V14.01,2013-02-11 15:07:00,
2013-02-11 17:08:00,55.2,18.1,29.50,ENE,68,0.9,2.0,23,0.00,,---,0.00,VWS V14.01,2013-02-11 15:08:00,
2013-02-11 17:09:00,55.2,18.1,29.50,NNW,338,2.5,2.5,23,0.00,,---,0.00,VWS V14.01,2013-02-11 15:09:00,
2013-02-11 17:10:00,55.0,17.9,29.50,North,0,2.7,2.7,23,0.00,,---,0.00,VWS V14.01,2013-02-11 15:10:00,
2013-02-11 17:11:00,54.9,17.8,29.50,ENE,68,0.9,2.7,23,0.00,,---,0.00,VWS V14.01,2013-02-11 15:11:00,
2013-02-11 17:12:00,54.9,17.8,29.50,East,90,2.5,2.5,23,0.00,,---,0.00,VWS V14.01,2013-02-11 15:12:00,
2013-02-11 17:13:00,54.9,17.8,29.50,North,0,1.3,2.5,23,0.00,,---,0.00,VWS V14.01,2013-02-11 15:13:00,
2013-02-11 17:14:00,54.7,17.6,29.50,North,0,1.1,1.3,23,0.00,,---,0.00,VWS V14.01,2013-02-11 15:14:00,
2013-02-11 17:15:00,54.5,17.5,29.50,NNW,338,2.7,2.7,23,0.00,,---,0.00,VWS V14.01,2013-02-11 15:15:00,
2013-02-11 17:16:00,54.5,17.5,29.50,NW,315,2.2,2.7,23,0.00,,---,0.00,VWS V14.01,2013-02-11 15:16:00,
2013-02-11 17:17:00,54.5,17.5,29.50,NNW,338,0.9,2.2,23,0.00,,---,0.00,VWS V14.01,2013-02-11 15:17:00,
2013-02-11 17:18:00,54.5,17.5,29.50,NNE,22,1.3,1.3,23,0.00,,---,0.00,VWS V14.01,2013-02-11 15:18:00,
2013-02-11 17:19:00,54.5,17.5,29.50,NNE,22,3.6,3.6,23,0.00,,---,0.00,VWS V14.01,2013-02-11 15:19:00,
2013-02-11 17:20:00,54.5,17.5,29.50,NNE,22,1.1,3.6,23,0.00,,---,0.00,VWS V14.01,2013-02-11 15:20:00,
2013-02-11 17:21:00,54.3,17.3,29.50,NNW,338,3.1,3.1,23,0.00,,---,0.00,VWS V14.01,2013-02-11 15:21:00,
2013-02-11 17:22:00,54.3,17.3,29.50,NNE,22,1.3,3.1,23,0.00,,---,0.00,VWS V14.01,2013-02-11 15:22:00,
2013-02-11 17:23:00,54.3,17.3,29.50,North,0,2.5,2.5,23,0.00,,---,0.00,VWS V14.01,2013-02-11 15:23:00,
2013-02-11 17:24:00,54.1,17.2,29.50,ENE,68,1.1,2.5,23,0.00,,---,0.00,VWS V14.01,2013-02-11 15:24:00,
2013-02-11 17:25:00,54.1,17.2,29.50,NNW,338,2.0,2.0,23,0.00,,---,0.00,VWS V14.01,2013-02-11 15:25:00,
2013-02-11 17:26:00,54.1,17.2,29.50,NNW,338,0.9,2.0,23,0.00,,---,0.00,VWS V14.01,2013-02-11 15:26:00,
2013-02-11 17:27:00,54.1,17.2,29.50,NNW,338,1.6,1.6,23,0.00,,---,0.00,VWS V14.01,2013-02-11 15:27:00,
2013-02-11 17:28:00,54.1,17.2,29.50,North,0,1.1,1.6,23,0.00,,---,0.00,VWS V14.01,2013-02-11 15:28:00,
2013-02-11 17:29:00,54.0,17.0,29.50,WNW,292,4.9,4.9,23,0.00,,---,0.00,VWS V14.01,2013-02-11 15:29:00,
2013-02-11 17:30:00,54.0,17.0,29.50,NNW,338,2.7,4.9,23,0.00,,---,0.00,VWS V14.01,2013-02-11 15:30:00,
2013-02-11 17:31:00,53.8,16.9,29.50,NNW,338,3.4,3.4,23,0.00,,---,0.00,VWS V14.01,2013-02-11 15:31:00,
2013-02-11 17:32:00,53.8,16.9,29.50,NNW,338,2.5,3.4,23,0.00,,---,0.00,VWS V14.01,2013-02-11 15:32:00,
2013-02-11 17:33:00,53.8,16.9,29.50,NNW,338,2.7,2.7,23,0.00,,---,0.00,VWS V14.01,2013-02-11 15:33:00,
2013-02-11 17:34:00,53.8,16.9,29.50,North,0,1.3,2.7,23,0.00,,---,0.00,VWS V14.01,2013-02-11 15:34:00,
2013-02-11 17:35:00,53.6,16.7,29.50,NNE,22,2.2,2.2,23,0.00,,---,0.00,VWS V14.01,2013-02-11 15:35:00,
2013-02-11 17:36:00,53.6,16.7,29.50,NNE,22,2.5,2.5,23,0.00,,---,0.00,VWS V14.01,2013-02-11 15:36:00,
2013-02-11 17:37:00,53.6,16.7,29.50,NNE,22,1.6,2.5,23,0.00,,---,0.00,VWS V14.01,2013-02-11 15:37:00,
2013-02-11 17:38:00,53.4,16.6,29.47,North,0,2.0,2.0,23,0.00,,---,0.00,VWS V14.01,2013-02-11 15:38:00,
2013-02-11 17:39:00,53.4,16.6,29.47,North,0,2.0,2.0,23,0.00,,---,0.00,VWS V14.01,2013-02-11 15:39:00,
2013-02-11 17:40:00,53.4,16.6,29.47,North,0,1.6,2.0,23,0.00,,---,0.00,VWS V14.01,2013-02-11 15:40:00,
2013-02-11 17:41:00,53.2,16.4,29.47,NNE,22,2.0,2.0,23,0.00,,---,0.00,VWS V14.01,2013-02-11 15:41:00,
2013-02-11 17:42:00,53.2,19.3,29.47,North,0,2.2,2.2,26,0.00,,---,0.00,VWS V14.01,2013-02-11 15:42:00,
2013-02-11 17:43:00,53.2,19.3,29.47,WNW,292,1.1,2.2,26,0.00,,---,0.00,VWS V14.01,2013-02-11 15:43:00,
2013-02-11 17:44:00,53.2,19.3,29.47,NNW,338,1.3,1.3,26,0.00,,---,0.00,VWS V14.01,2013-02-11 15:44:00,
2013-02-11 17:45:00,53.1,19.1,29.47,NW,315,1.3,1.3,26,0.00,,---,0.00,VWS V14.01,2013-02-11 15:45:00,
2013-02-11 17:46:00,53.1,19.1,29.47,NNE,22,3.1,3.1,26,0.00,,---,0.00,VWS V14.01,2013-02-11 15:46:00,
2013-02-11 17:47:00,53.1,19.1,29.47,North,0,2.0,3.1,26,0.00,,---,0.00,VWS V14.01,2013-02-11 15:47:00,
2013-02-11 17:48:00,53.1,19.1,29.47,North,0,1.1,2.0,26,0.00,,---,0.00,VWS V14.01,2013-02-11 15:48:00,
2013-02-11 17:49:00,53.1,19.1,29.47,NNW,338,2.9,2.9,26,0.00,,---,0.00,VWS V14.01,2013-02-11 15:49:00,
2013-02-11 17:50:00,53.1,19.1,29.47,NW,315,1.3,2.9,26,0.00,,---,0.00,VWS V14.01,2013-02-11 15:50:00,
2013-02-11 17:51:00,52.9,19.0,29.47,NNW,338,2.7,2.7,26,0.00,,---,0.00,VWS V14.01,2013-02-11 15:51:00,
2013-02-11 17:52:00,52.9,19.0,29.47,NNW,338,1.3,2.7,26,0.00,,---,0.00,VWS V14.01,2013-02-11 15:52:00,
2013-02-11 17:53:00,52.9,19.0,29.50,WNW,292,1.6,1.6,26,0.00,,---,0.00,VWS V14.01,2013-02-11 15:53:00,
2013-02-11 17:54:00,52.9,19.0,29.50,NNW,338,2.9,2.9,26,0.00,,---,0.00,VWS V14.01,2013-02-11 15:54:00,
2013-02-11 17:55:00,52.7,18.8,29.50,North,0,1.6,2.9,26,0.00,,---,0.00,VWS V14.01,2013-02-11 15:55:00,
2013-02-11 17:56:00,52.7,18.8,29.50,North,0,2.5,2.5,26,0.00,,---,0.00,VWS V14.01,2013-02-11 15:56:00,
2013-02-11 17:58:00,52.7,18.8,29.50,East,90,2.0,2.5,26,0.00,,---,0.00,VWS V14.01,2013-02-11 15:58:00,
2013-02-11 17:59:00,52.7,18.8,29.50,ENE,68,2.7,2.7,26,0.00,,---,0.00,VWS V14.01,2013-02-11 15:59:00,
2013-02-11 18:00:00,52.5,18.6,29.50,NNW,338,3.4,3.4,26,0.00,,---,0.00,VWS V14.01,2013-02-11 16:00:00,
2013-02-11 18:01:00,52.5,18.6,29.50,North,0,3.1,3.4,26,0.00,,---,0.00,VWS V14.01,2013-02-11 16:01:00,
2013-02-11 18:02:00,52.5,18.6,29.50,North,0,1.6,3.1,26,0.00,,---,0.00,VWS V14.01,2013-02-11 16:02:00,
2013-02-11 18:04:00,52.5,18.6,29.50,North,0,2.0,2.0,26,0.00,,---,0.00,VWS V14.01,2013-02-11 16:04:00,
2013-02-11 18:05:00,52.3,18.5,29.50,NNW,338,3.1,3.1,26,0.00,,---,0.00,VWS V14.01,2013-02-11 16:05:00,
2013-02-11 18:06:00,52.3,18.5,29.50,SSW,202,2.5,3.1,26,0.00,,---,0.00,VWS V14.01,2013-02-11 16:06:00,
2013-02-11 18:07:00,52.2,18.3,29.50,NNW,338,5.6,5.6,26,0.00,,---,0.00,VWS V14.01,2013-02-11 16:07:00,
2013-02-11 18:08:00,52.2,18.3,29.50,North,0,1.1,5.6,26,0.00,,---,0.00,VWS V14.01,2013-02-11 16:08:00,
2013-02-11 18:09:00,52.2,18.3,29.50,NE,45,0.9,1.1,26,0.00,,---,0.00,VWS V14.01,2013-02-11 16:09:00,
2013-02-11 18:10:00,52.2,18.3,29.50,NW,315,1.6,1.6,26,0.00,,---,0.00,VWS V14.01,2013-02-11 16:10:00,
2013-02-11 18:11:00,52.0,18.2,29.50,NNE,22,2.0,2.0,26,0.00,,---,0.00,VWS V14.01,2013-02-11 16:11:00,
2013-02-11 18:12:00,52.0,18.2,29.50,NNE,22,2.5,2.5,26,0.00,,---,0.00,VWS V14.01,2013-02-11 16:12:00,
2013-02-11 18:13:00,52.0,18.2,29.50,NNE,22,1.1,2.5,26,0.00,,---,0.00,VWS V14.01,2013-02-11 16:13:00,
2013-02-11 18:14:00,52.0,18.2,29.50,NE,45,1.1,1.1,26,0.00,,---,0.00,VWS V14.01,2013-02-11 16:14:00,
2013-02-11 18:15:00,51.8,18.0,29.50,North,0,1.6,1.6,26,0.00,,---,0.00,VWS V14.01,2013-02-11 16:15:00,
2013-02-11 18:16:00,51.8,18.0,29.50,NNW,338,3.8,3.8,26,0.00,,---,0.00,VWS V14.01,2013-02-11 16:16:00,
2013-02-11 18:17:00,51.8,18.0,29.50,NNW,338,1.6,3.8,26,0.00,,---,0.00,VWS V14.01,2013-02-11 16:17:00,
2013-02-11 18:18:00,51.8,18.0,29.50,NNE,22,2.2,2.2,26,0.00,,---,0.00,VWS V14.01,2013-02-11 16:18:00,
2013-02-11 18:19:00,51.8,18.0,29.50,NNE,22,2.2,2.2,26,0.00,,---,0.00,VWS V14.01,2013-02-11 16:19:00,
2013-02-11 18:20:00,51.8,18.0,29.50,NNW,338,2.5,2.5,26,0.00,,---,0.00,VWS V14.01,2013-02-11 16:20:00,
2013-02-11 18:21:00,51.8,18.0,29.50,ENE,68,1.3,2.5,26,0.00,,---,0.00,VWS V14.01,2013-02-11 16:21:00,
2013-02-11 18:22:00,51.8,18.0,29.50,North,0,1.1,1.3,26,0.00,,---,0.00,VWS V14.01,2013-02-11 16:22:00,
2013-02-11 18:23:00,51.6,18.8,29.53,NNW,338,1.3,1.3,27,0.00,,---,0.00,VWS V14.01,2013-02-11 16:23:00,
2013-02-11 18:24:00,51.6,18.8,29.53,NNE,22,2.2,2.2,27,0.00,,---,0.00,VWS V14.01,2013-02-11 16:24:00,
2013-02-11 18:25:00,51.6,18.8,29.53,NNE,22,0.0,2.2,27,0.00,,---,0.00,VWS V14.01,2013-02-11 16:25:00,
2013-02-11 18:26:00,51.6,18.8,29.53,NNW,338,2.7,2.7,27,0.00,,---,0.00,VWS V14.01,2013-02-11 16:26:00,
2013-02-11 18:27:00,51.6,18.8,29.53,NNW,338,1.3,2.7,27,0.00,,---,0.00,VWS V14.01,2013-02-11 16:27:00,
2013-02-11 18:28:00,51.6,18.8,29.53,North,0,1.3,1.3,27,0.00,,---,0.00,VWS V14.01,2013-02-11 16:28:00,
2013-02-11 18:29:00,51.6,18.8,29.53,North,0,2.0,2.0,27,0.00,,---,0.00,VWS V14.01,2013-02-11 16:29:00,
2013-02-11 18:30:00,51.4,18.6,29.53,NNE,22,1.1,2.0,27,0.00,,---,0.00,VWS V14.01,2013-02-11 16:30:00,
2013-02-11 18:31:00,51.4,18.6,29.53,North,0,2.5,2.5,27,0.00,,---,0.00,VWS V14.01,2013-02-11 16:31:00,
2013-02-11 18:32:00,51.4,18.6,29.53,ENE,68,1.3,2.5,27,0.00,,---,0.00,VWS V14.01,2013-02-11 16:32:00,
2013-02-11 18:33:00,51.4,18.6,29.53,ENE,68,1.6,1.6,27,0.00,,---,0.00,VWS V14.01,2013-02-11 16:33:00,
2013-02-11 18:34:00,51.4,18.6,29.53,NE,45,2.0,2.0,27,0.00,,---,0.00,VWS V14.01,2013-02-11 16:34:00,
2013-02-11 18:35:00,51.4,18.6,29.53,North,0,2.0,2.0,27,0.00,,---,0.00,VWS V14.01,2013-02-11 16:35:00,
2013-02-11 18:36:00,51.4,18.6,29.53,NNE,22,0.9,2.0,27,0.00,,---,0.00,VWS V14.01,2013-02-11 16:36:00,
2013-02-11 18:37:00,51.4,18.6,29.53,NNE,22,3.1,3.1,27,0.00,,---,0.00,VWS V14.01,2013-02-11 16:37:00,
2013-02-11 18:38:00,51.4,18.6,29.53,NNW,338,2.0,3.1,27,0.00,,---,0.00,VWS V14.01,2013-02-11 16:38:00,
2013-02-11 18:39:00,51.3,18.4,29.53,ENE,68,2.9,2.9,27,0.00,,---,0.00,VWS V14.01,2013-02-11 16:39:00,
2013-02-11 18:40:00,51.3,18.4,29.53,East,90,0.9,2.9,27,0.00,,---,0.00,VWS V14.01,2013-02-11 16:40:00,
2013-02-11 18:41:00,51.3,18.4,29.53,East,90,1.3,1.3,27,0.00,,---,0.00,VWS V14.01,2013-02-11 16:41:00,
2013-02-11 18:43:00,51.3,18.4,29.53,ENE,68,1.3,1.3,27,0.00,,---,0.00,VWS V14.01,2013-02-11 16:43:00,
2013-02-11 18:44:00,51.3,18.4,29.53,NE,45,2.5,2.5,27,0.00,,---,0.00,VWS V14.01,2013-02-11 16:44:00,
2013-02-11 18:46:00,51.3,18.4,29.53,ENE,68,3.1,3.1,27,0.00,,---,0.00,VWS V14.01,2013-02-11 16:46:00,
2013-02-11 18:47:00,51.3,18.4,29.53,NNW,338,3.8,3.8,27,0.00,,---,0.00,VWS V14.01,2013-02-11 16:47:00,
2013-02-11 18:48:00,51.3,18.4,29.53,NNW,338,1.3,3.8,27,0.00,,---,0.00,VWS V14.01,2013-02-11 16:48:00,
2013-02-11 18:49:00,51.3,18.4,29.53,NNE,22,2.7,2.7,27,0.00,,---,0.00,VWS V14.01,2013-02-11 16:49:00,
2013-02-11 18:50:00,51.3,18.4,29.53,NNE,22,2.2,2.7,27,0.00,,---,0.00,VWS V14.01,2013-02-11 16:50:00,
2013-02-11 18:51:00,51.3,18.4,29.53,NNE,22,2.7,2.7,27,0.00,,---,0.00,VWS V14.01,2013-02-11 16:51:00,
2013-02-11 18:52:00,51.1,18.3,29.53,ESE,112,1.1,2.7,27,0.00,,---,0.00,VWS V14.01,2013-02-11 16:52:00,
2013-02-11 18:53:00,51.1,18.3,29.53,ESE,112,1.6,1.6,27,0.00,,---,0.00,VWS V14.01,2013-02-11 16:53:00,
2013-02-11 18:54:00,51.1,18.3,29.53,NE,45,2.0,2.0,27,0.00,,---,0.00,VWS V14.01,2013-02-11 16:54:00,
2013-02-11 18:55:00,51.1,18.3,29.53,NE,45,2.0,2.0,27,0.00,,---,0.00,VWS V14.01,2013-02-11 16:55:00,
2013-02-11 18:56:00,51.1,18.3,29.53,NNE,22,1.1,2.0,27,0.00,,---,0.00,VWS V14.01,2013-02-11 16:56:00,
2013-02-11 18:57:00,51.1,18.3,29.53,ENE,68,0.0,1.1,27,0.00,,---,0.00,VWS V14.01,2013-02-11 16:57:00,
2013-02-11 18:58:00,51.1,18.3,29.53,ENE,68,1.3,1.3,27,0.00,,---,0.00,VWS V14.01,2013-02-11 16:58:00,
2013-02-11 18:59:00,51.1,18.3,29.53,East,90,1.1,1.3,27,0.00,,---,0.00,VWS V14.01,2013-02-11 16:59:00,
2013-02-11 19:01:00,50.9,18.1,29.53,ESE,112,2.2,2.2,27,0.00,,---,0.00,VWS V14.01,2013-02-11 17:01:00,
2013-02-11 19:02:00,50.9,18.1,29.53,SE,135,2.2,2.2,27,0.00,,---,0.00,VWS V14.01,2013-02-11 17:02:00,
2013-02-11 19:03:00,50.9,18.1,29.53,East,90,1.3,2.2,27,0.00,,---,0.00,VWS V14.01,2013-02-11 17:03:00,
2013-02-11 19:04:00,50.9,18.1,29.53,East,90,2.0,2.0,27,0.00,,---,0.00,VWS V14.01,2013-02-11 17:04:00,
2013-02-11 19:05:00,50.9,19.0,29.53,ENE,68,1.1,2.0,28,0.00,,---,0.00,VWS V14.01,2013-02-11 17:05:00,
2013-02-11 19:06:00,50.9,18.1,29.53,NNE,22,1.6,1.6,27,0.00,,---,0.00,VWS V14.01,2013-02-11 17:06:00,
2013-02-11 19:07:00,50.9,19.0,29.53,NNE,22,0.0,1.6,28,0.00,,---,0.00,VWS V14.01,2013-02-11 17:07:00,
2013-02-11 19:08:00,50.9,19.0,29.56,NNE,22,1.3,1.3,28,0.00,,---,0.00,VWS V14.01,2013-02-11 17:08:00,
2013-02-11 19:09:00,50.9,19.0,29.56,NNE,22,1.6,1.6,28,0.00,,---,0.00,VWS V14.01,2013-02-11 17:09:00,
2013-02-11 19:10:00,50.9,19.0,29.56,NNE,22,2.0,2.0,28,0.00,,---,0.00,VWS V14.01,2013-02-11 17:10:00,
2013-02-11 19:11:00,50.9,19.0,29.56,NNE,22,1.3,2.0,28,0.00,,---,0.00,VWS V14.01,2013-02-11 17:11:00,
2013-02-11 19:12:00,50.9,19.0,29.56,North,0,2.5,2.5,28,0.00,,---,0.00,VWS V14.01,2013-02-11 17:12:00,
2013-02-11 19:13:00,50.9,19.0,29.56,NNW,338,2.0,2.5,28,0.00,,---,0.00,VWS V14.01,2013-02-11 17:13:00,
2013-02-11 19:14:00,50.9,19.0,29.56,North,0,1.3,2.0,28,0.00,,---,0.00,VWS V14.01,2013-02-11 17:14:00,
2013-02-11 19:15:00,50.9,19.0,29.56,North,0,1.3,1.3,28,0.00,,---,0.00,VWS V14.01,2013-02-11 17:15:00,
2013-02-11 19:16:00,50.7,18.8,29.56,North,0,1.1,1.3,28,0.00,,---,0.00,VWS V14.01,2013-02-11 17:16:00,
2013-02-11 19:17:00,50.7,18.8,29.56,North,0,1.6,1.6,28,0.00,,---,0.00,VWS V14.01,2013-02-11 17:17:00,
2013-02-11 19:18:00,50.7,18.8,29.56,North,0,0.9,1.6,28,0.00,,---,0.00,VWS V14.01,2013-02-11 17:18:00,
2013-02-11 19:19:00,50.7,18.8,29.56,North,0,0.0,0.9,28,0.00,,---,0.00,VWS V14.01,2013-02-11 17:19:00,
2013-02-11 19:20:00,50.7,18.8,29.56,NNE,22,1.3,1.3,28,0.00,,---,0.00,VWS V14.01,2013-02-11 17:20:00,
2013-02-11 19:21:00,50.7,18.8,29.56,NNE,22,1.3,1.3,28,0.00,,---,0.00,VWS V14.01,2013-02-11 17:21:00,
2013-02-11 19:22:00,50.7,18.8,29.56,NNE,22,0.0,1.3,28,0.00,,---,0.00,VWS V14.01,2013-02-11 17:22:00,
2013-02-11 19:23:00,50.5,18.7,29.56,NNE,22,0.0,0.0,28,0.00,,---,0.00,VWS V14.01,2013-02-11 17:23:00,
2013-02-11 19:24:00,50.5,18.7,29.56,North,0,2.0,2.0,28,0.00,,---,0.00,VWS V14.01,2013-02-11 17:24:00,
2013-02-11 19:25:00,50.5,18.7,29.56,North,0,0.9,2.0,28,0.00,,---,0.00,VWS V14.01,2013-02-11 17:25:00,
2013-02-11 19:26:00,50.5,18.7,29.56,North,0,0.0,0.9,28,0.00,,---,0.00,VWS V14.01,2013-02-11 17:26:00,
2013-02-11 19:27:00,50.5,18.7,29.56,NNE,22,1.3,1.3,28,0.00,,---,0.00,VWS V14.01,2013-02-11 17:27:00,
2013-02-11 19:28:00,50.5,18.7,29.56,NNE,22,0.0,1.3,28,0.00,,---,0.00,VWS V14.01,2013-02-11 17:28:00,
2013-02-11 19:29:00,50.5,18.7,29.56,NE,45,1.3,1.3,28,0.00,,---,0.00,VWS V14.01,2013-02-11 17:29:00,
2013-02-11 19:30:00,50.5,18.7,29.56,NNE,22,2.0,2.0,28,0.00,,---,0.00,VWS V14.01,2013-02-11 17:30:00,
2013-02-11 19:31:00,50.4,18.5,29.56,NNE,22,1.1,2.0,28,0.00,,---,0.00,VWS V14.01,2013-02-11 17:31:00,
2013-02-11 19:32:00,50.4,18.5,29.56,NNE,22,1.1,1.1,28,0.00,,---,0.00,VWS V14.01,2013-02-11 17:32:00,
2013-02-11 19:33:00,50.4,17.7,29.56,NE,45,1.6,1.6,27,0.00,,---,0.00,VWS V14.01,2013-02-11 17:33:00,
2013-02-11 19:34:00,50.2,17.5,29.56,ENE,68,0.9,1.6,27,0.00,,---,0.00,VWS V14.01,2013-02-11 17:34:00,
2013-02-11 19:35:00,50.2,17.5,29.56,ENE,68,0.0,0.9,27,0.00,,---,0.00,VWS V14.01,2013-02-11 17:35:00,
2013-02-11 19:36:00,50.2,17.5,29.56,ENE,68,0.9,0.9,27,0.00,,---,0.00,VWS V14.01,2013-02-11 17:36:00,
2013-02-11 19:37:00,50.2,17.5,29.56,East,90,2.5,2.5,27,0.00,,---,0.00,VWS V14.01,2013-02-11 17:37:00,
2013-02-11 19:38:00,50.2,17.5,29.56,East,90,0.9,2.5,27,0.00,,---,0.00,VWS V14.01,2013-02-11 17:38:00,
2013-02-11 19:39:00,50.2,17.5,29.56,NNE,22,2.7,2.7,27,0.00,,---,0.00,VWS V14.01,2013-02-11 17:39:00,
2013-02-11 19:40:00,50.2,17.5,29.56,NNW,338,2.9,2.9,27,0.00,,---,0.00,VWS V14.01,2013-02-11 17:40:00,
2013-02-11 19:42:00,50.2,17.5,29.56,NNW,338,1.1,2.9,27,0.00,,---,0.00,VWS V14.01,2013-02-11 17:42:00,
2013-02-11 19:43:00,50.2,17.5,29.56,NNW,338,0.9,1.1,27,0.00,,---,0.00,VWS V14.01,2013-02-11 17:43:00,
2013-02-11 19:44:00,50.2,17.5,29.56,NNW,338,0.0,0.9,27,0.00,,---,0.00,VWS V14.01,2013-02-11 17:44:00,
2013-02-11 19:45:00,50.2,17.5,29.56,NNW,338,1.6,1.6,27,0.00,,---,0.00,VWS V14.01,2013-02-11 17:45:00,
2013-02-11 19:46:00,50.2,17.5,29.56,NNW,338,1.6,1.6,27,0.00,,---,0.00,VWS V14.01,2013-02-11 17:46:00,
2013-02-11 19:47:00,50.2,17.5,29.56,NNW,338,2.5,2.5,27,0.00,,---,0.00,VWS V14.01,2013-02-11 17:47:00,
2013-02-11 19:48:00,50.2,18.4,29.56,NNW,338,2.5,2.5,28,0.00,,---,0.00,VWS V14.01,2013-02-11 17:48:00,
2013-02-11 19:49:00,50.2,18.4,29.56,North,0,0.9,2.5,28,0.00,,---,0.00,VWS V14.01,2013-02-11 17:49:00,
2013-02-11 19:50:00,50.2,18.4,29.56,NNW,338,2.0,2.0,28,0.00,,---,0.00,VWS V14.01,2013-02-11 17:50:00,
2013-02-11 19:51:00,50.2,18.4,29.56,NNW,338,2.7,2.7,28,0.00,,---,0.00,VWS V14.01,2013-02-11 17:51:00,
2013-02-11 19:52:00,50.2,18.4,29.56,NNW,338,1.3,2.7,28,0.00,,---,0.00,VWS V14.01,2013-02-11 17:52:00,
2013-02-11 19:53:00,50.2,18.4,29.56,North,0,1.6,1.6,28,0.00,,---,0.00,VWS V14.01,2013-02-11 17:53:00,
2013-02-11 19:54:00,50.2,18.4,29.56,North,0,2.2,2.2,28,0.00,,---,0.00,VWS V14.01,2013-02-11 17:54:00,
2013-02-11 19:55:00,50.2,18.4,29.56,North,0,0.0,2.2,28,0.00,,---,0.00,VWS V14.01,2013-02-11 17:55:00,
2013-02-11 19:56:00,50.0,18.2,29.56,North,0,2.0,2.0,28,0.00,,---,0.00,VWS V14.01,2013-02-11 17:56:00,
2013-02-11 19:57:00,50.0,18.2,29.56,North,0,2.0,2.0,28,0.00,,---,0.00,VWS V14.01,2013-02-11 17:57:00,
2013-02-11 19:58:00,50.0,18.2,29.56,North,0,1.3,2.0,28,0.00,,---,0.00,VWS V14.01,2013-02-11 17:58:00,
2013-02-11 19:59:00,50.0,18.2,29.56,North,0,1.3,1.3,28,0.00,,---,0.00,VWS V14.01,2013-02-11 17:59:00,
2013-02-11 20:00:00,50.0,18.2,29.56,North,0,2.5,2.5,28,0.00,,---,0.00,VWS V14.01,2013-02-11 18:00:00,
2013-02-11 20:01:00,49.8,18.0,29.56,North,0,1.3,2.5,28,0.00,,---,0.00,VWS V14.01,2013-02-11 18:01:00,
2013-02-11 20:02:00,49.8,18.0,29.56,North,0,0.0,1.3,28,0.00,,---,0.00,VWS V14.01,2013-02-11 18:02:00,
2013-02-11 20:04:00,49.8,18.0,29.56,North,0,1.1,1.1,28,0.00,,---,0.00,VWS V14.01,2013-02-11 18:04:00,
2013-02-11 20:05:00,49.8,18.0,29.56,North,0,0.9,1.1,28,0.00,,---,0.00,VWS V14.01,2013-02-11 18:05:00,
2013-02-11 20:06:00,49.8,18.0,29.56,North,0,2.5,2.5,28,0.00,,---,0.00,VWS V14.01,2013-02-11 18:06:00,
2013-02-11 20:07:00,49.8,18.0,29.56,North,0,1.1,2.5,28,0.00,,---,0.00,VWS V14.01,2013-02-11 18:07:00,
2013-02-11 20:08:00,49.6,17.9,29.56,North,0,0.0,1.1,28,0.00,,---,0.00,VWS V14.01,2013-02-11 18:08:00,
2013-02-11 20:09:00,49.6,17.9,29.56,North,0,0.0,0.0,28,0.00,,---,0.00,VWS V14.01,2013-02-11 18:09:00,
2013-02-11 20:10:00,49.6,17.9,29.56,North,0,1.3,1.3,28,0.00,,---,0.00,VWS V14.01,2013-02-11 18:10:00,
2013-02-11 20:11:00,49.6,17.9,29.56,North,0,0.9,1.3,28,0.00,,---,0.00,VWS V14.01,2013-02-11 18:11:00,
2013-02-11 20:12:00,49.5,17.7,29.56,North,0,0.0,0.9,28,0.00,,---,0.00,VWS V14.01,2013-02-11 18:12:00,
2013-02-11 20:13:00,49.5,17.7,29.56,North,0,1.3,1.3,28,0.00,,---,0.00,VWS V14.01,2013-02-11 18:13:00,
2013-02-11 20:14:00,49.5,17.7,29.56,North,0,2.5,2.5,28,0.00,,---,0.00,VWS V14.01,2013-02-11 18:14:00,
2013-02-11 20:15:00,49.5,17.7,29.56,North,0,0.9,2.5,28,0.00,,---,0.00,VWS V14.01,2013-02-11 18:15:00,
2013-02-11 20:16:00,49.5,17.7,29.56,NNE,22,1.6,1.6,28,0.00,,---,0.00,VWS V14.01,2013-02-11 18:16:00,
2013-02-11 20:17:00,49.5,17.7,29.56,ENE,68,2.0,2.0,28,0.00,,---,0.00,VWS V14.01,2013-02-11 18:17:00,
2013-02-11 20:18:00,49.5,17.7,29.56,ENE,68,0.0,2.0,28,0.00,,---,0.00,VWS V14.01,2013-02-11 18:18:00,
2013-02-11 20:19:00,49.5,17.7,29.56,ENE,68,1.1,1.1,28,0.00,,---,0.00,VWS V14.01,2013-02-11 18:19:00,
2013-02-11 20:20:00,49.5,17.7,29.56,North,0,1.1,1.1,28,0.00,,---,0.00,VWS V14.01,2013-02-11 18:20:00,
2013-02-11 20:21:00,49.5,17.7,29.56,North,0,1.1,1.1,28,0.00,,---,0.00,VWS V14.01,2013-02-11 18:21:00,
2013-02-11 20:22:00,49.5,17.7,29.56,North,0,1.3,1.3,28,0.00,,---,0.00,VWS V14.01,2013-02-11 18:22:00,
2013-02-11 20:23:00,49.3,17.6,29.56,NNE,22,1.6,1.6,28,0.00,,---,0.00,VWS V14.01,2013-02-11 18:23:00,
2013-02-11 20:24:00,49.3,17.6,29.56,NNE,22,0.9,1.6,28,0.00,,---,0.00,VWS V14.01,2013-02-11 18:24:00,
2013-02-11 20:25:00,49.3,17.6,29.56,NNE,22,1.3,1.3,28,0.00,,---,0.00,VWS V14.01,2013-02-11 18:25:00,
2013-02-11 20:27:00,49.3,17.6,29.56,NNE,22,0.0,1.3,28,0.00,,---,0.00,VWS V14.01,2013-02-11 18:27:00,
2013-02-11 20:28:00,49.3,17.6,29.56,NNE,22,1.3,1.3,28,0.00,,---,0.00,VWS V14.01,2013-02-11 18:28:00,
2013-02-11 20:29:00,49.3,17.6,29.56,NNE,22,1.1,1.3,28,0.00,,---,0.00,VWS V14.01,2013-02-11 18:29:00,
2013-02-11 20:30:00,49.3,17.6,29.56,NNE,22,0.0,1.1,28,0.00,,---,0.00,VWS V14.01,2013-02-11 18:30:00,
2013-02-11 20:31:00,49.3,17.6,29.56,NNE,22,1.3,1.3,28,0.00,,---,0.00,VWS V14.01,2013-02-11 18:31:00,
2013-02-11 20:32:00,49.1,17.4,29.56,NNE,22,1.3,1.3,28,0.00,,---,0.00,VWS V14.01,2013-02-11 18:32:00,
2013-02-11 20:33:00,49.1,17.4,29.56,NNE,22,0.0,1.3,28,0.00,,---,0.00,VWS V14.01,2013-02-11 18:33:00,
2013-02-11 20:34:00,49.1,17.4,29.56,NNE,22,0.0,0.0,28,0.00,,---,0.00,VWS V14.01,2013-02-11 18:34:00,
2013-02-11 20:35:00,49.1,17.4,29.56,NNE,22,0.0,0.0,28,0.00,,---,0.00,VWS V14.01,2013-02-11 18:35:00,
2013-02-11 20:36:00,49.1,17.4,29.56,NNE,22,1.1,1.1,28,0.00,,---,0.00,VWS V14.01,2013-02-11 18:36:00,
2013-02-11 20:37:00,49.1,17.4,29.56,NNE,22,2.2,2.2,28,0.00,,---,0.00,VWS V14.01,2013-02-11 18:37:00,
2013-02-11 20:38:00,49.1,17.4,29.56,NNE,22,2.5,2.5,28,0.00,,---,0.00,VWS V14.01,2013-02-11 18:38:00,
2013-02-11 20:39:00,49.1,17.4,29.56,NNE,22,1.6,2.5,28,0.00,,---,0.00,VWS V14.01,2013-02-11 18:39:00,
2013-02-11 20:40:00,49.1,17.4,29.56,NNE,22,1.3,1.6,28,0.00,,---,0.00,VWS V14.01,2013-02-11 18:40:00,
2013-02-11 20:41:00,49.1,17.4,29.56,North,0,2.5,2.5,28,0.00,,---,0.00,VWS V14.01,2013-02-11 18:41:00,
2013-02-11 20:42:00,49.3,17.6,29.56,North,0,1.3,2.5,28,0.00,,---,0.00,VWS V14.01,2013-02-11 18:42:00,
2013-02-11 20:43:00,49.3,17.6,29.56,NNW,338,2.5,2.5,28,0.00,,---,0.00,VWS V14.01,2013-02-11 18:43:00,
2013-02-11 20:44:00,49.3,17.6,29.56,NNW,338,1.3,2.5,28,0.00,,---,0.00,VWS V14.01,2013-02-11 18:44:00,
2013-02-11 20:45:00,49.1,17.4,29.56,North,0,1.6,1.6,28,0.00,,---,0.00,VWS V14.01,2013-02-11 18:45:00,
2013-02-11 20:46:00,49.1,17.4,29.56,North,0,0.9,1.6,28,0.00,,---,0.00,VWS V14.01,2013-02-11 18:46:00,
2013-02-11 20:48:00,49.1,18.2,29.56,NNE,22,3.1,3.1,29,0.00,,---,0.00,VWS V14.01,2013-02-11 18:48:00,
2013-02-11 20:49:00,49.1,18.2,29.56,NNE,22,1.1,3.1,29,0.00,,---,0.00,VWS V14.01,2013-02-11 18:49:00,
2013-02-11 20:50:00,49.1,18.2,29.56,NNE,22,1.6,1.6,29,0.00,,---,0.00,VWS V14.01,2013-02-11 18:50:00,
2013-02-11 20:51:00,48.9,18.1,29.56,NNE,22,1.6,1.6,29,0.00,,---,0.00,VWS V14.01,2013-02-11 18:51:00,
2013-02-11 20:52:00,48.9,18.1,29.56,NNE,22,1.3,1.6,29,0.00,,---,0.00,VWS V14.01,2013-02-11 18:52:00,
2013-02-11 20:53:00,48.9,18.1,29.59,NNE,22,1.6,1.6,29,0.00,,---,0.00,VWS V14.01,2013-02-11 18:53:00,
2013-02-11 20:54:00,48.9,18.1,29.59,NNE,22,1.1,1.6,29,0.00,,---,0.00,VWS V14.01,2013-02-11 18:54:00,
2013-02-11 20:55:00,48.9,18.1,29.59,NNE,22,1.6,1.6,29,0.00,,---,0.00,VWS V14.01,2013-02-11 18:55:00,
2013-02-11 20:56:00,49.1,18.2,29.59,NNE,22,2.2,2.2,29,0.00,,---,0.00,VWS V14.01,2013-02-11 18:56:00,
2013-02-11 20:57:00,49.1,18.2,29.59,NNE,22,1.6,2.2,29,0.00,,---,0.00,VWS V14.01,2013-02-11 18:57:00,
2013-02-11 20:58:00,49.1,18.2,29.59,NNE,22,0.9,1.6,29,0.00,,---,0.00,VWS V14.01,2013-02-11 18:58:00,
2013-02-11 20:59:00,48.9,18.1,29.59,NNE,22,0.0,0.9,29,0.00,,---,0.00,VWS V14.01,2013-02-11 18:59:00,
2013-02-11 21:00:00,48.9,18.1,29.59,NNE,22,1.1,1.1,29,0.00,,---,0.00,VWS V14.01,2013-02-11 19:00:00,
2013-02-11 21:01:00,48.9,18.1,29.59,NNE,22,1.6,1.6,29,0.00,,---,0.00,VWS V14.01,2013-02-11 19:01:00,
2013-02-11 21:02:00,48.7,17.9,29.59,NE,45,1.3,1.6,29,0.00,,---,0.00,VWS V14.01,2013-02-11 19:02:00,
2013-02-11 21:04:00,48.7,17.9,29.59,NE,45,0.0,1.3,29,0.00,,---,0.00,VWS V14.01,2013-02-11 19:04:00,
2013-02-11 21:05:00,48.7,17.9,29.59,NE,45,0.0,0.0,29,0.00,,---,0.00,VWS V14.01,2013-02-11 19:05:00,
2013-02-11 21:06:00,48.7,17.9,29.59,East,90,2.0,2.0,29,0.00,,---,0.00,VWS V14.01,2013-02-11 19:06:00,
2013-02-11 21:07:00,48.7,17.9,29.59,East,90,0.0,2.0,29,0.00,,---,0.00,VWS V14.01,2013-02-11 19:07:00,
2013-02-11 21:08:00,48.7,17.9,29.56,East,90,1.1,1.1,29,0.00,,---,0.00,VWS V14.01,2013-02-11 19:08:00,
2013-02-11 21:09:00,48.7,17.9,29.56,East,90,0.0,1.1,29,0.00,,---,0.00,VWS V14.01,2013-02-11 19:09:00,
2013-02-11 21:10:00,48.7,17.9,29.56,East,90,0.0,0.0,29,0.00,,---,0.00,VWS V14.01,2013-02-11 19:10:00,
2013-02-11 21:11:00,48.7,17.9,29.56,East,90,0.0,0.0,29,0.00,,---,0.00,VWS V14.01,2013-02-11 19:11:00,
2013-02-11 21:12:00,48.6,17.8,29.56,East,90,0.0,0.0,29,0.00,,---,0.00,VWS V14.01,2013-02-11 19:12:00,
2013-02-11 21:13:00,48.6,17.8,29.56,East,90,1.1,1.1,29,0.00,,---,0.00,VWS V14.01,2013-02-11 19:13:00,
2013-02-11 21:14:00,48.6,17.8,29.56,East,90,1.1,1.1,29,0.00,,---,0.00,VWS V14.01,2013-02-11 19:14:00,
2013-02-11 21:15:00,48.6,17.8,29.56,ENE,68,0.9,1.1,29,0.00,,---,0.00,VWS V14.01,2013-02-11 19:15:00,
2013-02-11 21:16:00,48.6,17.8,29.56,ENE,68,0.0,0.9,29,0.00,,---,0.00,VWS V14.01,2013-02-11 19:16:00,
2013-02-11 21:17:00,48.6,18.5,29.56,ENE,68,0.0,0.0,30,0.00,,---,0.00,VWS V14.01,2013-02-11 19:17:00,
2013-02-11 21:18:00,48.6,17.8,29.56,ENE,68,0.0,0.0,29,0.00,,---,0.00,VWS V14.01,2013-02-11 19:18:00,
2013-02-11 21:19:00,48.6,17.8,29.56,ENE,68,0.0,0.0,29,0.00,,---,0.00,VWS V14.01,2013-02-11 19:19:00,
2013-02-11 21:20:00,48.6,18.5,29.56,ENE,68,0.0,0.0,30,0.00,,---,0.00,VWS V14.01,2013-02-11 19:20:00,
2013-02-11 21:30:00,48.2,18.2,29.59,NE,45,0.0,0.0,30,0.00,,---,0.00,VWS V14.01,2013-02-11 19:30:00,
2013-02-11 21:35:00,48.0,18.8,29.59,NNE,22,0.9,0.9,31,0.00,,---,0.00,VWS V14.01,2013-02-11 19:35:00,
2013-02-11 21:40:00,48.0,18.8,29.59,NNE,22,2.0,2.2,31,0.00,,---,0.00,VWS V14.01,2013-02-11 19:40:00,
2013-02-11 21:46:00,48.0,19.6,29.56,NNE,22,2.0,2.0,32,0.00,,---,0.00,VWS V14.01,2013-02-11 19:46:00,
2013-02-11 21:51:00,48.0,19.6,29.56,ENE,68,0.0,0.0,32,0.00,,---,0.00,VWS V14.01,2013-02-11 19:51:00,
2013-02-11 21:56:00,47.8,20.1,29.56,ESE,112,1.6,2.5,33,0.00,,---,0.00,VWS V14.01,2013-02-11 19:56:00,
2013-02-11 22:01:00,47.8,20.1,29.59,ESE,112,1.3,1.3,33,0.00,,---,0.00,VWS V14.01,2013-02-11 20:01:00,
2013-02-11 22:06:00,47.8,20.9,29.59,ENE,68,2.5,2.5,34,0.00,,---,0.00,VWS V14.01,2013-02-11 20:06:00,
2013-02-11 22:11:00,47.7,20.7,29.59,SE,135,3.4,3.6,34,0.00,,---,0.00,VWS V14.01,2013-02-11 20:11:00,
2013-02-11 22:16:00,47.5,20.5,29.59,SE,135,0.0,0.0,34,0.00,,---,0.00,VWS V14.01,2013-02-11 20:16:00,
2013-02-11 22:21:00,47.3,20.4,29.59,ESE,112,1.3,1.6,34,0.00,,---,0.00,VWS V14.01,2013-02-11 20:21:00,
2013-02-11 22:27:00,47.3,21.0,29.59,ESE,112,1.1,1.3,35,0.00,,---,0.00,VWS V14.01,2013-02-11 20:27:00,
2013-02-11 22:32:00,47.1,20.9,29.59,East,90,1.3,1.6,35,0.00,,---,0.00,VWS V14.01,2013-02-11 20:32:00,
2013-02-11 22:37:00,46.9,21.4,29.59,ESE,112,1.6,1.6,36,0.00,,---,0.00,VWS V14.01,2013-02-11 20:37:00,
2013-02-11 22:42:00,46.9,21.4,29.59,ENE,68,1.3,1.6,36,0.00,,---,0.00,VWS V14.01,2013-02-11 20:42:00,
2013-02-11 22:48:00,46.8,21.2,29.59,NE,45,1.6,2.0,36,0.00,,---,0.00,VWS V14.01,2013-02-11 20:48:00,
2013-02-11 22:53:00,46.8,21.2,29.59,NNE,22,1.3,2.0,36,0.00,,---,0.00,VWS V14.01,2013-02-11 20:53:00,
2013-02-11 22:58:00,46.6,21.7,29.59,NNE,22,1.3,1.6,37,0.00,,---,0.00,VWS V14.01,2013-02-11 20:58:00,
2013-02-11 23:03:00,46.4,21.6,29.59,SE,135,2.7,2.7,37,0.00,,---,0.00,VWS V14.01,2013-02-11 21:03:00,
2013-02-11 23:08:00,46.6,21.7,29.59,SE,135,2.5,2.5,37,0.00,,---,0.00,VWS V14.01,2013-02-11 21:08:00,
2013-02-11 23:13:00,46.6,21.7,29.59,SE,135,0.0,1.1,37,0.00,,---,0.00,VWS V14.01,2013-02-11 21:13:00,
2013-02-11 23:18:00,46.8,21.9,29.59,SE,135,0.0,0.9,37,0.00,,---,0.00,VWS V14.01,2013-02-11 21:18:00,
2013-02-11 23:23:00,46.8,21.9,29.59,ESE,112,1.3,1.3,37,0.00,,---,0.00,VWS V14.01,2013-02-11 21:23:00,
2013-02-11 23:29:00,46.9,22.0,29.62,ENE,68,0.9,1.3,37,0.00,,---,0.00,VWS V14.01,2013-02-11 21:29:00,
2013-02-11 23:34:00,46.9,22.0,29.62,ENE,68,1.1,1.1,37,0.00,,---,0.00,VWS V14.01,2013-02-11 21:34:00,
2013-02-11 23:39:00,46.6,21.7,29.62,ENE,68,0.9,2.2,37,0.00,,---,0.00,VWS V14.01,2013-02-11 21:39:00,
2013-02-11 23:44:00,46.4,21.6,29.59,ENE,68,0.0,0.0,37,0.00,,---,0.00,VWS V14.01,2013-02-11 21:44:00,
2013-02-11 23:49:00,46.2,22.0,29.59,ENE,68,1.6,1.6,38,0.00,,---,0.00,VWS V14.01,2013-02-11 21:49:00,
2013-02-11 23:54:00,46.0,21.9,29.59,NE,45,1.3,1.3,38,0.00,,---,0.00,VWS V14.01,2013-02-11 21:54:00,
2013-02-11 23:59:00,45.9,21.7,29.59,NE,45,0.0,0.0,38,0.00,,---,0.00,VWS V14.01,2013-02-11 21:59:00,